[[[{"header":{"parameterUnit":"kt","parameterCategory":2,"dx":1,"dy":1,"la1":29.587661999999998,"la2":31.0,"lo1":-88.76705300000003,"lo2":-86.6583820000003,"nx":115,"ny":88,"refTime":"2022-10-10T12:00:00:Z","depth":0,"parameterNumber":1,"parameterNumberName":"U-component_of_WINDS"},"data":[-4.9394,-4.8781,-4.7943,-4.7343,-4.6982,-4.6485,-4.6153,-4.6017,-4.5398,-4.5049,-4.517,-4.517,-4.5049,-4.5035,-4.5035,-4.4914,-4.4914,-4.4914,-4.4914,-4.4914,-4.4914,-4.4914,-4.4914,-4.4914,-4.4914,-4.4792,-4.4792,-4.4928,-4.455,-4.4671,-4.4792,-4.4671,-4.4199,-4.4077,-4.3834,-4.3089,-4.2111,-4.1621,-4.0502,-3.9528,-3.9516,-3.9392,-3.9158,-3.8043,-3.6676,-3.5179,-3.3812,-3.2943,-3.2313,-3.1304,-3.0165,-2.877,-2.8007,-2.7489,-2.6988,-2.6477,-2.6222,-2.5967,-2.5839,-2.5711,-2.5711,-2.5583,-2.5583,-2.5583,-2.5207,-2.5207,-2.5207,-2.5207,-2.5207,-2.5207,-2.4823,-2.4823,-2.4823,-2.4823,-2.4823,-2.4823,-2.4823,-2.4823,-2.4815,-2.4815,-2.4664,-2.4609,-2.4594,-2.4523,-2.4508,-2.4305,-2.4141,-2.4125,-2.393,-2.3449,-2.2958,-2.2531,-2.2235,-2.2247,-2.2056,-2.2011,-2.1878,-2.1369,-2.0744,-1.9787,-1.8961,-1.8246,-1.7661,-1.6951,-1.6359,-1.5771,-1.5297,-1.494,-1.446,-1.3851,-1.2782,-1.2174,-1.2315,-1.2187,-1.2145,-5.2777,-5.2542,-5.0907,-4.9243,-4.7838,-4.7583,-4.7343,-4.6741,-4.6003,-4.5761,-4.5897,-4.5882,-4.5761,-4.5519,-4.517,-4.5035,-4.4914,-4.4928,-4.4914,-4.4914,-4.4914,-4.4914,-4.4914,-4.4914,-4.4914,-4.4914,-4.4914,-4.4914,-4.4914,-4.4914,-4.4914,-4.4914,-4.4792,-4.4792,-4.4564,-4.4063,-4.3577,-4.3211,-4.2478,-4.1743,-4.1621,-4.1498,-4.0774,-3.9911,-3.891,-3.7547,-3.6076,-3.4951,-3.3937,-3.2932,-3.1672,-3.0409,-2.9395,-2.8761,-2.8134,-2.737,-2.7115,-2.686,-2.6597,-2.6477,-2.6597,-2.6588,-2.6724,-2.6469,-2.5975,-2.5983,-2.5983,-2.5855,-2.5855,-2.5727,-2.5207,-2.4951,-2.4823,-2.4823,-2.4823,-2.4823,-2.4823,-2.4823,-2.4815,-2.48,-2.4713,-2.473,-2.4636,-2.4501,-2.4344,-2.4115,-2.3996,-2.3988,-2.3917,-2.3453,-2.3145,-2.2819,-2.266,-2.2746,-2.2726,-2.2672,-2.2562,-2.217,-2.181,-2.1325,-2.0847,-2.0023,-1.9315,-1.8843,-1.8377,-1.7667,-1.72,-1.6662,-1.633,-1.5857,-1.5078,-1.4408,-1.431,-1.4041,-1.4275,-5.5656,-5.4729,-5.3012,-5.1718,-5.0907,-4.9839,-4.914,-4.8407,-4.7328,-4.7328,-4.7928,-4.7328,-4.6741,-4.6259,-4.5776,-4.5519,-4.5413,-4.517,-4.5049,-4.4914,-4.4914,-4.4914,-4.4914,-4.4914,-4.4914,-4.4914,-4.4914,-4.4914,-4.4914,-4.4914,-4.4914,-4.4914,-4.4914,-4.4914,-4.4914,-4.4671,-4.4428,-4.4428,-4.3577,-4.3333,-4.3577,-4.3211,-4.2491,-4.1879,-4.0897,-3.9528,-3.8303,-3.7423,-3.6303,-3.4951,-3.3937,-3.2544,-3.1177,-3.0418,-2.9531,-2.8643,-2.8007,-2.7743,-2.7225,-2.6971,-2.6843,-2.6843,-2.6971,-2.7107,-2.6733,-2.7124,-2.7124,-2.6613,-2.6486,-2.6247,-2.5727,-2.5207,-2.5207,-2.5079,-2.5079,-2.5079,-2.5079,-2.5016,-2.4801,-2.4722,-2.4509,-2.4399,-2.4273,-2.4138,-2.4067,-2.3838,-2.3641,-2.3625,-2.3523,-2.3229,-2.308,-2.2978,-2.2836,-2.2946,-2.3009,-2.3009,-2.3009,-2.2883,-2.2648,-2.228,-2.1928,-2.1332,-2.0965,-2.0604,-2.0134,-1.9406,-1.8726,-1.8174,-1.7823,-1.7325,-1.6897,-1.6356,-1.6062,-1.5665,-1.5885,-5.8222,-5.7137,-5.5442,-5.4531,-5.3931,-5.2323,-5.1262,-5.0535,-4.9736,-4.9958,-5.0314,-4.9243,-4.8287,-4.7808,-4.6982,-4.638,-4.6138,-4.5776,-4.5292,-4.517,-4.4914,-4.4914,-4.4914,-4.4914,-4.4914,-4.4914,-4.4914,-4.4914,-4.4914,-4.4914,-4.4914,-4.4914,-4.4914,-4.4914,-4.4914,-4.4914,-4.4792,-4.4792,-4.4307,-4.4307,-4.455,-4.4199,-4.3834,-4.3224,-4.2736,-4.1511,-4.0392,-3.9652,-3.8551,-3.7198,-3.6303,-3.494,-3.3205,-3.2061,-3.1051,-2.9912,-2.9531,-2.9141,-2.8624,-2.8497,-2.8497,-2.8243,-2.7998,-2.7743,-2.7743,-2.8252,-2.8252,-2.7489,-2.6988,-2.6613,-2.6239,-2.5847,-2.5455,-2.5583,-2.5583,-2.5583,-2.5583,-2.5175,-2.4888,-2.4516,-2.4115,-2.3965,-2.3846,-2.3775,-2.3744,-2.3594,-2.3365,-2.3262,-2.3175,-2.3128,-2.3002,-2.297,-2.3017,-2.3009,-2.3009,-2.3009,-2.3009,-2.2883,-2.2867,-2.2875,-2.2891,-2.2257,-2.175,-2.175,-2.1419,-2.0457,-1.9649,-1.9349,-1.893,-1.8424,-1.8015,-1.7641,-1.735,-1.6926,-1.7279,-6.0551,-6.0306,-5.9172,-5.765,-5.5905,-5.4664,-5.3865,-5.3263,-5.3614,-5.3631,-5.2794,-5.1262,-5.0551,-4.9958,-4.8646,-4.7928,-4.7343,-4.65,-4.6017,-4.5776,-4.5277,-4.5035,-4.5035,-4.4914,-4.4914,-4.4914,-4.4914,-4.4914,-4.4914,-4.4914,-4.4914,-4.4914,-4.4914,-4.4914,-4.4914,-4.4914,-4.4914,-4.4914,-4.4792,-4.4671,-4.4807,-4.4807,-4.4564,-4.3942,-4.359,-4.3224,-4.2124,-4.1388,-4.0897,-3.9528,-3.8539,-3.7683,-3.5815,-3.4314,-3.2943,-3.2061,-3.142,-3.0905,-3.0526,-3.0399,-3.0526,-3.0409,-3.0175,-2.9794,-2.9658,-2.9912,-2.9658,-2.9151,-2.7998,-2.7497,-2.7064,-2.6529,-2.6225,-2.6073,-2.6116,-2.6176,-2.6008,-2.5766,-2.5019,-2.4032,-2.3673,-2.3609,-2.3499,-2.3436,-2.3412,-2.3144,-2.2986,-2.2994,-2.2954,-2.2954,-2.3032,-2.3032,-2.3009,-2.3009,-2.3009,-2.3009,-2.3009,-2.286,-2.2844,-2.2828,-2.2717,-2.2601,-2.2516,-2.2104,-2.1574,-2.0865,-2.0412,-2.0047,-1.9623,-1.9236,-1.8864,-1.8752,-1.8588,-1.8213,-1.8147,-6.2238,-6.2014,-6.1546,-6.0419,-5.8907,-5.7324,-5.7227,-5.7668,-5.6997,-5.6287,-5.5576,-5.4181,-5.3129,-5.2307,-5.0875,-4.9688,-4.9005,-4.7808,-4.6862,-4.6621,-4.5761,-4.5655,-4.5292,-4.5156,-4.5035,-4.4914,-4.4914,-4.5035,-4.4914,-4.4914,-4.4914,-4.4914,-4.4914,-4.4914,-4.4914,-4.4914,-4.4914,-4.4914,-4.4914,-4.4914,-4.4914,-4.4914,-4.4792,-4.455,-4.4442,-4.3956,-4.3211,-4.3102,-4.2369,-4.113,-4.0884,-3.9899,-3.8043,-3.7174,-3.6167,-3.4063,-3.355,-3.3173,-3.2544,-3.2419,-3.2303,-3.2061,-3.1682,-3.1809,-3.2061,-3.1819,-3.1187,-3.0652,-2.9513,-2.847,-2.7892,-2.7433,-2.7102,-2.6772,-2.6743,-2.6845,-2.6484,-2.6274,-2.5207,-2.3829,-2.3309,-2.3254,-2.3191,-2.312,-2.3017,-2.2931,-2.3009,-2.3009,-2.3009,-2.3009,-2.3009,-2.3001,-2.3001,-2.2828,-2.3009,-2.3009,-2.2828,-2.2765,-2.2694,-2.2552,-2.2512,-2.2318,-2.22,-2.1831,-2.1594,-2.1185,-2.0651,-2.0473,-2.0169,-1.9536,-1.9155,-1.923,-1.9189,-1.8888,-1.8321,-6.3393,-6.3039,-6.3039,-6.237,-6.1228,-6.0212,-6.0325,-6.1115,-5.9645,-5.8735,-5.8108,-5.6979,-5.5807,-5.4763,-5.3446,-5.2274,-5.0993,-4.972,-4.8646,-4.7583,-4.6982,-4.65,-4.6138,-4.5776,-4.5519,-4.5519,-4.5519,-4.5519,-4.5277,-4.517,-4.517,-4.4914,-4.4914,-4.4914,-4.4914,-4.4914,-4.4914,-4.4914,-4.4914,-4.4914,-4.4914,-4.4914,-4.4914,-4.4792,-4.4792,-4.455,-4.4185,-4.4199,-4.359,-4.2736,-4.2614,-4.1743,-4.0145,-3.9775,-3.9145,-3.6801,-3.5928,-3.5429,-3.4428,-3.4314,-3.4314,-3.4314,-3.4439,-3.5065,-3.5065,-3.4439,-3.2943,-3.2211,-3.1145,-3.0149,-2.9543,-2.8712,-2.8032,-2.7854,-2.7658,-2.7388,-2.6656,-2.6233,-2.5485,-2.4278,-2.353,-2.3364,-2.3128,-2.2954,-2.2978,-2.304,-2.3009,-2.3009,-2.3009,-2.3009,-2.3001,-2.2867,-2.282,-2.2631,-2.2678,-2.2615,-2.2615,-2.2591,-2.2362,-2.2189,-2.2157,-2.207,-2.1897,-2.1682,-2.1619,-2.123,-2.0939,-2.0748,-2.051,-1.9978,-1.9638,-1.9721,-1.9723,-1.9103,-1.8553,-6.3504,-6.3504,-6.3504,-6.3171,-6.2816,-6.2928,-6.2948,-6.2593,-6.1228,-6.0664,-6.0551,-5.9399,-5.8374,-5.7687,-5.658,-5.5326,-5.3965,-5.2173,-5.0993,-4.9704,-4.8542,-4.7688,-4.7208,-4.6982,-4.6726,-4.6741,-4.6621,-4.638,-4.5882,-4.5761,-4.5398,-4.5156,-4.4914,-4.4914,-4.4914,-4.4914,-4.4914,-4.4914,-4.4914,-4.4914,-4.4914,-4.4914,-4.4914,-4.4914,-4.4914,-4.4792,-4.4792,-4.4685,-4.4321,-4.4077,-4.382,-4.2967,-4.2369,-4.1892,-4.1007,-3.9886,-3.8539,-3.7931,-3.7061,-3.6937,-3.6937,-3.7423,-3.7919,-3.8515,-3.8095,-3.6401,-3.5182,-3.4079,-3.2669,-3.1833,-3.0847,-2.9936,-2.9055,-2.8755,-2.8484,-2.7905,-2.7103,-2.6531,-2.5723,-2.4829,-2.4081,-2.3563,-2.3345,-2.3009,-2.304,-2.3009,-2.3235,-2.3235,-2.3227,-2.3227,-2.2967,-2.2951,-2.2583,-2.2418,-2.2275,-2.2173,-2.2165,-2.222,-2.1999,-2.1841,-2.1818,-2.1754,-2.1581,-2.1447,-2.1407,-2.132,-2.0976,-2.0805,-2.0656,-2.0648,-2.0342,-2.0357,-2.0463,-1.9708,-1.8702,-6.3504,-6.3504,-6.3504,-6.3504,-6.3393,-6.3504,-6.3504,-6.3171,-6.2481,-6.2126,-6.1902,-6.1228,-6.0438,-5.974,-5.8888,-5.7861,-5.6172,-5.463,-5.3463,-5.2072,-5.0551,-4.9839,-4.9124,-4.8662,-4.8303,-4.7598,-4.7358,-4.7238,-4.6741,-4.6124,-4.5882,-4.5519,-4.517,-4.5035,-4.5035,-4.5035,-4.4928,-4.4914,-4.4914,-4.4914,-4.4914,-4.4914,-4.4914,-4.4914,-4.4914,-4.4914,-4.4914,-4.4914,-4.4807,-4.4685,-4.4442,-4.4063,-4.359,-4.3224,-4.2845,-4.2111,-4.113,-4.0404,-3.9788,-3.9664,-3.9997,-4.0463,-4.0761,-4.0838,-3.9918,-3.8259,-3.7113,-3.5915,-3.4087,-3.3151,-3.2339,-3.0409,-2.9699,-2.9362,-2.9026,-2.8457,-2.7876,-2.7429,-2.662,-2.5422,-2.4608,-2.414,-2.3797,-2.3454,-2.3353,-2.347,-2.3571,-2.3571,-2.3571,-2.3368,-2.3181,-2.2739,-2.2268,-2.2207,-2.2153,-2.1994,-2.197,-2.1802,-2.1676,-2.162,-2.158,-2.1729,-2.135,-2.1099,-2.12,-2.1136,-2.0946,-2.089,-2.0807,-2.0807,-2.0851,-2.0949,-2.0997,-2.0194,-1.9139,-6.3504,-6.3504,-6.3504,-6.3504,-6.3504,-6.3504,-6.3504,-6.3504,-6.3262,-6.3039,-6.2928,-6.2593,-6.2034,-6.1565,-6.0852,-5.9929,-5.8451,-5.7306,-5.6039,-5.4647,-5.3346,-5.2542,-5.1718,-5.1009,-5.0314,-4.9736,-4.9155,-4.8916,-4.8063,-4.7463,-4.6982,-4.6259,-4.5897,-4.5534,-4.5761,-4.5292,-4.5292,-4.5156,-4.5035,-4.4914,-4.4914,-4.4914,-4.4914,-4.4914,-4.4914,-4.4914,-4.4914,-4.4914,-4.4914,-4.4792,-4.4792,-4.4671,-4.4321,-4.4199,-4.3942,-4.3577,-4.2967,-4.2369,-4.2124,-4.222,-4.2655,-4.2708,-4.2572,-4.1846,-4.1415,-3.9744,-3.8836,-3.7883,-3.6013,-3.4911,-3.412,-3.2313,-3.0946,-3.0597,-2.9824,-2.9242,-2.9046,-2.8476,-2.7548,-2.6366,-2.5541,-2.5192,-2.4841,-2.4625,-2.4391,-2.4391,-2.4429,-2.4288,-2.3997,-2.3665,-2.3309,-2.2741,-2.237,-2.2193,-2.2118,-2.2244,-2.217,-2.2195,-2.2004,-2.183,-2.1749,-2.1866,-2.1561,-2.1371,-2.1176,-2.0989,-2.089,-2.089,-2.0882,-2.1244,-2.1422,-2.1487,-2.1324,-2.0647,-1.9596,-6.3504,-6.3504,-6.3504,-6.3504,-6.3504,-6.3504,-6.3504,-6.3504,-6.3504,-6.3504,-6.3393,-6.3393,-6.3151,-6.2796,-6.2462,-6.1658,-6.0626,-5.9929,-5.8793,-5.7306,-5.6119,-5.5425,-5.4612,-5.3814,-5.3129,-5.3146,-5.2323,-5.1278,-5.0686,-4.9363,-4.8558,-4.7823,-4.7448,-4.7193,-4.7703,-4.6621,-4.5897,-4.5761,-4.5277,-4.5156,-4.5035,-4.4928,-4.4914,-4.4914,-4.4914,-4.4914,-4.4914,-4.4914,-4.4914,-4.4914,-4.4914,-4.4792,-4.4685,-4.4807,-4.4685,-4.4671,-4.4077,-4.3834,-4.3806,-4.44,-4.4169,-4.3598,-4.3143,-4.2495,-4.1921,-4.104,-3.9893,-3.933,-3.7753,-3.6624,-3.5721,-3.4547,-3.3233,-3.2224,-3.1209,-3.0536,-3.0547,-3.0316,-2.893,-2.7645,-2.7064,-2.6725,-2.625,-2.59,-2.555,-2.549,-2.5383,-2.4898,-2.446,-2.4018,-2.364,-2.3145,-2.2858,-2.2698,-2.2656,-2.2619,-2.2713,-2.2645,-2.2547,-2.2615,-2.2572,-2.2423,-2.2095,-2.1751,-2.1628,-2.1636,-2.1317,-2.0989,-2.1734,-2.2347,-2.2344,-2.2165,-2.1614,-2.1036,-2.0341,-6.3504,-6.3504,-6.3504,-6.3504,-6.3504,-6.3504,-6.3504,-6.3504,-6.3504,-6.3504,-6.3504,-6.3504,-6.3393,-6.3393,-6.3282,-6.2816,-6.2126,-6.1434,-6.0645,-5.9721,-5.8793,-5.8126,-5.7421,-5.6731,-5.579,-5.5193,-5.4513,-5.3614,-5.2777,-5.1348,-5.0654,-5.0433,-5.018,-4.9942,-4.9704,-4.8168,-4.6982,-4.65,-4.6017,-4.5655,-4.5519,-4.5277,-4.5035,-4.5035,-4.5035,-4.5035,-4.5035,-4.5035,-4.5035,-4.5035,-4.4914,-4.4914,-4.4914,-4.4914,-4.4914,-4.4792,-4.4685,-4.4685,-4.4437,-4.4424,-4.3989,-4.3548,-4.3172,-4.2804,-4.2163,-4.1364,-4.0611,-4.021,-3.897,-3.7864,-3.7725,-3.6285,-3.4911,-3.4306,-3.3165,-3.2479,-3.249,-3.1802,-3.0421,-2.9382,-2.9036,-2.892,-2.8331,-2.7742,-2.7838,-2.8411,-2.7906,-2.7017,-2.598,-2.5073,-2.448,-2.4065,-2.3797,-2.3556,-2.3308,-2.378,-2.4132,-2.4068,-2.3963,-2.376,-2.3548,-2.3124,-2.2912,-2.2691,-2.2478,-2.2274,-2.2241,-2.2401,-2.2957,-2.3503,-2.3589,-2.3523,-2.3025,-2.2242,-2.1328,-6.3504,-6.3504,-6.3504,-6.3504,-6.3504,-6.3504,-6.3504,-6.3504,-6.3504,-6.3504,-6.3504,-6.3504,-6.3504,-6.3504,-6.3504,-6.3393,-6.3039,-6.2593,-6.2126,-6.1453,-6.089,-6.0438,-5.9872,-5.9039,-5.8337,-5.7975,-5.7191,-5.6154,-5.5112,-5.403,-5.3463,-5.3463,-5.368,-5.3229,-5.2189,-5.0907,-4.9363,-4.8407,-4.7223,-4.65,-4.6259,-4.5882,-4.5655,-4.564,-4.564,-4.564,-4.564,-4.5655,-4.5655,-4.5655,-4.5413,-4.5413,-4.5398,-4.5035,-4.4914,-4.4914,-4.4914,-4.465,-4.4395,-4.3975,-4.352,-4.3122,-4.2837,-4.2482,-4.1785,-4.1446,-4.0953,-4.0463,-3.9667,-3.9246,-3.8967,-3.7843,-3.6714,-3.6362,-3.5682,-3.5001,-3.4318,-3.3291,-3.2135,-3.1791,-3.1457,-3.108,-3.0494,-2.9887,-3.0515,-3.1113,-3.0119,-2.9039,-2.7599,-2.6472,-2.5944,-2.5528,-2.5364,-2.5027,-2.5422,-2.549,-2.5556,-2.5547,-2.5547,-2.5652,-2.5652,-2.4904,-2.4386,-2.3866,-2.3654,-2.323,-2.3186,-2.3721,-2.4126,-2.462,-2.4774,-2.4841,-2.4309,-2.3595,-2.2985,-6.3635,-6.3635,-6.3615,-6.3615,-6.3504,-6.3504,-6.3504,-6.3504,-6.3504,-6.3504,-6.3504,-6.3504,-6.3504,-6.3504,-6.3504,-6.3504,-6.3504,-6.3504,-6.3151,-6.2908,-6.2796,-6.2238,-6.179,-6.1228,-6.0758,-6.0532,-5.9608,-5.883,-5.803,-5.704,-5.7535,-5.803,-5.6943,-5.5807,-5.4781,-5.3714,-5.2408,-5.0551,-4.8901,-4.7943,-4.7583,-4.7102,-4.6982,-4.6982,-4.6982,-4.6982,-4.6982,-4.6982,-4.6982,-4.6756,-4.638,-4.6124,-4.5853,-4.539,-4.5048,-4.487,-4.4841,-4.4427,-4.3908,-4.3526,-4.3152,-4.2823,-4.2453,-4.1884,-4.1472,-4.1287,-4.1244,-4.1021,-4.0533,-4.0282,-3.9947,-3.9388,-3.8617,-3.7929,-3.7153,-3.6702,-3.6022,-3.5001,-3.442,-3.4192,-3.3803,-3.3483,-3.2879,-3.2571,-3.3073,-3.3152,-3.2218,-3.1279,-2.969,-2.8291,-2.7732,-2.7206,-2.6955,-2.7134,-2.7637,-2.7742,-2.7742,-2.7753,-2.7753,-2.7753,-2.7543,-2.7019,-2.6389,-2.5872,-2.523,-2.4395,-2.4041,-2.5026,-2.5769,-2.5984,-2.6073,-2.6287,-2.5855,-2.5368,-2.4852,-6.4301,-6.4301,-6.4301,-6.3968,-6.3635,-6.3504,-6.3504,-6.3504,-6.3504,-6.3504,-6.3504,-6.3504,-6.3504,-6.3504,-6.3504,-6.3504,-6.3504,-6.3504,-6.3393,-6.3393,-6.3393,-6.3171,-6.2836,-6.2593,-6.2238,-6.2238,-6.1321,-6.0777,-6.0532,-6.0532,-6.04,-6.0099,-5.9608,-5.8698,-5.7457,-5.6403,-5.5344,-5.3263,-5.1262,-5.0195,-4.9616,-4.8901,-4.8542,-4.8438,-4.8333,-4.8333,-4.8333,-4.8453,-4.8063,-4.7793,-4.7523,-4.7088,-4.6624,-4.597,-4.5422,-4.4979,-4.4544,-4.4095,-4.3516,-4.3083,-4.2496,-4.1955,-4.1458,-4.1472,-4.123,-4.123,-4.123,-4.123,-4.0993,-4.0993,-4.0756,-4.0282,-3.9836,-3.9276,-3.8505,-3.8293,-3.7956,-3.7015,-3.6438,-3.6124,-3.5886,-3.5599,-3.5276,-3.5113,-3.4989,-3.5011,-3.4374,-3.3448,-3.1931,-3.0313,-2.9655,-2.9029,-2.8996,-2.9424,-2.9621,-2.984,-3.0048,-3.0048,-3.006,-2.9852,-2.9111,-2.86,-2.8287,-2.7753,-2.7009,-2.6393,-2.5944,-2.6737,-2.7418,-2.7365,-2.7365,-2.7606,-2.7612,-2.7365,-2.6915,-6.5691,-6.5273,-6.4963,-6.4612,-6.428,-6.4059,-6.3968,-6.3968,-6.3726,-6.3504,-6.3504,-6.3504,-6.3504,-6.3504,-6.3504,-6.3504,-6.3504,-6.3504,-6.3504,-6.3504,-6.3504,-6.3504,-6.3504,-6.3282,-6.3171,-6.2928,-6.2705,-6.2258,-6.237,-6.2593,-6.2705,-6.1809,-6.1565,-6.0777,-5.9286,-5.8925,-5.7783,-5.6287,-5.4647,-5.3229,-5.2307,-5.1498,-5.0907,-5.1246,-5.1009,-5.1127,-5.1127,-5.1009,-5.0455,-4.9766,-4.8838,-4.8241,-4.7503,-4.6541,-4.5701,-4.516,-4.4637,-4.3984,-4.3418,-4.2881,-4.2385,-4.1776,-4.1481,-4.1341,-4.123,-4.123,-4.123,-4.123,-4.123,-4.123,-4.1105,-4.0868,-4.0742,-4.0394,-3.9738,-3.9514,-3.9164,-3.8577,-3.8194,-3.8074,-3.7791,-3.7401,-3.7071,-3.683,-3.6575,-3.6274,-3.5473,-3.476,-3.3649,-3.2533,-3.1901,-3.1154,-3.1269,-3.1488,-3.1695,-3.181,-3.1913,-3.1822,-3.1822,-3.1385,-3.0671,-3.0245,-3.0164,-2.9632,-2.8503,-2.8149,-2.8268,-2.8427,-2.8486,-2.8609,-2.8579,-2.8558,-2.8605,-2.8388,-2.8295,-6.7586,-6.6565,-6.5998,-6.5581,-6.5362,-6.4943,-6.4743,-6.4612,-6.4059,-6.3837,-6.3948,-6.3837,-6.3837,-6.3837,-6.3837,-6.3635,-6.3504,-6.3504,-6.3504,-6.3504,-6.3504,-6.3504,-6.3504,-6.3504,-6.3393,-6.3393,-6.3393,-6.3504,-6.3393,-6.3282,-6.3171,-6.2928,-6.2705,-6.2258,-6.1003,-6.0871,-6.0438,-5.9286,-5.8126,-5.6731,-5.5211,-5.4414,-5.428,-5.4496,-5.4263,-5.4112,-5.4138,-5.3756,-5.302,-5.2264,-5.0785,-4.9654,-4.8567,-4.7055,-4.6292,-4.5961,-4.5442,-4.4861,-4.4168,-4.3441,-4.2717,-4.2259,-4.1897,-4.1549,-4.1564,-4.1564,-4.1453,-4.1341,-4.123,-4.123,-4.123,-4.1216,-4.123,-4.0882,-4.0519,-4.038,-4.0101,-3.9367,-3.9024,-3.8846,-3.8353,-3.827,-3.8015,-3.8075,-3.8041,-3.738,-3.6692,-3.6096,-3.5328,-3.4919,-3.4292,-3.3651,-3.3548,-3.3548,-3.3651,-3.3664,-3.3664,-3.3484,-3.3138,-3.2689,-3.1949,-3.1418,-3.1526,-3.068,-2.9708,-2.9083,-2.9215,-2.945,-2.961,-2.9615,-2.9563,-2.9529,-2.9492,-2.9505,-2.9492,-6.973,-6.8362,-6.8125,-6.7283,-6.6128,-6.5951,-6.5712,-6.5142,-6.5032,-6.4943,-6.4922,-6.4922,-6.4922,-6.4832,-6.4501,-6.4059,-6.3504,-6.3635,-6.3504,-6.3504,-6.3504,-6.3504,-6.3504,-6.3504,-6.3504,-6.3504,-6.3504,-6.3504,-6.3504,-6.3504,-6.3504,-6.3393,-6.3393,-6.3039,-6.2462,-6.2238,-6.1565,-6.0777,-6.008,-5.9513,-5.8355,-5.7535,-5.727,-5.727,-5.7288,-5.6793,-5.6285,-5.5796,-5.482,-5.3727,-5.257,-5.1734,-5.0503,-4.9255,-4.8695,-4.8823,-4.804,-4.6684,-4.5595,-4.4516,-4.3762,-4.2975,-4.2658,-4.2548,-4.2437,-4.2119,-4.18,-4.1341,-4.123,-4.1341,-4.1341,-4.123,-4.1216,-4.1076,-4.1019,-4.0809,-4.0318,-3.994,-3.947,-3.9096,-3.8752,-3.8334,-3.7825,-3.776,-3.7817,-3.7186,-3.7186,-3.6665,-3.6461,-3.6258,-3.6055,-3.562,-3.5403,-3.5403,-3.5301,-3.5199,-3.472,-3.4363,-3.4005,-3.3317,-3.2798,-3.2407,-3.1594,-3.0864,-3.013,-2.9864,-3.0113,-3.0442,-3.0197,-3.0153,-3.0335,-3.0274,-3.0067,-2.9963,-2.9953,-7.1923,-7.0367,-7.0133,-6.9326,-6.8405,-6.7737,-6.7283,-6.6957,-6.6414,-6.6196,-6.6107,-6.5931,-6.5821,-6.5602,-6.5163,-6.4632,-6.4079,-6.3747,-6.3504,-6.3504,-6.3504,-6.3504,-6.3504,-6.3504,-6.3504,-6.3504,-6.3504,-6.3504,-6.3504,-6.3615,-6.3504,-6.3504,-6.3504,-6.3393,-6.3262,-6.3131,-6.2705,-6.237,-6.1922,-6.1453,-6.089,-5.9717,-5.8925,-5.8605,-5.8305,-5.8192,-5.7796,-5.7446,-5.6504,-5.5419,-5.4456,-5.3368,-5.2577,-5.1954,-5.1921,-5.1335,-5.0219,-4.8686,-4.7409,-4.6124,-4.5158,-4.3952,-4.3542,-4.3321,-4.299,-4.2769,-4.2452,-4.2105,-4.1883,-4.1675,-4.1646,-4.1327,-4.1059,-4.0875,-4.0747,-4.0324,-3.9913,-3.9757,-3.9345,-3.8797,-3.8478,-3.7973,-3.7562,-3.7562,-3.7461,-3.7461,-3.7461,-3.7259,-3.7056,-3.6969,-3.6969,-3.6651,-3.6535,-3.6535,-3.6535,-3.5969,-3.5366,-3.4998,-3.449,-3.3687,-3.3008,-3.2548,-3.187,-3.1239,-3.0872,-3.0486,-3.0726,-3.0819,-3.0572,-3.0418,-3.05,-3.0488,-3.0463,-3.0281,-3.0163,-7.418,-7.2572,-7.2155,-7.1654,-7.0812,-6.9836,-6.9304,-6.9068,-6.8125,-6.7672,-6.7694,-6.7217,-6.713,-6.6782,-6.6107,-6.5492,-6.4943,-6.4391,-6.3948,-6.3948,-6.3948,-6.3928,-6.3948,-6.3968,-6.3837,-6.3837,-6.3948,-6.3948,-6.3948,-6.3726,-6.3858,-6.3726,-6.3615,-6.3504,-6.3484,-6.3344,-6.3052,-6.2771,-6.2311,-6.2121,-6.1761,-6.0887,-6.0119,-5.9541,-5.9217,-5.9003,-5.9004,-5.8653,-5.7982,-5.7228,-5.6086,-5.4988,-5.444,-5.4813,-5.4615,-5.36,-5.2198,-5.0716,-4.9453,-4.7949,-4.6543,-4.5486,-4.5064,-4.4626,-4.4172,-4.3842,-4.3842,-4.3512,-4.3086,-4.2378,-4.2195,-4.1637,-4.1062,-4.0646,-4.0402,-4.0281,-3.9643,-3.9509,-3.9255,-3.8705,-3.8168,-3.7663,-3.7663,-3.7663,-3.7562,-3.7461,-3.7461,-3.736,-3.736,-3.736,-3.7447,-3.7447,-3.7534,-3.7534,-3.7405,-3.6409,-3.572,-3.5228,-3.4558,-3.3661,-3.3019,-3.2663,-3.2335,-3.1745,-3.13,-3.1275,-3.1248,-3.1117,-3.0959,-3.0801,-3.0684,-3.0684,-3.0447,-3.0283,-3.0173,-7.644,-7.4896,-7.4794,-7.3871,-7.2526,-7.1946,-7.1422,-7.0895,-7.0283,-7.0049,-6.9965,-6.9965,-6.9411,-6.8983,-6.7974,-6.7174,-6.6435,-6.5691,-6.5053,-6.4922,-6.4922,-6.4922,-6.4812,-6.4832,-6.4832,-6.5053,-6.5032,-6.497,-6.486,-6.4612,-6.4167,-6.4199,-6.3757,-6.3314,-6.3314,-6.2931,-6.2489,-6.2408,-6.1837,-6.1428,-6.1288,-6.102,-6.08,-6.0394,-6.0141,-5.9908,-5.9325,-5.8916,-5.8265,-5.754,-5.67,-5.6622,-5.673,-5.7038,-5.6608,-5.5454,-5.4189,-5.2724,-5.1247,-5.0095,-4.8934,-4.775,-4.7534,-4.7409,-4.7085,-4.645,-4.5999,-4.547,-4.469,-4.3475,-4.2219,-4.1928,-4.1603,-4.1039,-4.0848,-4.0629,-4.0053,-3.9784,-3.959,-3.9044,-3.8758,-3.8355,-3.8154,-3.7952,-3.7663,-3.7461,-3.7461,-3.7461,-3.7461,-3.7461,-3.7606,-3.7678,-3.7679,-3.7635,-3.7147,-3.6336,-3.5703,-3.5175,-3.4456,-3.3523,-3.2818,-3.263,-3.2511,-3.2067,-3.214,-3.2154,-3.2154,-3.1991,-3.1747,-3.1255,-3.1094,-3.0918,-3.056,-3.0278,-3.0317,-7.7965,-7.6766,-7.6766,-7.6138,-7.5171,-7.4511,-7.3998,-7.3482,-7.2988,-7.2595,-7.2282,-7.1923,-7.1504,-7.0873,-6.9814,-6.8769,-6.7931,-6.7108,-6.6477,-6.5931,-6.58,-6.5691,-6.5492,-6.6217,-6.6849,-6.7066,-6.6589,-6.5752,-6.5155,-6.4684,-6.4302,-6.3546,-6.2925,-6.2742,-6.2519,-6.1913,-6.1604,-6.1463,-6.1161,-6.1,-6.0879,-6.0577,-6.0276,-6.0256,-5.9793,-5.9411,-5.9008,-5.8619,-5.8379,-5.7996,-5.7692,-5.7672,-5.7896,-5.7876,-5.755,-5.6711,-5.5784,-5.4625,-5.3162,-5.211,-5.107,-4.965,-4.9543,-4.9436,-4.9042,-4.872,-4.8165,-4.7668,-4.6603,-4.5204,-4.3375,-4.2949,-4.219,-4.1615,-4.1344,-4.0938,-4.0161,-4.0188,-4.0175,-4.016,-3.966,-3.9159,-3.8843,-3.8642,-3.8441,-3.8456,-3.8456,-3.8311,-3.8311,-3.8124,-3.818,-3.7819,-3.7789,-3.7528,-3.6947,-3.6429,-3.5986,-3.5361,-3.4608,-3.3666,-3.3338,-3.3107,-3.2956,-3.3236,-3.3482,-3.3496,-3.3493,-3.2982,-3.2742,-3.2287,-3.1747,-3.121,-3.0932,-3.0794,-3.0753,-7.9078,-7.8288,-7.8312,-7.8015,-7.7441,-7.6766,-7.634,-7.5912,-7.5375,-7.4865,-7.4558,-7.41,-7.3482,-7.2757,-7.1923,-7.079,-6.9624,-6.9027,-6.8211,-6.7325,-6.7217,-6.6915,-6.705,-6.8057,-6.8821,-6.8241,-6.7563,-6.6452,-6.5431,-6.5114,-6.4248,-6.3093,-6.2795,-6.2146,-6.1935,-6.143,-6.091,-6.087,-6.0542,-6.0276,-6.0095,-5.9632,-5.937,-5.931,-5.8767,-5.8364,-5.8324,-5.8304,-5.8304,-5.8304,-5.8304,-5.8202,-5.8202,-5.8304,-5.808,-5.755,-5.7038,-5.6093,-5.4832,-5.4018,-5.3181,-5.1987,-5.1776,-5.1476,-5.1087,-5.0823,-5.0365,-4.982,-4.8758,-4.7171,-4.5601,-4.4514,-4.3636,-4.2969,-4.256,-4.2238,-4.1596,-4.1454,-4.1637,-4.1736,-4.1156,-4.026,-3.9845,-3.973,-3.9445,-3.9445,-3.9415,-3.9355,-3.9165,-3.9046,-3.8702,-3.8111,-3.8037,-3.794,-3.7416,-3.6963,-3.6482,-3.5892,-3.5014,-3.4103,-3.4363,-3.4367,-3.467,-3.4869,-3.4993,-3.5085,-3.5158,-3.4711,-3.3869,-3.3283,-3.276,-3.2135,-3.1615,-3.1372,-3.1295,-7.9912,-7.9347,-7.9347,-7.9004,-7.8511,-7.799,-7.7667,-7.7592,-7.7116,-7.6839,-7.6714,-7.6739,-7.596,-7.51,-7.4259,-7.3275,-7.1736,-7.1234,-7.0601,-7.0177,-6.9898,-6.9915,-6.9742,-6.9962,-6.9417,-6.873,-6.7804,-6.7147,-6.6524,-6.5863,-6.5032,-6.403,-6.3366,-6.2969,-6.2303,-6.1224,-6.0626,-6.0379,-5.9602,-5.9031,-5.895,-5.8747,-5.8626,-5.8606,-5.8344,-5.8324,-5.8304,-5.8304,-5.8304,-5.8304,-5.8304,-5.8304,-5.8304,-5.8304,-5.8202,-5.808,-5.7652,-5.7121,-5.6299,-5.568,-5.5163,-5.4521,-5.4331,-5.4473,-5.3917,-5.2963,-5.2284,-5.1976,-5.0208,-4.8949,-4.8007,-4.6799,-4.5683,-4.5075,-4.4854,-4.5159,-4.5445,-4.4472,-4.3592,-4.3984,-4.2806,-4.2116,-4.1637,-4.1141,-4.0429,-4.0641,-4.0511,-4.0263,-3.9938,-3.9845,-3.9474,-3.8883,-3.8541,-3.8372,-3.8002,-3.7648,-3.7247,-3.6848,-3.5985,-3.5684,-3.5954,-3.6313,-3.6582,-3.6742,-3.6821,-3.681,-3.6757,-3.6061,-3.5232,-3.4573,-3.3806,-3.314,-3.2427,-3.2259,-3.2095,-8.0082,-7.9887,-7.9984,-7.9814,-7.9619,-7.9422,-7.9103,-7.8881,-7.8609,-7.8412,-7.8139,-7.8064,-7.7616,-7.6867,-7.6215,-7.5279,-7.41,-7.3505,-7.2965,-7.2445,-7.2063,-7.2073,-7.2164,-7.146,-7.0975,-7.0433,-6.9661,-6.8719,-6.7767,-6.7101,-6.6123,-6.4915,-6.3738,-6.3055,-6.2773,-6.1418,-6.0563,-6.042,-5.9422,-5.8792,-5.869,-5.8507,-5.8406,-5.8304,-5.8304,-5.8304,-5.8304,-5.8304,-5.8304,-5.8304,-5.8304,-5.8304,-5.8304,-5.8304,-5.8304,-5.8304,-5.808,-5.7774,-5.7243,-5.6936,-5.6505,-5.5932,-5.5404,-5.525,-5.5038,-5.4199,-5.33,-5.3024,-5.1591,-5.0625,-5.0028,-4.8897,-4.7813,-4.7411,-4.8675,-4.9452,-4.8997,-4.6991,-4.6026,-4.5815,-4.5039,-4.3886,-4.3592,-4.2904,-4.2316,-4.1847,-4.1734,-4.1316,-4.0801,-4.0673,-4.0415,-3.9994,-3.9639,-3.9457,-3.9101,-3.8891,-3.8552,-3.8398,-3.7833,-3.7728,-3.8083,-3.8632,-3.8563,-3.848,-3.8534,-3.8545,-3.8151,-3.7579,-3.6699,-3.5746,-3.49,-3.4191,-3.3564,-3.321,-3.3058,-8.0302,-8.0302,-8.0302,-8.0302,-8.0302,-8.0302,-8.001,-7.9691,-7.9691,-7.9422,-7.9226,-7.9128,-7.8807,-7.8387,-7.7841,-7.6848,-7.5728,-7.5201,-7.4671,-7.388,-7.3583,-7.3811,-7.3825,-7.293,-7.2207,-7.1679,-7.0743,-7.0022,-6.886,-6.8332,-6.736,-6.5909,-6.4812,-6.3945,-6.339,-6.2319,-6.1461,-6.1184,-6.0184,-5.9479,-5.95,-5.9015,-5.8711,-5.8507,-5.8507,-5.8507,-5.8304,-5.8304,-5.8304,-5.8304,-5.8304,-5.8304,-5.8304,-5.8304,-5.8304,-5.8304,-5.8284,-5.802,-5.7475,-5.7274,-5.7053,-5.6349,-5.5719,-5.5443,-5.5404,-5.4616,-5.389,-5.3383,-5.247,-5.1775,-5.1296,-5.0438,-4.9755,-4.9547,-5.1072,-5.2138,-5.1017,-4.9187,-4.7854,-4.8217,-4.7243,-4.614,-4.544,-4.4742,-4.4135,-4.3384,-4.3052,-4.2816,-4.219,-4.1903,-4.1592,-4.1193,-4.0799,-4.0534,-4.0368,-4.0233,-4.006,-3.9972,-3.9905,-3.9784,-4.0222,-4.0226,-3.9988,-3.9795,-3.9555,-3.9443,-3.9122,-3.8588,-3.7997,-3.7126,-3.6104,-3.5,-3.4473,-3.3919,-3.3708,-8.0302,-8.0302,-8.0302,-8.0302,-8.0302,-8.0302,-8.0205,-8.0205,-8.0205,-8.0107,-8.0082,-7.9883,-7.9688,-7.942,-7.8948,-7.7764,-7.6412,-7.5971,-7.5213,-7.4285,-7.4426,-7.483,-7.4739,-7.3595,-7.2527,-7.1697,-7.1088,-7.048,-7.0015,-6.9432,-6.8515,-6.7715,-6.6935,-6.6173,-6.531,-6.4149,-6.339,-6.2824,-6.1362,-6.0585,-6.0605,-6.0024,-5.9601,-5.9096,-5.9075,-5.8893,-5.8507,-5.8507,-5.8507,-5.8304,-5.8426,-5.8487,-5.8365,-5.8284,-5.8183,-5.8164,-5.8244,-5.766,-5.7118,-5.6937,-5.6557,-5.5837,-5.5577,-5.5591,-5.5297,-5.4616,-5.3961,-5.3826,-5.2905,-5.2262,-5.2169,-5.1637,-5.1337,-5.1505,-5.2324,-5.2715,-5.2177,-5.0735,-4.9887,-4.9981,-4.9585,-4.8492,-4.6967,-4.6427,-4.5583,-4.4714,-4.4282,-4.3819,-4.3273,-4.2813,-4.2691,-4.2443,-4.2038,-4.181,-4.1757,-4.1634,-4.1547,-4.1582,-4.1701,-4.1752,-4.2079,-4.1355,-4.0684,-4.0436,-4.0225,-4.0162,-3.9876,-3.9087,-3.8456,-3.7644,-3.6746,-3.5834,-3.5052,-3.4481,-3.41,-8.0302,-8.0302,-8.0302,-8.0302,-8.0302,-8.0302,-8.0302,-8.0302,-8.0302,-8.0302,-8.0124,-7.954,-7.9017,-7.8769,-7.8187,-7.7301,-7.6284,-7.6209,-7.5285,-7.3996,-7.4162,-7.437,-7.4178,-7.3709,-7.3051,-7.2363,-7.1886,-7.1497,-7.129,-7.0808,-7.0325,-6.9888,-6.9214,-6.8467,-6.7715,-6.6459,-6.5428,-6.4775,-6.3118,-6.2134,-6.1957,-6.1283,-6.0585,-6.0184,-6.0104,-5.9702,-5.8994,-5.9399,-5.9601,-5.9339,-5.9339,-5.9032,-5.842,-5.8119,-5.7696,-5.7191,-5.6791,-5.6493,-5.6192,-5.6131,-5.595,-5.5608,-5.5085,-5.4783,-5.4622,-5.3979,-5.3476,-5.3569,-5.3101,-5.2735,-5.2735,-5.2529,-5.2529,-5.2529,-5.288,-5.29,-5.2735,-5.1691,-5.101,-5.0499,-4.9464,-4.8383,-4.7716,-4.724,-4.647,-4.5481,-4.5101,-4.4807,-4.3816,-4.3579,-4.3365,-4.3184,-4.3002,-4.302,-4.302,-4.302,-4.302,-4.3096,-4.3151,-4.3314,-4.3084,-4.2049,-4.127,-4.1002,-4.0481,-4.0334,-3.9744,-3.9161,-3.8637,-3.7841,-3.6959,-3.614,-3.5383,-3.4827,-3.4347,-8.0302,-8.0302,-8.0302,-8.0302,-8.0277,-7.9921,-7.9743,-7.9743,-7.9387,-7.9286,-7.9133,-7.8422,-7.8092,-7.7889,-7.733,-7.661,-7.5926,-7.5547,-7.478,-7.3836,-7.3722,-7.3748,-7.3722,-7.3697,-7.3493,-7.3084,-7.2724,-7.2609,-7.2544,-7.2042,-7.1836,-7.1654,-7.1016,-7.0349,-6.9771,-6.8631,-6.7692,-6.6909,-6.5332,-6.4343,-6.4149,-6.3195,-6.2353,-6.166,-6.1461,-6.1262,-6.0842,-6.1163,-6.0936,-6.0245,-6.0067,-5.9472,-5.8409,-5.7909,-5.7328,-5.6429,-5.6036,-5.5762,-5.5286,-5.5206,-5.5085,-5.4723,-5.422,-5.3918,-5.3797,-5.3408,-5.3146,-5.3105,-5.3105,-5.3105,-5.3105,-5.3105,-5.3157,-5.3434,-5.3362,-5.3342,-5.3322,-5.2342,-5.1457,-5.0644,-4.9613,-4.8609,-4.813,-4.7876,-4.7088,-4.6014,-4.5738,-4.5451,-4.4562,-4.4315,-4.4118,-4.3947,-4.3965,-4.3965,-4.3965,-4.3947,-4.398,-4.4084,-4.409,-4.4104,-4.3395,-4.2488,-4.1894,-4.1408,-4.0772,-4.0187,-3.9574,-3.9005,-3.8484,-3.7813,-3.7144,-3.6404,-3.5631,-3.5054,-3.4541,-8.0302,-8.0323,-8.0277,-8.015,-7.987,-7.9077,-7.8574,-7.8447,-7.7609,-7.738,-7.7431,-7.705,-7.6974,-7.6949,-7.672,-7.6237,-7.5247,-7.4434,-7.3849,-7.3671,-7.3671,-7.3671,-7.3671,-7.3671,-7.3582,-7.3582,-7.3582,-7.3582,-7.3467,-7.3019,-7.2814,-7.2814,-7.2248,-7.177,-7.1381,-7.0625,-6.9956,-6.9028,-6.7974,-6.7219,-6.684,-6.579,-6.473,-6.3857,-6.3488,-6.3542,-6.4276,-6.3401,-6.2281,-6.106,-6.0448,-5.9346,-5.8383,-5.7844,-5.7324,-5.6528,-5.6321,-5.5626,-5.4516,-5.4375,-5.4126,-5.3529,-5.3186,-5.3226,-5.3267,-5.3146,-5.3105,-5.3178,-5.3178,-5.3178,-5.3178,-5.3097,-5.3364,-5.4108,-5.3678,-5.3567,-5.3708,-5.2672,-5.1283,-5.035,-4.9941,-4.9633,-4.8813,-4.819,-4.7656,-4.6564,-4.6265,-4.6018,-4.5537,-4.5433,-4.5329,-4.5055,-4.4885,-4.4904,-4.4885,-4.4875,-4.4903,-4.4938,-4.467,-4.4323,-4.3443,-4.2453,-4.1775,-4.1466,-4.0784,-4.0007,-3.9368,-3.8848,-3.8384,-3.7992,-3.7286,-3.6639,-3.6158,-3.567,-3.5023,-8.0877,-8.0234,-8.0182,-7.9487,-7.8436,-7.8053,-7.7738,-7.7457,-7.7126,-7.7025,-7.6822,-7.6161,-7.5805,-7.5704,-7.5069,-7.4845,-7.5022,-7.4397,-7.404,-7.404,-7.3824,-7.3671,-7.3671,-7.3671,-7.3671,-7.3671,-7.3671,-7.3671,-7.3671,-7.3493,-7.3467,-7.3378,-7.3289,-7.2904,-7.2429,-7.1861,-7.129,-7.0625,-6.9678,-6.9145,-6.8841,-6.7904,-6.7148,-6.6555,-6.6935,-6.6705,-6.5542,-6.4906,-6.3815,-6.2492,-6.2127,-6.162,-6.0663,-5.8885,-5.7356,-5.6158,-5.5426,-5.4776,-5.4437,-5.4396,-5.4088,-5.3567,-5.3454,-5.3362,-5.3085,-5.3105,-5.327,-5.3434,-5.3434,-5.3618,-5.3792,-5.3432,-5.3017,-5.2905,-5.2604,-5.2427,-5.2495,-5.1698,-5.0425,-4.9075,-4.8667,-4.8401,-4.7932,-4.7912,-4.7584,-4.6945,-4.6782,-4.6614,-4.6193,-4.6109,-4.6025,-4.5837,-4.5817,-4.574,-4.5837,-4.5451,-4.5289,-4.4951,-4.4672,-4.4095,-4.3302,-4.2129,-4.1394,-4.1248,-4.0691,-3.9895,-3.9258,-3.876,-3.8433,-3.8226,-3.771,-3.728,-3.689,-3.6437,-3.6181,-8.1157,-7.9954,-7.9768,-7.8983,-7.7773,-7.7362,-7.705,-7.6867,-7.6391,-7.6329,-7.6176,-7.5562,-7.5113,-7.5178,-7.4639,-7.4659,-7.5186,-7.4747,-7.4545,-7.4482,-7.4066,-7.3913,-7.3913,-7.3761,-7.3671,-7.3671,-7.3671,-7.3671,-7.3671,-7.3671,-7.3671,-7.3671,-7.3671,-7.3467,-7.3199,-7.2814,-7.2429,-7.1951,-7.129,-7.0924,-7.0649,-6.9888,-6.9277,-6.8916,-6.8854,-6.8142,-6.6814,-6.6088,-6.5097,-6.3846,-6.3507,-6.3052,-6.2077,-6.0142,-5.8285,-5.6684,-5.5697,-5.5153,-5.495,-5.4788,-5.4535,-5.4282,-5.4078,-5.3802,-5.3618,-5.3526,-5.3618,-5.3894,-5.3986,-5.41,-5.4362,-5.4282,-5.3776,-5.331,-5.2925,-5.2498,-5.1844,-5.1268,-5.0063,-4.8251,-4.7931,-4.8097,-4.8241,-4.8097,-4.8014,-4.7785,-4.7785,-4.7598,-4.7181,-4.7014,-4.693,-4.6659,-4.6442,-4.6356,-4.6611,-4.6106,-4.5604,-4.5195,-4.4484,-4.4028,-4.3291,-4.2176,-4.1652,-4.1467,-4.0769,-4.0029,-3.9871,-3.9357,-3.8822,-3.8612,-3.8489,-3.8102,-3.7811,-3.7636,-3.7358,-8.1289,-7.9911,-7.9418,-7.8886,-7.8235,-7.712,-7.6654,-7.6512,-7.5643,-7.5176,-7.5192,-7.5176,-7.515,-7.5439,-7.577,-7.5805,-7.5718,-7.5422,-7.5212,-7.5124,-7.4633,-7.4254,-7.4254,-7.3913,-7.3761,-7.385,-7.385,-7.3761,-7.3761,-7.3671,-7.3671,-7.3671,-7.3671,-7.3671,-7.3582,-7.3582,-7.3378,-7.2904,-7.2814,-7.2609,-7.2108,-7.1506,-7.1042,-7.0654,-6.9181,-6.8163,-6.7816,-6.6979,-6.6057,-6.513,-6.465,-6.3764,-6.2456,-6.1481,-5.9985,-5.7806,-5.6895,-5.6315,-5.5781,-5.5401,-5.5103,-5.5076,-5.4546,-5.4399,-5.41,-5.4121,-5.4121,-5.4328,-5.4504,-5.4727,-5.5045,-5.5201,-5.5153,-5.4746,-5.4392,-5.3439,-5.2076,-5.1477,-4.9917,-4.8403,-4.8428,-4.8841,-4.8985,-4.8985,-4.8985,-4.8985,-4.8985,-4.8923,-4.8573,-4.8409,-4.8017,-4.738,-4.6816,-4.6552,-4.7261,-4.68,-4.6482,-4.5942,-4.4808,-4.4151,-4.3282,-4.2519,-4.2095,-4.1653,-4.0953,-4.0551,-4.036,-3.9998,-3.9488,-3.9339,-3.9275,-3.9254,-3.9211,-3.8979,-3.8789,-8.2239,-8.1657,-8.0732,-7.9404,-7.7909,-7.7191,-7.6712,-7.6425,-7.6188,-7.6057,-7.6057,-7.6057,-7.6747,-7.7915,-7.8084,-7.7972,-7.7607,-7.7208,-7.6635,-7.597,-7.5483,-7.5134,-7.4835,-7.4685,-7.471,-7.4596,-7.4331,-7.4129,-7.404,-7.3824,-7.3671,-7.3671,-7.3671,-7.3671,-7.3671,-7.3671,-7.3582,-7.3493,-7.3493,-7.3403,-7.2946,-7.147,-7.0436,-7.0331,-6.9623,-6.8754,-6.7894,-6.7334,-6.6559,-6.5473,-6.5257,-6.4859,-6.4172,-6.3308,-6.1935,-5.9829,-5.7677,-5.6167,-5.5654,-5.559,-5.5138,-5.4556,-5.4382,-5.4014,-5.347,-5.3274,-5.347,-5.3927,-5.5052,-5.5786,-5.5844,-5.5618,-5.5093,-5.4437,-5.3946,-5.3718,-5.3397,-5.1901,-5.0282,-4.8965,-4.88,-4.9067,-4.9375,-4.966,-4.9863,-4.9863,-4.9926,-4.9929,-4.9784,-4.9115,-4.8636,-4.8332,-4.7603,-4.7303,-4.7544,-4.6899,-4.6042,-4.5475,-4.4813,-4.4088,-4.3783,-4.2969,-4.2376,-4.2136,-4.1453,-4.1054,-4.1076,-4.0988,-4.0676,-4.0654,-4.0632,-4.0632,-4.0548,-4.057,-4.0383,-8.274,-8.213,-8.1131,-7.9746,-7.8391,-7.7972,-7.7718,-7.749,-7.749,-7.749,-7.7575,-7.831,-7.9119,-8.011,-7.9781,-7.9533,-7.9146,-7.8562,-7.7915,-7.7208,-7.6694,-7.6238,-7.5857,-7.5483,-7.5247,-7.5273,-7.4809,-7.4545,-7.4571,-7.4331,-7.418,-7.4268,-7.4268,-7.4205,-7.4217,-7.3719,-7.3401,-7.3225,-7.2766,-7.2598,-7.2568,-7.0786,-6.9757,-6.9732,-6.8957,-6.8124,-6.7435,-6.7244,-6.6551,-6.5497,-6.5478,-6.5034,-6.4206,-6.3427,-6.2294,-6.0629,-5.8762,-5.7451,-5.6789,-5.654,-5.6207,-5.5621,-5.5285,-5.4886,-5.4312,-5.4057,-5.4049,-5.4455,-5.5482,-5.6164,-5.6086,-5.5946,-5.5612,-5.4876,-5.4104,-5.4027,-5.4916,-5.2509,-5.0328,-4.9658,-4.9293,-4.9185,-4.9444,-4.9861,-5.0119,-5.0119,-5.0076,-5.0032,-5.0076,-4.9643,-4.9176,-4.8883,-4.8166,-4.764,-4.757,-4.659,-4.591,-4.5547,-4.4778,-4.4079,-4.392,-4.3219,-4.2609,-4.2609,-4.2258,-4.2063,-4.201,-4.1949,-4.1765,-4.1704,-4.1704,-4.1643,-4.1765,-4.1888,-4.2231,-8.2886,-8.1708,-8.1065,-8.0193,-7.9423,-7.934,-7.934,-7.9367,-7.9367,-7.9258,-7.9149,-8.0671,-8.1228,-8.1313,-8.059,-8.0238,-8.0076,-7.9423,-7.8681,-7.81,-7.7817,-7.7396,-7.6617,-7.5955,-7.5577,-7.5412,-7.5092,-7.4841,-7.4754,-7.4771,-7.4735,-7.4813,-7.4813,-7.4709,-7.457,-7.3664,-7.2941,-7.2571,-7.1423,-7.1006,-7.1178,-6.9917,-6.913,-6.8945,-6.757,-6.6741,-6.6588,-6.6584,-6.6101,-6.5263,-6.511,-6.4496,-6.3221,-6.2578,-6.1696,-6.0442,-5.9884,-5.9252,-5.821,-5.7748,-5.7284,-5.7341,-5.6641,-5.6238,-5.6178,-5.5773,-5.5426,-5.535,-5.5629,-5.5911,-5.5987,-5.6167,-5.612,-5.5503,-5.4558,-5.4346,-5.4977,-5.2493,-5.0101,-5.0234,-4.9591,-4.9319,-4.9539,-4.9864,-5.0076,-5.0308,-5.0353,-5.0353,-5.0308,-5.004,-4.9764,-4.9152,-4.83,-4.7713,-4.7519,-4.672,-4.6117,-4.593,-4.4969,-4.4309,-4.4053,-4.3473,-4.2763,-4.32,-4.3102,-4.3305,-4.3222,-4.2981,-4.28,-4.28,-4.2642,-4.246,-4.2679,-4.3041,-4.3737,-8.2971,-8.2635,-8.2505,-8.2108,-8.1656,-8.1277,-8.1059,-8.1087,-8.1059,-8.0341,-7.9309,-7.9523,-7.9676,-7.9676,-7.9551,-7.9244,-7.8984,-7.8724,-7.8051,-7.7076,-7.6917,-7.6465,-7.5767,-7.5605,-7.5252,-7.5034,-7.4488,-7.4102,-7.3823,-7.3463,-7.3243,-7.3269,-7.3243,-7.3102,-7.274,-7.2505,-7.2207,-7.1768,-7.0695,-6.9993,-6.9408,-6.912,-6.8308,-6.7189,-6.6485,-6.5685,-6.4815,-6.4428,-6.417,-6.3967,-6.3942,-6.384,-6.3432,-6.302,-6.2308,-6.1099,-6.0332,-5.9158,-5.7321,-5.6753,-5.6377,-5.6076,-5.6303,-5.6387,-5.6067,-5.5209,-5.4815,-5.506,-5.518,-5.5372,-5.5612,-5.5612,-5.5397,-5.4987,-5.4336,-5.352,-5.2064,-5.144,-5.0669,-4.9324,-4.9681,-5.0175,-5.054,-5.0889,-5.1168,-5.1343,-5.1554,-5.1554,-5.1439,-5.0936,-5.0088,-4.9107,-4.8156,-4.7658,-4.7602,-4.6764,-4.6189,-4.6069,-4.5011,-4.4511,-4.438,-4.4273,-4.4176,-4.433,-4.4472,-4.4531,-4.4507,-4.4271,-4.4117,-4.3998,-4.376,-4.3725,-4.3998,-4.4295,-4.4918,-8.1978,-8.1797,-8.1673,-8.1471,-8.124,-8.069,-8.0534,-8.0506,-8.0894,-8.061,-7.9778,-7.9749,-7.9749,-7.9749,-7.9525,-7.9329,-7.915,-7.8896,-7.8289,-7.7494,-7.7522,-7.7135,-7.6539,-7.6146,-7.583,-7.5592,-7.5007,-7.4525,-7.4336,-7.4066,-7.3932,-7.3958,-7.3958,-7.3877,-7.3606,-7.2965,-7.2348,-7.1862,-7.0165,-6.8896,-6.8317,-6.8088,-6.7415,-6.6277,-6.5818,-6.5251,-6.4429,-6.4174,-6.3867,-6.3304,-6.3304,-6.2998,-6.2362,-6.2086,-6.1379,-5.9823,-5.9304,-5.8262,-5.6333,-5.602,-5.583,-5.5614,-5.5812,-5.5496,-5.4647,-5.4366,-5.4348,-5.4536,-5.5051,-5.5368,-5.5554,-5.5463,-5.5323,-5.5111,-5.4106,-5.3239,-5.2252,-5.1427,-5.022,-4.919,-4.9574,-5.0172,-5.0386,-5.0743,-5.1098,-5.124,-5.1263,-5.124,-5.1263,-5.0519,-4.9754,-4.9079,-4.8361,-4.7847,-4.7761,-4.702,-4.6429,-4.6236,-4.5578,-4.52,-4.5118,-4.5243,-4.5335,-4.5509,-4.5707,-4.5765,-4.5847,-4.5442,-4.5234,-4.5118,-4.4825,-4.4707,-4.5059,-4.5234,-4.579,-8.0943,-8.0518,-8.0178,-8.003,-7.9956,-7.9479,-7.9301,-7.929,-7.9367,-7.9456,-7.963,-7.9805,-7.9965,-7.9892,-7.9583,-7.9436,-7.9436,-7.8962,-7.8532,-7.8203,-7.8203,-7.8006,-7.758,-7.6787,-7.6373,-7.6324,-7.5623,-7.5258,-7.5258,-7.5258,-7.5148,-7.4984,-7.5039,-7.4874,-7.4604,-7.3286,-7.2433,-7.2065,-6.9712,-6.8303,-6.7897,-6.7533,-6.6941,-6.5971,-6.5525,-6.5099,-6.4493,-6.4366,-6.3926,-6.2867,-6.2889,-6.2229,-6.101,-6.0733,-5.9835,-5.8251,-5.7705,-5.691,-5.5389,-5.5165,-5.5065,-5.4996,-5.4848,-5.4044,-5.2592,-5.305,-5.3478,-5.3678,-5.4478,-5.5159,-5.5159,-5.5115,-5.5115,-5.4803,-5.3628,-5.2858,-5.2974,-5.1046,-4.9507,-4.9194,-4.9395,-4.9527,-4.9483,-4.9777,-4.9979,-5.0113,-5.0046,-5.0113,-5.014,-4.9689,-4.9243,-4.9028,-4.8417,-4.8,-4.7848,-4.7378,-4.708,-4.6757,-4.6592,-4.6346,-4.6332,-4.6428,-4.6598,-4.6605,-4.6856,-4.6995,-4.702,-4.6535,-4.6192,-4.6077,-4.5674,-4.5418,-4.5962,-4.6307,-4.6763,-8.1219,-8.0914,-8.0841,-8.0694,-8.0371,-8.0297,-8.0194,-7.9904,0.0,0.0,0.0,-7.6838,-7.7233,-7.7204,-7.7233,-7.7162,-7.7162,-7.7091,-7.6848,-7.6462,-7.6462,-7.6247,-7.5857,-7.5712,-7.5421,-7.5157,-7.501,-7.4789,-7.4465,-7.4465,-7.3915,-7.2917,-7.2878,-7.2273,-7.1294,-7.0455,-7.0415,-7.1086,-7.037,-6.9698,-6.9145,-6.9002,-6.8009,-6.596,-6.5521,-6.4682,-6.3351,-6.2942,-6.2649,-6.2205,-6.2205,-6.1912,-6.1345,-6.0085,-5.9256,-5.8833,-5.6872,-5.512,-5.3898,-5.3053,-5.2521,-5.2547,-5.294,-5.2329,-5.0127,-5.0101,-5.0615,-5.16,-5.2669,-5.3184,-5.2905,-5.3461,-5.3363,-5.2197,-5.1509,-5.0684,-4.9653,-4.8955,-4.8948,-4.9031,-4.8789,-4.8362,-4.8154,-4.8459,-4.8656,-4.8808,-4.8915,-4.8744,-4.9278,-4.9429,-4.9242,-4.8674,-4.8259,-4.7805,-4.7728,-4.7798,-4.7969,-4.7831,-4.7582,-4.7501,-4.7694,-4.7831,-4.7917,-4.8083,-4.8194,-4.8138,-4.7998,-4.7582,-4.7276,-4.7077,-4.6737,-4.6624,-4.6995,-4.7724,-4.8496,-7.7598,-7.7313,-7.7134,-7.6995,0.0,-7.6617,-7.6518,-7.6344,-7.3814,-7.3086,-7.3697,-7.4337,-7.4657,-7.4628,-7.4657,-7.4657,-7.4657,-7.4657,-7.452,-7.4354,-7.4325,-7.4188,-7.405,-7.3871,-7.3663,-7.3454,-7.3216,-7.3033,-7.2864,-7.2864,-7.2552,-7.1886,-7.1886,-7.1643,-7.1018,-7.0632,-7.0148,-6.941,-6.9181,-6.8875,-6.8487,-6.8419,-6.7538,-6.5833,-6.5641,0.0,0.0,0.0,0.0,0.0,0.0,0.0,0.0,0.0,0.0,-5.6851,-5.498,-5.3184,-5.1519,-4.9828,-4.9078,-4.9675,-4.9488,-4.847,-4.6408,-4.724,-4.8273,-4.9415,-5.0439,-5.125,-5.1645,-5.2053,-5.2031,-5.1334,-5.0862,-5.0311,-4.9444,-4.9178,-4.9131,-4.9154,-4.8919,-4.8659,-4.8448,-4.8572,-4.8759,-4.8883,-4.8759,-4.8871,-4.9118,-4.9003,-4.8843,-4.8569,-4.837,-4.8304,-4.8359,-4.8661,-4.8851,-4.8661,-4.8606,-4.8606,-4.8606,-4.8742,-4.8933,-4.9042,-4.907,-4.9042,-4.8878,-4.8579,-4.8223,-4.8138,-4.7917,-4.7861,-4.833,-4.8851,-4.9368,-7.4151,-7.3762,-7.3295,-7.3157,-7.3143,-7.1952,-7.1479,-7.1384,-7.1384,-7.153,-7.1792,-7.2025,-7.2105,-7.2076,-7.201,-7.201,-7.2039,-7.2272,-7.2388,-7.2359,-7.2621,-7.2708,-7.2642,-7.2404,-7.2231,-7.2202,-7.2,-7.1836,-7.1836,-7.1836,-7.1606,-7.1146,-7.1079,-7.0936,-7.0706,0.0,0.0,0.0,-6.8021,-6.7972,-6.7642,-6.7642,-6.7092,-6.6073,-6.6073,0.0,-6.4788,-6.3653,-6.2852,-6.2342,-6.1314,0.0,0.0,0.0,0.0,0.0,0.0,0.0,0.0,0.0,0.0,0.0,-4.4302,-4.2917,-4.2128,-4.3765,-4.5551,-4.7175,-4.8396,-4.9399,-5.0342,-5.057,-5.0589,-5.0297,-4.9919,-4.9546,-4.9131,-4.8733,-4.8562,-4.8523,-4.8523,-4.8573,-4.8674,-4.8849,-4.8859,-4.8905,-4.8945,-4.8819,-4.8496,-4.8285,-4.8261,-4.8479,-4.8937,-4.926,-4.9315,-4.9611,-4.98,-4.9504,-4.9665,-4.9746,-4.9531,-4.9692,-4.9881,-4.9881,-4.98,-4.9746,-4.9692,-4.9395,-4.9152,-4.9124,-4.8906,-4.8961,-4.9665,-4.9881,-5.0014,-7.4503,-7.4127,-7.2935,-7.2759,-7.2945,-6.8588,-6.6769,-6.6769,-6.6739,-6.7416,-6.8532,-6.9367,-6.9831,-6.9831,-6.9607,-6.948,-6.9567,-7.0643,-7.1138,-7.1225,-7.2243,-7.2708,-7.2708,-7.2671,-7.2642,-7.2671,-7.2937,-7.3098,-7.3032,-7.3032,-7.193,-6.9739,-6.9451,-6.8772,-6.7673,-6.6996,-6.709,-6.8003,-6.8782,-6.8898,-6.8321,-6.8257,-6.7936,-6.7223,-6.7251,-6.6518,-6.5002,-6.4483,-6.3603,-6.2128,-6.1716,-6.0656,-5.8832,-5.7441,-5.5464,0.0,-4.9387,0.0,0.0,0.0,0.0,0.0,0.0,0.0,0.0,-3.905,-4.1116,-4.4666,-4.6746,-4.7845,-4.7899,-4.8585,-4.8577,-4.7358,-4.6985,-4.6406,-4.5523,-4.5181,-4.5276,-4.5927,-4.6139,-4.666,-4.7389,-4.7687,-4.7939,-4.819,-4.8078,-4.7572,-4.6575,-4.7311,-4.8051,-4.8103,-4.9282,-4.9874,-5.0167,-5.0567,-5.0752,-5.0807,-5.0807,-5.094,-5.0782,-5.0835,-5.0915,-5.0887,-5.0677,-5.0519,-5.0307,-5.0013,-4.9773,-4.9584,-4.9423,-4.9557,-5.0222,-5.0664,-5.1249,-7.0425,-7.0185,-6.9379,-6.8427,-6.7242,-6.4996,-6.4348,-6.4855,-6.559,-6.6209,-6.671,-6.6444,-6.5974,-6.524,-6.4976,-6.5326,-6.6027,-6.6429,-6.7008,-6.7706,-6.8259,-6.8491,-6.8491,-6.8679,-6.8741,-6.8712,-6.9023,-6.9208,-6.9208,-6.9208,-6.862,-6.7474,-6.7322,-6.6444,-6.4879,-6.5194,-6.5963,-6.7153,-6.8246,-6.8882,-6.8903,-6.8292,-6.7573,-6.6911,-6.6188,-6.5434,-6.4552,-6.3712,-6.2814,-6.1944,-6.0261,-5.8472,-5.6664,-5.4339,-5.1665,0.0,0.0,0.0,0.0,0.0,0.0,0.0,0.0,0.0,0.0,0.0,-3.6931,-4.0536,-4.2831,-4.4314,-4.4984,-4.5334,-4.5297,-4.469,-4.4485,-4.4124,-4.3496,-4.3977,-4.441,-4.4631,-4.5287,-4.5917,-4.6312,-4.6469,-4.6601,-4.6785,-4.7463,-4.7723,-4.7269,-4.7505,-4.7918,-4.7946,-4.8359,-4.8767,-4.8896,-4.9577,-5.0123,-5.0206,-5.0705,-5.1149,-5.1149,-5.1149,-5.1149,-5.1149,-5.1045,-5.094,-5.0782,-5.065,-5.0519,-5.0223,-4.9505,-4.8956,-4.9096,-4.9488,-4.9882,-6.647,-6.608,-6.4541,-6.2761,-6.0979,-6.133,-6.1772,-6.2509,-6.3807,-6.4162,-6.3781,-6.2779,-6.1601,-6.0284,-5.9987,-6.0608,-6.1839,-6.1938,-6.2846,-6.4421,-6.4713,-6.5034,-6.5326,-6.5533,-6.5651,-6.571,-6.5973,-6.6205,-6.6263,-6.6205,-6.585,-6.5285,-6.4479,-6.3382,-6.2042,-6.3537,-6.4901,-6.5915,-6.7143,-6.8101,-6.8742,-6.7617,-6.6757,-6.6241,-6.5221,-6.4465,-6.3965,-6.2611,-6.1631,-6.1084,-5.8377,-5.5866,-5.3833,-5.1097,0.0,0.0,0.0,0.0,0.0,0.0,0.0,0.0,0.0,-2.7628,-3.0987,0.0,-3.3079,0.0,-3.9121,-4.1003,-4.1738,-4.1922,0.0,0.0,-4.1484,-4.1298,-4.1008,-4.2081,-4.2874,-4.2939,-4.4036,-4.5076,-4.5616,-4.5796,-4.5574,-4.4776,-4.6028,-4.7086,-4.7189,-4.7399,-4.7653,-4.771,-4.7848,-4.7797,-4.7889,-4.8635,-4.9271,-4.9299,-5.0054,-5.0619,-5.0619,-5.0646,-5.0646,-5.0596,-5.0596,-5.0517,-5.0461,-5.0466,-5.0303,-4.9914,-4.9236,-4.8435,-4.8198,-4.8529,-4.8904,-6.477,-6.3236,-5.8561,-5.6543,-5.6422,-5.7631,-5.806,-5.8155,-5.9398,-5.9207,-5.7851,-5.7731,-5.6838,-5.5406,-5.4968,0.0,-5.6844,-5.797,-5.9936,-6.2465,-6.3561,-6.4709,-6.5797,-6.5827,-6.6061,-6.6352,-6.6696,-6.6895,-6.7093,-6.7093,-6.5952,-6.3574,-6.0589,-5.9027,-5.9044,-6.1461,-6.3286,-6.4339,-6.5355,-6.6299,-6.705,-6.6121,-6.5621,-6.5562,-6.5266,-6.4477,-6.3256,-6.1751,-6.0367,-5.91,-5.6414,-5.3589,-5.085,0.0,0.0,0.0,0.0,0.0,0.0,0.0,0.0,0.0,0.0,0.0,0.0,0.0,0.0,0.0,-3.6929,0.0,-3.802,-3.8718,0.0,0.0,0.0,-3.702,-3.6982,-3.7956,-3.9023,-4.0055,0.0,0.0,-4.5583,-4.6047,-4.5105,-4.2115,-4.293,-4.381,-4.4046,-4.5759,-4.7159,-4.7268,-4.8177,-4.8717,-4.8028,-4.8396,-4.8603,-4.8688,-4.9049,-4.9134,-4.9087,-4.9134,-4.9106,-4.9134,-4.8993,-4.8803,-4.8775,-4.8463,-4.8265,-4.7526,-4.8365,-4.9239,-4.8808,-4.907,-4.9344,-5.8743,-5.5514,-5.2615,-5.1239,-5.1223,-5.2368,-5.3309,-5.408,-5.4594,-5.4895,-5.509,-5.3418,-5.2351,-5.1709,-5.0826,0.0,0.0,0.0,-5.5198,-5.7829,-5.9114,-6.0471,-6.1653,-6.1873,-6.2145,-6.2357,-6.2724,-6.2955,-6.3152,-6.2371,-6.0013,-5.6328,0.0,0.0,-5.6931,-6.0442,-6.2804,-6.3956,-6.5783,-6.6821,-6.6996,-6.6901,-6.6194,-6.4966,-6.3887,-6.2633,-6.1178,-5.9784,-5.8045,-5.5773,-5.2234,-4.8745,0.0,0.0,0.0,0.0,0.0,0.0,0.0,0.0,0.0,0.0,0.0,-2.1017,-2.2735,0.0,0.0,0.0,-3.1433,-3.3368,-3.4595,-3.5673,0.0,0.0,0.0,0.0,0.0,0.0,0.0,-3.639,-3.906,-4.1213,-4.1973,-4.1959,-4.1919,-4.2219,-4.2666,-4.3064,-4.3249,0.0,-4.4381,-4.4462,-4.4735,-4.4805,-4.4609,-4.4693,-4.5023,-4.5788,-4.6493,-4.6983,-4.7012,-4.6983,-4.7012,-4.7012,-4.6895,-4.685,-4.685,-4.5265,-4.385,-4.3463,-4.4609,-4.5582,-4.5466,-4.5751,-4.6073,-5.2235,0.0,0.0,0.0,0.0,-4.7327,-4.8307,-4.9109,-4.9504,-4.9949,-5.0363,-4.8422,0.0,0.0,0.0,0.0,0.0,0.0,-5.0505,-5.3088,-5.4923,-5.6475,-5.771,-5.8423,-5.8845,-5.9006,-5.9305,-5.9327,-5.8928,-5.5988,-5.2763,-4.9573,0.0,0.0,0.0,0.0,-6.1354,-6.2936,-6.5442,-6.6736,-6.6701,-6.6891,-6.622,-6.4492,-6.2777,-6.1124,-5.9583,-5.7529,-5.5086,-5.2191,-4.7885,0.0,0.0,0.0,0.0,0.0,0.0,0.0,0.0,0.0,0.0,0.0,0.0,0.0,0.0,0.0,0.0,0.0,0.0,0.0,-3.1098,-3.2457,-3.2664,0.0,0.0,0.0,0.0,0.0,0.0,0.0,0.0,0.0,-3.7494,-3.8087,-3.928,0.0,0.0,-4.2415,-4.2599,-4.2778,-4.2903,-4.2986,-4.2731,0.0,-4.2323,-4.2352,-4.2635,-4.3522,-4.4357,-4.4824,-4.4433,-4.4415,-4.4258,-4.3781,-4.3752,-4.3307,-4.2118,-4.0344,-3.9375,-3.9611,-4.0757,-4.1751,-4.2088,-4.2357,-4.2601,0.0,0.0,0.0,0.0,0.0,0.0,0.0,0.0,-4.4141,-4.3914,0.0,-4.2425,0.0,0.0,0.0,0.0,0.0,-4.4072,0.0,0.0,-5.162,-5.3666,-5.4919,-5.624,-5.7097,-5.741,-5.7285,-5.6668,-5.5203,-4.8321,0.0,0.0,0.0,0.0,0.0,0.0,-5.846,-6.0813,-6.3641,-6.5344,-6.5956,-6.5751,-6.5135,-6.4212,-6.2176,-6.0368,-5.8682,-5.4902,-5.1533,-4.8642,-4.3562,0.0,0.0,0.0,0.0,0.0,0.0,0.0,0.0,0.0,0.0,0.0,0.0,0.0,0.0,0.0,0.0,0.0,0.0,0.0,0.0,-2.9058,0.0,0.0,0.0,0.0,0.0,0.0,0.0,0.0,0.0,0.0,-3.2346,-3.5478,-3.7834,-3.7572,0.0,0.0,0.0,0.0,-4.3614,-4.3982,-4.3723,-4.3364,-4.3113,-4.3075,-4.3031,-4.2941,0.0,0.0,-4.1556,-4.1318,-4.0866,-3.9513,-3.9271,-3.7868,-3.3642,-3.3778,-3.4876,-3.6218,-3.7506,-3.8792,-3.9919,-4.0008,-4.0132,0.0,0.0,0.0,0.0,0.0,0.0,0.0,0.0,0.0,-3.711,0.0,-3.6495,0.0,0.0,0.0,0.0,0.0,0.0,0.0,0.0,-4.5493,-4.7496,-4.8878,-4.9348,-4.9746,0.0,-4.9993,-4.7581,0.0,0.0,0.0,0.0,0.0,0.0,0.0,0.0,-5.7032,-6.1566,-6.4329,-6.6149,-6.7056,-6.677,-6.6206,-6.5552,-6.3615,-6.0397,-5.5815,-5.1777,-4.746,0.0,0.0,0.0,0.0,0.0,0.0,0.0,0.0,0.0,0.0,0.0,0.0,0.0,0.0,0.0,0.0,0.0,0.0,0.0,0.0,0.0,0.0,0.0,-2.6476,0.0,0.0,0.0,0.0,0.0,0.0,0.0,0.0,0.0,-2.9964,-3.2481,-3.5104,-3.6742,-3.8516,-4.0081,-4.1261,0.0,0.0,0.0,0.0,0.0,0.0,0.0,-4.1061,-4.0048,-4.0028,-3.9702,-3.8392,-3.7386,-3.6293,-3.4754,0.0,0.0,-2.953,-2.9884,-3.1233,-3.2636,-3.3976,-3.4987,-3.5372,-3.5438,-3.5438,0.0,0.0,0.0,0.0,0.0,0.0,0.0,0.0,0.0,-3.0845,-3.1632,0.0,0.0,0.0,0.0,0.0,0.0,0.0,0.0,0.0,0.0,0.0,-4.2573,-4.3049,0.0,0.0,0.0,0.0,0.0,0.0,0.0,0.0,0.0,0.0,0.0,0.0,-5.5268,-6.1366,-6.4155,-6.6384,-6.8004,-6.7699,-6.7246,-6.6786,-6.4933,-6.1266,-5.5641,0.0,0.0,0.0,0.0,0.0,0.0,0.0,0.0,0.0,0.0,0.0,0.0,0.0,0.0,0.0,0.0,0.0,0.0,0.0,0.0,0.0,0.0,0.0,0.0,0.0,-2.4487,0.0,0.0,0.0,0.0,0.0,0.0,0.0,0.0,0.0,0.0,0.0,-3.3195,-3.5387,-3.7731,-3.9575,-4.0544,-4.1139,-4.1453,0.0,0.0,0.0,0.0,0.0,0.0,0.0,0.0,0.0,0.0,0.0,0.0,0.0,0.0,-2.7721,-2.5541,-2.5804,-2.6867,-2.8289,0.0,0.0,0.0,0.0,0.0,0.0,0.0,0.0,0.0,0.0,0.0,0.0,0.0,0.0,0.0,-2.5246,0.0,0.0,-2.5278,0.0,0.0,0.0,0.0,0.0,0.0,0.0,0.0,0.0,0.0,0.0,0.0,0.0,0.0,0.0,0.0,0.0,0.0,0.0,0.0,0.0,0.0,-5.3229,-6.0158,-6.3135,-6.5886,-6.8548,-6.842,-6.8082,-6.7756,-6.5869,-6.2764,-5.821,0.0,0.0,0.0,0.0,0.0,0.0,0.0,0.0,0.0,0.0,0.0,0.0,0.0,0.0,0.0,0.0,0.0,0.0,0.0,0.0,0.0,0.0,0.0,0.0,0.0,0.0,-2.3391,-2.4581,-2.4871,0.0,0.0,0.0,0.0,0.0,0.0,0.0,0.0,0.0,0.0,-3.7161,-3.9726,-3.9716,-4.0982,-4.1962,-4.1996,-4.1783,-4.16,-4.1538,-4.0284,-3.9312,0.0,0.0,0.0,0.0,0.0,0.0,0.0,0.0,0.0,0.0,0.0,0.0,0.0,0.0,0.0,0.0,0.0,0.0,0.0,0.0,0.0,0.0,0.0,0.0,0.0,0.0,0.0,0.0,0.0,0.0,0.0,0.0,0.0,0.0,0.0,0.0,0.0,0.0,0.0,0.0,0.0,0.0,0.0,0.0,0.0,0.0,0.0,0.0,0.0,0.0,0.0,0.0,0.0,0.0,-5.2141,-5.9379,-6.3245,-6.6567,-6.9244,-6.9233,-6.8522,-6.7017,-6.4407,-6.0847,0.0,0.0,0.0,0.0,0.0,0.0,0.0,0.0,0.0,0.0,0.0,0.0,0.0,0.0,0.0,0.0,0.0,0.0,0.0,0.0,0.0,0.0,0.0,0.0,0.0,0.0,0.0,0.0,-2.3966,-2.4095,-2.378,0.0,0.0,0.0,0.0,0.0,0.0,0.0,0.0,0.0,0.0,-3.7326,-4.0229,-4.0929,-4.1435,-4.2264,-4.2339,-4.1931,-4.0825,-4.0373,-3.9059,-3.6144,0.0,0.0,0.0,0.0,0.0,0.0,0.0,0.0,0.0,0.0,0.0,0.0,0.0,0.0,0.0,0.0,0.0,0.0,0.0,0.0,0.0,0.0,0.0,0.0,0.0,0.0,0.0,0.0,0.0,0.0,0.0,0.0,0.0,0.0,0.0,0.0,0.0,0.0,0.0,0.0,0.0,0.0,0.0,0.0,0.0,0.0,0.0,0.0,0.0,0.0,0.0,0.0,0.0,-5.1257,-5.915,-6.3513,-6.7104,-6.9807,-6.9973,-6.9107,-6.7242,-6.4246,-6.0006,0.0,0.0,0.0,0.0,0.0,0.0,0.0,0.0,0.0,0.0,0.0,0.0,0.0,0.0,0.0,0.0,0.0,0.0,0.0,0.0,0.0,0.0,0.0,0.0,0.0,0.0,0.0,0.0,-2.279,-2.3287,-2.3709,0.0,0.0,0.0,0.0,0.0,0.0,0.0,0.0,0.0,0.0,-3.5983,-3.8439,-3.9686,0.0,0.0,-4.1215,-4.0874,-3.9864,-3.8845,-3.7294,-3.4746,-3.2539,0.0,0.0,0.0,0.0,0.0,0.0,0.0,0.0,0.0,0.0,0.0,0.0,0.0,0.0,0.0,0.0,0.0,0.0,0.0,0.0,0.0,0.0,0.0,0.0,0.0,0.0,0.0,0.0,0.0,0.0,0.0,0.0,0.0,0.0,0.0,0.0,0.0,0.0,0.0,0.0,0.0,0.0,0.0,0.0,0.0,0.0,0.0,0.0,0.0,0.0,0.0,0.0,0.0,-5.9166,-6.3899,-6.7658,-7.0511,-7.0645,-6.9826,-6.8011,-6.4918,-5.9734,0.0,0.0,0.0,0.0,0.0,0.0,0.0,0.0,0.0,0.0,0.0,0.0,0.0,0.0,0.0,0.0,0.0,0.0,0.0,0.0,0.0,0.0,0.0,0.0,0.0,0.0,0.0,0.0,0.0,0.0,0.0,0.0,0.0,0.0,0.0,0.0,0.0,0.0,0.0,0.0,0.0,-3.5191,-3.5237,-3.7524,-3.9187,0.0,-3.9141,-3.8994,-3.8723,-3.64,-3.4575,-3.4275,0.0,0.0,0.0,0.0,0.0,0.0,0.0,0.0,0.0,0.0,0.0,0.0,0.0,0.0,0.0,0.0,0.0,0.0,0.0,0.0,0.0,0.0,0.0,0.0,0.0,0.0,0.0,0.0,0.0,0.0,0.0,0.0,0.0,0.0,0.0,0.0,0.0,0.0,0.0,0.0,0.0,0.0,0.0,0.0,0.0,0.0,0.0,0.0,0.0,0.0,0.0,0.0,0.0,0.0,-5.8508,-6.4216,-6.8602,-7.1492,-7.1594,-7.0183,-6.723,-6.4259,0.0,0.0,0.0,0.0,0.0,0.0,0.0,0.0,0.0,0.0,0.0,0.0,0.0,0.0,0.0,0.0,0.0,0.0,0.0,0.0,0.0,0.0,0.0,0.0,0.0,0.0,0.0,-1.771,0.0,0.0,0.0,0.0,0.0,0.0,0.0,0.0,0.0,0.0,0.0,0.0,0.0,0.0,-3.2195,-3.5336,-3.6209,-3.7292,0.0,0.0,-3.8872,-3.6623,-3.5739,-3.3823,0.0,0.0,0.0,0.0,0.0,0.0,0.0,0.0,0.0,0.0,0.0,0.0,0.0,0.0,0.0,0.0,0.0,0.0,0.0,0.0,0.0,0.0,0.0,0.0,0.0,0.0,0.0,0.0,0.0,0.0,0.0,0.0,0.0,0.0,0.0,0.0,0.0,0.0,0.0,0.0,0.0,0.0,0.0,0.0,0.0,0.0,0.0,0.0,0.0,0.0,0.0,0.0,0.0,0.0,-4.9825,-5.8538,-6.4106,-6.8678,-7.229,-7.2427,-7.0835,-6.746,-6.439,-5.8778,0.0,0.0,0.0,0.0,0.0,0.0,0.0,0.0,0.0,0.0,0.0,0.0,0.0,0.0,0.0,0.0,0.0,0.0,0.0,0.0,0.0,0.0,0.0,0.0,0.0,0.0,0.0,0.0,0.0,0.0,0.0,0.0,0.0,0.0,0.0,0.0,0.0,0.0,0.0,0.0,0.0,0.0,-3.2826,-3.3667,0.0,0.0,0.0,-3.5714,-3.3963,0.0,0.0,0.0,0.0,0.0,0.0,0.0,0.0,0.0,0.0,0.0,0.0,0.0,0.0,0.0,0.0,0.0,0.0,0.0,0.0,0.0,0.0,0.0,0.0,0.0,0.0,0.0,0.0,0.0,0.0,0.0,0.0,0.0,0.0,0.0,0.0,0.0,0.0,0.0,0.0,0.0,0.0,0.0,0.0,0.0,0.0,0.0,0.0,0.0,0.0,0.0,0.0,0.0,0.0,0.0,0.0,0.0,-5.8596,-6.3706,-6.8323,-7.2628,-7.308,-7.1551,-6.8232,-6.5095,-5.8985,0.0,0.0,0.0,0.0,0.0,0.0,0.0,0.0,0.0,0.0,0.0,0.0,0.0,0.0,0.0,0.0,0.0,0.0,0.0,0.0,0.0,0.0,0.0,0.0,0.0,0.0,0.0,0.0,0.0,0.0,0.0,0.0,0.0,0.0,0.0,0.0,0.0,0.0,0.0,0.0,0.0,-2.7766,-2.9309,-3.0774,-3.1723,0.0,0.0,-3.1654,-3.1335,-3.0207,0.0,0.0,0.0,0.0,0.0,0.0,0.0,0.0,0.0,0.0,0.0,0.0,0.0,0.0,0.0,0.0,0.0,0.0,0.0,0.0,0.0,0.0,0.0,0.0,0.0,0.0,0.0,0.0,0.0,0.0,0.0,0.0,0.0,0.0,0.0,0.0,0.0,0.0,0.0,0.0,0.0,0.0,0.0,0.0,0.0,0.0,0.0,0.0,0.0,0.0,0.0,0.0,0.0,0.0,0.0,0.0,-5.6226,-6.3197,-6.8386,-7.1709,-7.2938,-7.1999,-6.8703,-6.5643,-5.9522,0.0,0.0,0.0,0.0,0.0,0.0,0.0,0.0,0.0,0.0,0.0,0.0,0.0,0.0,0.0,0.0,0.0,0.0,0.0,0.0,0.0,0.0,0.0,0.0,0.0,0.0,0.0,0.0,0.0,0.0,0.0,0.0,0.0,0.0,0.0,0.0,0.0,0.0,0.0,0.0,0.0,-2.6541,-2.7995,-2.9512,0.0,0.0,0.0,0.0,-3.0452,-2.8987,0.0,0.0,0.0,0.0,0.0,0.0,0.0,0.0,0.0,0.0,0.0,0.0,0.0,0.0,0.0,0.0,0.0,0.0,0.0,0.0,0.0,0.0,0.0,0.0,0.0,0.0,0.0,0.0,0.0,0.0,0.0,0.0,0.0,0.0,0.0,0.0,0.0,0.0,0.0,0.0,0.0,0.0,0.0,0.0,0.0,0.0,0.0,0.0,0.0,0.0,0.0,0.0,0.0,0.0,0.0,0.0,-5.5647,-6.194,-6.7281,-7.1764,-7.3329,-7.2499,-6.9285,-6.5377,-5.923,0.0,0.0,0.0,0.0,0.0,0.0,0.0,0.0,0.0,0.0,0.0,0.0,0.0,0.0,0.0,0.0,0.0,0.0,0.0,0.0,0.0,0.0,0.0,0.0,0.0,0.0,0.0,0.0,0.0,0.0,0.0,0.0,0.0,0.0,0.0,0.0,0.0,0.0,0.0,0.0,-2.2538,-2.4039,-2.553,0.0,0.0,0.0,0.0,0.0,0.0,-2.6107,-2.4779,0.0,0.0,0.0,0.0,0.0,0.0,0.0,0.0,0.0,0.0,0.0,0.0,0.0,0.0,0.0,0.0,0.0,0.0,0.0,0.0,0.0,0.0,0.0,0.0,0.0,0.0,0.0,0.0,0.0,0.0,0.0,0.0,0.0,0.0,0.0,0.0,0.0,0.0,0.0,0.0,0.0,0.0,0.0,0.0,0.0,0.0,0.0,0.0,0.0,0.0,0.0,0.0,0.0,0.0,0.0,-5.5023,-6.0514,-6.609,-7.1834,-7.363,-7.2944,-6.9679,-6.4994,-5.8638,-5.058,0.0,0.0,0.0,0.0,0.0,0.0,0.0,0.0,0.0,0.0,0.0,0.0,0.0,0.0,0.0,0.0,0.0,0.0,0.0,0.0,0.0,0.0,0.0,0.0,0.0,0.0,0.0,0.0,0.0,0.0,0.0,0.0,0.0,0.0,0.0,0.0,0.0,0.0,0.0,-2.1162,-2.1701,0.0,0.0,0.0,0.0,0.0,0.0,0.0,0.0,-2.2485,0.0,0.0,0.0,0.0,0.0,0.0,0.0,0.0,0.0,0.0,0.0,0.0,0.0,0.0,0.0,0.0,0.0,0.0,0.0,0.0,0.0,0.0,0.0,0.0,0.0,0.0,0.0,0.0,0.0,0.0,0.0,0.0,0.0,0.0,0.0,0.0,0.0,0.0,0.0,0.0,0.0,0.0,0.0,0.0,0.0,0.0,0.0,0.0,0.0,0.0,0.0,0.0,0.0,0.0,0.0,0.0,-5.9297,-6.5952,-7.0554,-7.3363,-7.3212,-6.9943,-6.5271,-5.8521,-4.9692,0.0,0.0,0.0,0.0,0.0,0.0,0.0,0.0,0.0,0.0,0.0,0.0,0.0,0.0,0.0,0.0,0.0,0.0,0.0,0.0,0.0,0.0,0.0,0.0,0.0,0.0,0.0,0.0,0.0,0.0,0.0,0.0,0.0,0.0,0.0,0.0,0.0,0.0,-1.953,-2.0579,0.0,0.0,0.0,0.0,0.0,0.0,0.0,0.0,-2.2541,0.0,0.0,0.0,0.0,0.0,0.0,0.0,0.0,0.0,0.0,0.0,0.0,0.0,0.0,0.0,0.0,0.0,0.0,0.0,0.0,0.0,0.0,0.0,0.0,0.0,0.0,0.0,0.0,0.0,0.0,0.0,0.0,0.0,0.0,0.0,0.0,0.0,0.0,0.0,0.0,0.0,0.0,0.0,0.0,0.0,0.0,0.0,0.0,0.0,0.0,0.0,0.0,0.0,0.0,0.0,0.0,0.0,0.0,-6.5035,-6.9435,-7.3258,-7.3752,-7.048,-6.5079,-5.8137,0.0,0.0,0.0,0.0,0.0,0.0,0.0,0.0,0.0,0.0,0.0,0.0,0.0,0.0,0.0,0.0,0.0,0.0,0.0,0.0,0.0,0.0,0.0,0.0,0.0,0.0,0.0,0.0,0.0,0.0,0.0,0.0,0.0,0.0,0.0,0.0,0.0,0.0,0.0,0.0,0.0,0.0,0.0,0.0,0.0,0.0,0.0,0.0,0.0,0.0,0.0,0.0,0.0,0.0,0.0,0.0,0.0,0.0,0.0,0.0,0.0,0.0,0.0,0.0,0.0,0.0,0.0,0.0,0.0,0.0,0.0,0.0,0.0,0.0,0.0,0.0,0.0,0.0,0.0,0.0,0.0,0.0,0.0,0.0,0.0,0.0,0.0,0.0,0.0,0.0,0.0,0.0,0.0,0.0,0.0,0.0,0.0,0.0,0.0,0.0,0.0,0.0,0.0,0.0,0.0,0.0,0.0,0.0,-6.3604,-6.8857,-7.3095,-7.3961,-7.1091,-6.5019,-5.7788,0.0,0.0,0.0,0.0,0.0,0.0,0.0,0.0,0.0,0.0,0.0,0.0,0.0,0.0,0.0,0.0,0.0,0.0,0.0,0.0,0.0,0.0,0.0,0.0,0.0,0.0,0.0,0.0,0.0,0.0,0.0,0.0,0.0,0.0,0.0,0.0,0.0,0.0,0.0,0.0,0.0,0.0,0.0,0.0,0.0,0.0,0.0,0.0,-1.927,0.0,0.0,0.0,0.0,0.0,0.0,0.0,0.0,0.0,0.0,0.0,0.0,0.0,0.0,0.0,0.0,0.0,0.0,0.0,0.0,0.0,0.0,0.0,0.0,0.0,0.0,0.0,0.0,0.0,0.0,0.0,0.0,0.0,0.0,0.0,0.0,0.0,0.0,0.0,0.0,0.0,0.0,0.0,0.0,0.0,0.0,0.0,0.0,0.0,0.0,0.0,0.0,0.0,0.0,0.0,0.0,0.0,0.0,0.0,-6.1798,-6.916,-7.2625,-7.3436,-7.139,-6.5395,-5.7619,0.0,0.0,0.0,0.0,0.0,0.0,0.0,0.0,0.0,0.0,0.0,0.0,0.0,0.0,0.0,0.0,0.0,0.0,0.0,0.0,0.0,0.0,0.0,0.0,0.0,0.0,0.0,0.0,0.0,0.0,0.0,0.0,0.0,0.0,0.0,0.0,0.0,0.0,0.0,0.0,0.0,0.0,0.0,0.0,0.0,0.0,0.0,0.0,0.0,0.0,0.0,0.0,0.0,0.0,0.0,0.0,0.0,0.0,0.0,0.0,0.0,0.0,0.0,0.0,0.0,0.0,0.0,0.0,0.0,0.0,0.0,0.0,0.0,0.0,0.0,0.0,0.0,0.0,0.0,0.0,0.0,0.0,0.0,0.0,0.0,0.0,0.0,0.0,0.0,0.0,0.0,0.0,0.0,0.0,0.0,0.0,0.0,0.0,0.0,0.0,0.0,0.0,0.0,0.0,0.0,0.0,0.0,0.0,-5.9009,-6.6893,-7.1056,-7.1992,-6.9558,-6.3239,-5.5699,0.0,0.0,0.0,0.0,0.0,0.0,0.0,0.0,0.0,0.0,0.0,0.0,0.0,0.0,0.0,0.0,0.0,0.0,0.0,0.0,0.0,0.0,0.0,0.0,0.0,0.0,0.0,0.0,0.0,0.0,0.0,0.0,0.0,0.0,0.0,0.0,0.0,0.0,0.0,0.0,0.0,0.0,0.0,0.0,0.0,0.0,0.0,0.0,0.0,0.0,0.0,0.0,0.0,0.0,0.0,0.0,0.0,0.0,0.0,0.0,0.0,0.0,0.0,0.0,0.0,0.0,0.0,0.0,0.0,0.0,0.0,0.0,0.0,0.0,0.0,0.0,0.0,0.0,0.0,0.0,0.0,0.0,0.0,0.0,0.0,0.0,0.0,0.0,0.0,0.0,0.0,0.0,0.0,0.0,0.0,0.0,0.0,0.0,0.0,0.0,0.0,0.0,0.0,0.0,0.0,0.0,0.0,0.0,0.0,-6.3826,-6.7117,-6.7891,-6.6118,-6.0168,-5.3246,0.0,0.0,0.0,0.0,0.0,0.0,0.0,0.0,0.0,0.0,0.0,0.0,0.0,0.0,0.0,0.0,0.0,0.0,0.0,0.0,0.0,0.0,0.0,0.0,0.0,0.0,0.0,0.0,0.0,0.0,0.0,0.0,0.0,0.0,0.0,0.0,0.0,0.0,0.0,0.0,0.0,0.0,0.0,0.0,0.0,0.0,0.0,0.0,0.0,0.0,0.0,0.0,0.0,0.0,0.0,0.0,0.0,0.0,0.0,0.0,0.0,0.0,0.0,0.0,0.0,0.0,0.0,0.0,0.0,0.0,0.0,0.0,0.0,0.0,0.0,0.0,0.0,0.0,0.0,0.0,0.0,0.0,0.0,0.0,0.0,0.0,0.0,0.0,0.0,0.0,0.0,0.0,0.0,0.0,0.0,0.0,0.0,0.0,0.0,0.0,0.0,0.0,0.0,0.0,0.0,0.0,0.0,0.0,0.0,-6.0954,-5.9891,-5.9928,-6.1081,-5.6298,-5.0546,0.0,0.0,0.0,0.0,0.0,0.0,0.0,0.0,0.0,0.0,0.0,0.0,0.0,0.0,0.0,0.0,0.0,0.0,0.0,0.0,0.0,0.0,0.0,0.0,0.0,0.0,0.0,0.0,0.0,0.0,0.0,0.0,0.0,0.0,0.0,0.0,0.0,0.0,0.0,0.0,0.0,0.0,0.0,0.0,0.0,0.0,0.0,0.0,0.0,0.0,0.0,0.0,0.0,0.0,0.0,0.0,0.0,0.0,0.0,0.0,0.0,0.0,0.0,0.0,0.0,0.0,0.0,0.0,0.0,0.0,0.0,0.0,0.0,0.0,0.0,0.0,0.0,0.0,0.0,0.0,0.0,0.0,0.0,0.0,0.0,0.0,0.0,0.0,0.0,0.0,0.0,0.0,0.0,0.0,0.0,0.0,0.0,0.0,0.0,0.0,0.0,0.0,0.0,0.0,0.0,0.0,0.0,0.0,0.0,-5.0174,-5.2708,-5.3821,-5.3437,-4.9545,-4.4391,-3.7889,0.0,0.0,0.0,0.0,0.0,0.0,0.0,0.0,0.0,0.0,0.0,0.0,0.0,0.0,0.0,0.0,0.0,0.0,0.0,0.0,0.0,0.0,0.0,0.0,0.0,0.0,0.0,0.0,0.0,0.0,0.0,0.0,0.0,0.0,0.0,0.0,0.0,0.0,0.0,0.0,0.0,0.0,0.0,0.0,0.0,0.0,0.0,0.0,0.0,0.0,0.0,0.0,0.0,0.0,0.0,0.0,0.0,0.0,0.0,0.0,0.0,0.0,0.0,0.0,0.0,0.0,0.0,0.0,0.0,0.0,0.0,0.0,0.0,0.0,0.0,0.0,0.0,0.0,0.0,0.0,0.0,0.0,0.0,0.0,0.0,0.0,0.0,0.0,0.0,0.0,0.0,0.0,0.0,0.0,0.0,0.0,0.0,0.0,0.0,0.0,0.0,0.0,0.0,0.0,0.0,0.0,0.0,0.0,-4.1063,-4.5321,-4.7047,-4.5942,-4.3179,-3.9095,0.0,0.0,0.0,0.0,0.0,0.0,0.0,0.0,0.0,0.0,0.0,0.0,0.0,0.0,0.0,0.0,0.0,0.0,0.0,0.0,0.0,0.0,0.0,0.0,0.0,0.0,0.0,0.0,0.0,0.0,0.0,0.0,0.0,0.0,0.0,0.0,0.0,0.0,0.0,0.0,0.0,0.0,0.0,0.0,0.0,0.0,0.0,0.0,0.0,0.0,0.0,0.0,0.0,0.0,0.0,0.0,0.0,0.0,0.0,0.0,0.0,0.0,0.0,0.0,0.0,0.0,0.0,0.0,0.0,0.0,0.0,0.0,0.0,0.0,0.0,0.0,0.0,0.0,0.0,0.0,0.0,0.0,0.0,0.0,0.0,0.0,0.0,0.0,0.0,0.0,0.0,0.0,0.0,0.0,0.0,0.0,0.0,0.0,0.0,0.0,0.0,0.0,0.0,0.0,0.0,0.0,0.0,0.0,-3.1187,-3.4525,-3.7832,-3.9611,-3.9324,-3.7745,-3.5176,0.0,0.0,0.0,0.0,0.0,0.0,0.0,0.0,0.0,0.0,0.0,0.0,0.0,0.0,0.0,0.0,0.0,0.0,0.0,0.0,0.0,0.0,0.0,0.0,0.0,0.0,0.0,0.0,0.0,0.0,0.0,0.0,0.0,0.0,0.0,0.0,0.0,0.0,0.0,0.0,0.0,0.0,0.0,0.0,0.0,0.0,0.0,0.0,0.0,0.0,0.0,0.0,0.0,0.0,0.0,0.0,0.0,0.0,0.0,0.0,0.0,0.0,0.0,0.0,0.0,0.0,0.0,0.0,0.0,0.0,0.0,0.0,0.0,0.0,0.0,0.0,0.0,0.0,0.0,0.0,0.0,0.0,0.0,0.0,0.0,0.0,0.0,0.0,0.0,0.0,0.0,0.0,0.0,0.0,0.0,0.0,0.0,0.0,0.0,0.0,0.0,0.0,0.0,0.0,0.0,0.0,0.0,0.0,0.0,-3.2661,0.0,-3.5456,0.0,-3.3721,-3.1363,0.0,0.0,0.0,0.0,0.0,0.0,0.0,0.0,0.0,0.0,0.0,0.0,0.0,0.0,0.0,0.0,0.0,0.0,0.0,0.0,0.0,0.0,0.0,0.0,0.0,0.0,0.0,0.0,0.0,0.0,0.0,0.0,0.0,0.0,0.0,0.0,0.0,0.0,0.0,0.0,0.0,0.0,0.0,0.0,0.0,0.0,0.0,0.0,0.0,0.0,0.0,0.0,0.0,0.0,0.0,0.0,0.0,0.0,0.0,0.0,0.0,0.0,0.0,0.0,0.0,0.0,0.0,0.0,0.0,0.0,0.0,0.0,0.0,0.0,0.0,0.0,0.0,0.0,0.0,0.0,0.0,0.0,0.0,0.0,0.0,0.0,0.0,0.0,0.0,0.0,0.0,0.0,0.0,0.0,0.0,0.0,0.0,0.0,0.0,0.0,0.0,0.0,0.0,0.0,0.0,0.0,0.0,0.0,0.0,-3.1021,-3.2115,-3.2145,-3.1132,-3.1044,-2.8982,0.0,0.0,0.0,0.0,0.0,0.0,0.0,0.0,0.0,0.0,0.0,0.0,0.0,0.0,0.0,0.0,0.0,0.0,0.0,0.0,0.0,0.0,0.0,0.0,0.0,0.0,0.0,0.0,0.0,0.0,0.0,0.0,0.0,0.0,0.0,0.0,0.0,0.0,0.0,0.0,0.0,0.0,0.0,0.0,0.0,0.0,0.0,0.0,0.0,0.0,0.0,0.0,0.0,0.0,0.0,0.0,0.0,0.0,0.0,0.0,0.0,0.0,0.0,0.0,0.0,0.0,0.0,0.0,0.0,0.0,0.0,0.0,0.0,0.0,0.0,0.0,0.0,0.0,0.0,0.0,0.0,0.0,0.0,0.0,0.0,0.0,0.0,0.0,0.0,0.0,0.0,0.0,0.0,0.0,0.0,0.0,0.0,0.0,0.0,0.0,0.0,0.0,0.0,0.0,0.0,0.0,0.0,0.0,0.0,0.0,-2.9606,-2.9595,-2.9577,-2.9571,-2.7949,0.0,0.0,0.0,0.0,0.0,0.0,0.0,0.0,0.0,0.0,0.0,0.0,0.0,0.0,0.0,0.0,0.0,0.0,0.0,0.0,0.0,0.0,0.0,0.0,0.0,0.0,0.0,0.0,0.0,0.0,0.0,0.0,0.0,0.0,0.0,0.0,0.0,0.0,0.0,0.0,0.0,0.0,0.0,0.0,0.0,0.0,0.0,0.0,0.0,0.0,0.0,0.0,0.0,0.0,0.0,0.0,0.0,0.0,0.0,0.0,0.0,0.0,0.0,0.0,0.0,0.0,0.0,0.0,0.0,0.0,0.0,0.0,0.0,0.0,0.0,0.0,0.0,0.0,0.0,0.0,0.0,0.0,0.0,0.0,0.0,0.0,0.0,0.0,0.0,0.0,0.0,0.0,0.0,0.0,0.0,0.0,0.0,0.0,0.0,0.0,0.0,0.0,0.0,0.0,0.0,0.0,0.0,0.0,0.0,0.0,-2.9537,0.0,-2.9557,-2.954,-2.7997,-2.4633,0.0,0.0,0.0,0.0,0.0,0.0,0.0,0.0,0.0,0.0,0.0,0.0,0.0,0.0,0.0,0.0,0.0,0.0,0.0,0.0,0.0,0.0,0.0,0.0,0.0,0.0,0.0,0.0,0.0,0.0,0.0,0.0,0.0,0.0,0.0,0.0,0.0,0.0,0.0,0.0,0.0,0.0,0.0,0.0,0.0,0.0,0.0,0.0,0.0,0.0,0.0,0.0,0.0,0.0,0.0,0.0,0.0,0.0,0.0,0.0,0.0,0.0,0.0,0.0,0.0,0.0,0.0,0.0,0.0,0.0,0.0,0.0,0.0,0.0,0.0,0.0,0.0,0.0,0.0,0.0,0.0,0.0,0.0,0.0,0.0,0.0,0.0,0.0,0.0,0.0,0.0,0.0,0.0,0.0,0.0,0.0,0.0,0.0,0.0,0.0,0.0,0.0,0.0,0.0,0.0,0.0,0.0,0.0,0.0,0.0,0.0,-2.9533,-2.956,-2.801,0.0,0.0,0.0,0.0,0.0,0.0,0.0,0.0,0.0,0.0,0.0,0.0,0.0,0.0,0.0,0.0,0.0,0.0,0.0,0.0,0.0,0.0,0.0,0.0,0.0,0.0,0.0,0.0,0.0,0.0,0.0,0.0,0.0,0.0,0.0,0.0,0.0,0.0,0.0,0.0,0.0,0.0,0.0,0.0,0.0,0.0,0.0,0.0,0.0,0.0,0.0,0.0,0.0,0.0,0.0,0.0,0.0,0.0,0.0,0.0,0.0,0.0,0.0,0.0,0.0,0.0,0.0,0.0,0.0,0.0,0.0,0.0,0.0,0.0,0.0,0.0,0.0,0.0,0.0,0.0,0.0,0.0,0.0,0.0,0.0,0.0,0.0,0.0,0.0,0.0,0.0,0.0,0.0,0.0,0.0,0.0,0.0,0.0,0.0,0.0,0.0,0.0,0.0,0.0,0.0,0.0,0.0,0.0,0.0,0.0,0.0,-2.9571,-2.9549,-2.9554,0.0,-2.5383,0.0,0.0,0.0,0.0,0.0,0.0,0.0,0.0,0.0,0.0,0.0,0.0,0.0,0.0,0.0,0.0,0.0,0.0,0.0,0.0,0.0,0.0,0.0,0.0,0.0,0.0,0.0,0.0,0.0,0.0,0.0,0.0,0.0,0.0,0.0,0.0,0.0,0.0,0.0,0.0,0.0,0.0,0.0,0.0,0.0,0.0,0.0,0.0,0.0,0.0,0.0,0.0,0.0,0.0,0.0,0.0,0.0,0.0,0.0,0.0,0.0,0.0,0.0,0.0,0.0,0.0,0.0,0.0,0.0,0.0,0.0,0.0,0.0,0.0,0.0,0.0,0.0,0.0,0.0,0.0,0.0,0.0,0.0,0.0,0.0,0.0,0.0,0.0,0.0,0.0,0.0,0.0,0.0,0.0,0.0,0.0,0.0,0.0,0.0,0.0,0.0,0.0,0.0,0.0,0.0,0.0,0.0,0.0,0.0,0.0,0.0,0.0,-2.972,-2.9316,-2.8555,0.0,0.0,0.0,0.0,0.0,0.0,0.0,0.0,0.0,0.0,0.0,0.0,0.0,0.0,0.0,0.0,0.0,0.0,0.0,0.0,0.0,0.0,0.0,0.0,0.0,0.0,0.0,0.0,0.0,0.0,0.0,0.0,0.0,0.0,0.0,0.0,0.0,0.0,0.0,0.0,0.0,0.0,0.0,0.0,0.0,0.0,0.0,0.0,0.0,0.0,0.0,0.0,0.0,0.0,0.0,0.0,0.0,0.0,0.0,0.0,0.0,0.0,0.0,0.0,0.0,0.0,0.0,0.0,0.0,0.0,0.0,0.0,0.0,0.0,0.0,0.0,0.0,0.0,0.0,0.0,0.0,0.0,0.0,0.0,0.0,0.0,0.0,0.0,0.0,0.0,0.0,0.0,0.0,0.0,0.0,0.0,0.0,0.0,0.0,0.0,0.0,0.0,0.0,0.0,0.0,0.0,0.0,0.0,0.0,0.0,-2.9705,-2.9732,-2.9719,-2.9736,-2.9656,0.0,0.0,0.0,0.0,0.0,0.0,0.0,0.0,0.0,0.0,0.0,0.0,0.0,0.0,0.0,0.0,0.0,0.0,0.0,0.0,0.0,0.0,0.0,0.0,0.0,0.0,0.0,0.0,0.0,0.0,0.0,0.0,0.0,0.0,0.0,0.0,0.0,0.0,0.0,0.0,0.0,0.0,0.0,0.0,0.0,0.0,0.0,0.0,0.0,0.0,0.0,0.0,0.0,0.0,0.0,0.0,0.0,0.0,0.0,0.0,0.0,0.0,0.0,0.0,0.0,0.0,0.0,0.0,0.0,0.0,0.0,0.0,0.0,0.0,0.0,0.0,0.0,0.0,0.0,0.0,0.0,0.0,0.0,0.0,0.0,0.0,0.0,0.0,0.0,0.0,0.0,0.0,0.0,0.0,0.0,0.0,0.0,0.0,0.0,0.0,0.0,0.0,0.0,0.0,0.0,0.0,0.0,0.0,0.0,0.0,0.0,0.0,0.0,0.0,-2.9389,0.0,0.0,0.0,0.0,0.0,0.0,0.0,0.0,0.0,0.0,0.0,0.0,0.0,0.0,0.0,0.0,0.0,0.0,0.0,0.0,0.0,0.0,0.0,0.0,0.0,0.0,0.0,0.0,0.0,0.0,0.0,0.0,0.0,0.0,0.0,0.0,0.0,0.0,0.0,0.0,0.0,0.0,0.0,0.0,0.0,0.0,0.0,0.0,0.0,0.0,0.0,0.0,0.0,0.0,0.0,0.0,0.0,0.0,0.0,0.0,0.0,0.0,0.0,0.0,0.0,0.0,0.0,0.0,0.0,0.0,0.0,0.0,0.0,0.0,0.0,0.0,0.0,0.0,0.0,0.0,0.0,0.0,0.0,0.0,0.0,0.0,0.0,0.0,0.0,0.0,0.0,0.0,0.0,0.0,0.0,0.0,0.0,0.0,0.0,0.0,0.0,0.0,0.0,0.0,0.0,0.0,0.0,0.0,0.0,0.0,0.0,0.0,0.0,0.0,0.0,0.0,0.0,0.0,0.0,0.0,0.0,0.0,0.0,0.0,0.0,0.0,0.0,0.0,0.0,0.0,0.0,0.0,0.0,0.0,0.0,0.0,0.0,0.0,0.0,0.0,0.0,0.0,0.0,0.0,0.0,0.0,0.0,0.0,0.0,0.0,0.0,0.0,0.0,0.0,0.0,0.0,0.0,0.0,0.0,0.0,0.0,0.0,0.0,0.0,0.0,0.0,0.0,0.0,0.0,0.0,0.0,0.0,0.0,0.0,0.0,0.0,0.0,0.0,0.0,0.0,0.0,0.0,0.0,0.0,0.0,0.0,0.0,0.0,0.0,0.0,0.0,0.0,0.0,0.0,0.0,0.0,0.0,0.0,0.0,0.0,0.0,0.0,0.0,0.0,0.0,0.0,0.0,0.0,0.0,0.0,0.0,0.0,0.0,0.0,0.0,0.0,0.0,0.0,0.0,0.0,0.0,0.0,0.0,0.0,0.0,0.0,0.0,0.0,0.0,0.0,0.0,0.0,0.0,0.0,0.0,0.0,0.0,0.0,0.0,0.0,0.0,0.0,0.0,0.0,0.0,0.0,0.0,0.0,0.0,0.0,0.0,0.0,0.0,0.0,0.0,0.0,0.0,0.0,0.0,0.0,0.0,0.0,0.0,0.0,0.0,0.0,0.0,0.0,0.0,0.0,0.0,0.0,0.0,0.0,0.0,0.0,0.0,0.0,0.0,0.0,0.0,0.0,0.0,0.0,0.0,0.0,0.0,0.0,0.0,0.0,0.0,0.0,0.0,0.0,0.0,0.0,0.0,0.0,0.0,0.0,0.0,0.0,0.0,0.0,0.0,0.0,0.0,0.0,0.0,0.0,0.0,0.0,0.0,0.0,0.0,0.0,0.0,0.0,0.0,0.0,0.0,0.0,0.0,0.0,0.0,0.0,0.0,0.0,0.0,0.0,0.0,0.0,0.0,0.0,0.0,0.0,0.0,0.0,0.0,0.0,0.0,0.0,0.0,0.0,0.0,0.0,0.0,0.0,0.0,0.0,0.0,0.0,0.0,0.0,0.0,0.0,0.0,0.0,0.0,0.0,0.0,0.0,0.0,0.0,0.0,0.0,0.0,0.0,0.0,0.0,0.0,0.0,0.0,0.0,0.0,0.0,0.0,0.0,0.0,0.0,0.0,0.0,0.0,0.0,0.0,0.0,0.0,0.0,0.0,0.0,0.0,0.0,0.0,0.0,0.0,0.0,0.0,0.0,0.0,0.0,0.0,0.0,0.0,0.0,0.0,0.0,0.0,0.0,0.0,0.0,0.0,0.0,0.0,0.0,0.0,0.0,0.0,0.0,0.0,0.0,0.0,0.0,0.0,0.0,0.0,0.0,0.0,0.0,0.0,0.0,0.0,0.0,0.0,0.0,0.0,0.0,0.0,0.0,0.0,0.0,0.0,0.0,0.0,0.0,0.0,0.0,0.0,0.0,0.0,0.0,0.0,0.0,0.0,0.0,0.0,0.0,0.0,0.0,0.0,0.0,0.0,0.0,0.0,0.0,0.0,0.0,0.0,0.0,0.0,0.0,0.0,0.0,0.0,0.0,0.0,0.0,0.0,0.0,0.0,0.0,0.0,0.0,0.0,0.0,0.0,0.0,0.0,0.0,0.0,0.0,0.0,0.0,0.0,0.0,0.0,0.0,0.0,0.0,0.0,0.0,0.0,0.0,0.0,0.0,0.0,0.0,0.0,0.0,0.0,0.0,0.0,0.0,0.0,0.0,0.0,0.0,0.0,0.0,0.0,0.0,0.0,0.0,0.0,0.0,0.0,0.0,0.0,0.0,0.0,0.0,0.0,0.0,0.0,0.0,0.0,0.0,0.0,0.0,0.0,0.0,0.0,0.0,0.0,0.0,0.0,0.0,0.0,0.0,0.0,0.0,0.0,0.0,0.0,0.0,0.0,0.0,0.0,0.0,0.0,0.0,0.0,0.0,0.0,0.0,0.0,0.0,0.0,0.0,0.0,0.0,0.0,0.0,0.0,0.0,0.0,0.0,0.0,0.0,0.0,0.0,0.0,0.0,0.0,0.0,0.0,0.0,0.0,0.0,0.0,0.0,0.0,0.0,0.0,0.0,0.0,0.0,0.0,0.0,0.0,0.0,0.0,0.0,0.0,0.0,0.0,0.0,0.0,0.0,0.0,0.0,0.0,0.0,0.0,0.0,0.0,0.0,0.0,0.0,0.0,0.0,0.0,0.0,0.0,0.0,0.0,0.0,0.0,0.0,0.0,0.0,0.0,0.0,0.0,0.0,0.0,0.0,0.0,0.0,0.0,0.0,0.0,0.0,0.0,0.0,0.0,0.0,0.0,0.0,0.0,0.0,0.0,0.0,0.0,0.0,0.0,0.0,0.0,0.0,0.0,0.0,0.0,0.0,0.0,0.0,0.0,0.0,0.0,0.0,0.0,0.0,0.0,0.0,0.0,0.0,0.0,0.0,0.0,0.0,0.0,0.0,0.0,0.0,0.0,0.0,0.0,0.0,0.0,0.0,0.0,0.0,0.0,0.0,0.0,0.0,0.0,0.0,0.0,0.0,0.0,0.0,0.0,0.0,0.0,0.0,0.0,0.0,0.0,0.0,0.0,0.0,0.0,0.0,0.0,0.0,0.0,0.0,0.0,0.0,0.0,0.0,0.0,0.0,0.0,0.0,0.0,0.0,0.0,0.0,0.0,0.0,0.0,0.0,0.0,0.0,0.0,0.0,0.0,0.0,0.0,0.0,0.0,0.0,0.0,0.0,0.0,0.0,0.0,0.0,0.0,0.0,0.0,0.0,0.0,0.0,0.0,0.0,0.0,0.0,0.0,0.0,0.0,0.0,0.0,0.0,0.0,0.0,0.0,0.0,0.0,0.0,0.0,0.0,0.0,0.0,0.0,0.0,0.0,0.0,0.0,0.0,0.0,0.0,0.0,0.0,0.0,0.0,0.0,0.0,0.0,0.0,0.0,0.0,0.0,0.0,0.0,0.0,0.0,0.0,0.0,0.0,0.0,0.0,0.0,0.0,0.0,0.0,0.0,0.0,0.0,0.0,0.0,0.0,0.0,0.0,0.0,0.0,0.0,0.0,0.0,0.0,0.0,0.0,0.0,0.0,0.0,0.0,0.0,0.0,0.0,0.0,0.0,0.0,0.0,0.0,0.0,0.0,0.0,0.0,0.0,0.0,0.0,0.0,0.0,0.0,0.0,0.0,0.0,0.0,0.0,0.0,0.0,0.0,0.0,0.0,0.0,0.0,0.0,0.0,0.0,0.0,0.0,0.0,0.0,0.0,0.0,0.0,0.0,0.0,0.0,0.0,0.0,0.0,0.0,0.0,0.0,0.0,0.0,0.0,0.0,0.0,0.0,0.0,0.0,0.0,0.0,0.0,0.0,0.0,0.0,0.0,0.0,0.0,0.0,0.0,0.0,0.0,0.0,0.0,0.0,0.0,0.0,0.0,0.0,0.0,0.0,0.0,0.0,0.0,0.0,0.0,0.0,0.0,0.0,0.0,0.0,0.0,0.0,0.0,0.0,0.0,0.0,0.0,0.0,0.0,0.0,0.0,0.0,0.0,0.0,0.0,0.0,0.0,0.0,0.0,0.0,0.0,0.0,0.0,0.0,0.0,0.0,0.0,0.0,0.0,0.0,0.0,0.0,0.0,0.0,0.0,0.0,0.0,0.0,0.0,0.0,0.0,0.0,0.0,0.0,0.0,0.0,0.0,0.0,0.0,0.0,0.0,0.0,0.0,0.0,0.0,0.0,0.0,0.0,0.0,0.0,0.0,0.0,0.0,0.0,0.0,0.0,0.0,0.0,0.0,0.0,0.0,0.0,0.0]}],[{"header":{"parameterUnit":"kt","parameterCategory":2,"dx":1,"dy":1,"la1":29.587661999999998,"la2":31.0,"lo1":-88.76705300000003,"lo2":-86.6583820000003,"nx":115,"ny":88,"refTime":"2022-10-10T12:00:00:Z","depth":0,"parameterNumber":2,"parameterNumberName":"V-component_of_WINDS"},"data":[10.9332,10.9565,10.9934,11.0194,11.0348,11.0517,11.0739,11.0754,11.0968,11.1151,11.1102,11.1102,11.1151,11.1116,11.1116,11.1165,11.1165,11.1165,11.1165,11.1165,11.1165,11.1165,11.1165,11.1165,11.1165,11.1214,11.1214,11.12,11.1312,11.1263,11.1214,11.1263,11.1492,11.154,11.1636,11.1885,11.2257,11.244,11.2807,11.3192,11.3156,11.3199,11.3321,11.37,11.4148,11.4618,11.5069,11.536,11.5538,11.5815,11.6117,11.6471,11.6657,11.6741,11.6897,11.7013,11.7071,11.7128,11.7156,11.7184,11.7184,11.7212,11.7212,11.7212,11.7332,11.7332,11.7332,11.7332,11.7332,11.7332,11.7414,11.7414,11.7414,11.7414,11.7414,11.7414,11.7414,11.7414,11.7377,11.7377,11.7292,11.7032,11.6958,11.6624,11.6549,11.5583,11.4803,11.4729,11.4421,11.3357,11.2218,11.1995,11.1783,10.9961,10.8411,10.8188,10.8137,10.8045,10.7974,10.8076,10.8224,10.8308,10.8444,10.8557,10.8648,10.8773,10.8841,10.889,10.8917,10.8881,10.9012,10.8967,10.9142,10.908,10.8703,10.7612,10.7727,10.8551,10.9316,11.0021,11.009,11.0194,11.045,11.0719,11.0819,11.0804,11.0769,11.0819,11.0918,11.1102,11.1116,11.1165,11.12,11.1165,11.1165,11.1165,11.1165,11.1165,11.1165,11.1165,11.1165,11.1165,11.1165,11.1165,11.1165,11.1165,11.1165,11.1214,11.1214,11.1347,11.1505,11.1696,11.1838,11.2118,11.2394,11.244,11.2485,11.279,11.3098,11.3406,11.3865,11.4419,11.4767,11.5032,11.5323,11.5676,11.6014,11.6275,11.6434,11.6626,11.6808,11.6867,11.6926,11.6947,11.7013,11.6947,11.691,11.6918,11.6976,11.7165,11.7202,11.7202,11.723,11.723,11.7258,11.7332,11.7387,11.7414,11.7414,11.7414,11.7414,11.7414,11.7414,11.7377,11.7303,11.6894,11.6347,11.5901,11.527,11.4527,11.345,11.2893,11.2856,11.2522,11.1534,11.0667,11.0309,11.0147,10.9354,10.8078,10.7818,10.788,10.7768,10.7802,10.7822,10.7877,10.8033,10.8161,10.8245,10.8363,10.8481,10.8595,10.8256,10.846,10.853,10.8143,10.7622,10.7788,10.7555,10.7524,10.6066,10.6548,10.7497,10.8125,10.8551,10.9046,10.9404,10.9689,11.0159,11.0159,10.9899,11.0159,11.045,11.0653,11.0854,11.0918,11.1003,11.1102,11.1151,11.1165,11.1165,11.1165,11.1165,11.1165,11.1165,11.1165,11.1165,11.1165,11.1165,11.1165,11.1165,11.1165,11.1165,11.1165,11.1165,11.1263,11.136,11.136,11.1696,11.1791,11.1696,11.1838,11.2154,11.2384,11.2745,11.3192,11.3652,11.3905,11.4267,11.4767,11.5032,11.5394,11.585,11.6051,11.628,11.6502,11.6657,11.668,11.6763,11.6823,11.6852,11.6852,11.6823,11.683,11.6955,11.6904,11.6904,11.7021,11.705,11.7182,11.7258,11.7332,11.7332,11.736,11.736,11.736,11.736,11.7063,11.6681,11.631,11.5307,11.4787,11.4193,11.3562,11.3228,11.2151,11.1222,11.1148,11.0665,10.9874,10.9168,10.8685,10.8599,10.7954,10.7669,10.7669,10.7669,10.7657,10.7707,10.7706,10.7778,10.7859,10.7854,10.7885,10.7973,10.7991,10.7571,10.7165,10.7224,10.7114,10.6682,10.6267,10.589,10.5604,10.4726,10.4766,10.5233,10.6221,10.6734,10.6996,10.7876,10.8384,10.8683,10.9135,10.8991,10.8827,10.9316,10.9742,10.9951,11.0348,11.0603,11.0704,11.0854,11.1053,11.1102,11.1165,11.1165,11.1165,11.1165,11.1165,11.1165,11.1165,11.1165,11.1165,11.1165,11.1165,11.1165,11.1165,11.1165,11.1165,11.1165,11.1214,11.1214,11.1408,11.1408,11.1312,11.1492,11.1636,11.1873,11.2061,11.252,11.2887,11.3149,11.3569,11.4059,11.4267,11.4731,11.5324,11.5608,11.5883,11.6183,11.628,11.6339,11.6428,11.6459,11.6459,11.6521,11.662,11.668,11.668,11.6558,11.6558,11.6741,11.6897,11.7021,11.7145,11.7193,11.724,11.7212,11.7212,11.7212,11.7212,11.6562,11.5847,11.4724,11.345,11.2745,11.2188,11.1854,11.1705,11.0999,10.9923,10.944,10.9031,10.8808,10.8214,10.8066,10.7706,10.7669,10.7669,10.7669,10.7669,10.7657,10.7583,10.762,10.7694,10.7595,10.7505,10.7505,10.7068,10.6483,10.6017,10.5686,10.5338,10.5158,10.4843,10.4714,10.4378,10.3217,10.1888,10.357,10.3669,10.432,10.5082,10.5978,10.6709,10.7157,10.7415,10.724,10.7274,10.7646,10.8384,10.8717,10.8991,10.9583,10.9899,11.0194,11.0552,11.0754,11.0854,11.1018,11.1116,11.1116,11.1165,11.1165,11.1165,11.1165,11.1165,11.1165,11.1165,11.1165,11.1165,11.1165,11.1165,11.1165,11.1165,11.1165,11.1165,11.1214,11.1263,11.1249,11.1249,11.1347,11.1553,11.1731,11.1873,11.2292,11.2566,11.2745,11.3192,11.3533,11.386,11.4461,11.492,11.536,11.5608,11.5745,11.5844,11.5944,11.5978,11.5944,11.6014,11.6154,11.6252,11.6248,11.6183,11.6248,11.6376,11.662,11.6778,11.6645,11.6651,11.6486,11.6404,11.6005,11.568,11.5523,11.5033,11.4032,11.2459,11.1371,11.1074,11.0554,11.0257,11.0145,10.8883,10.814,10.8177,10.7991,10.7991,10.7781,10.7781,10.7669,10.7669,10.7669,10.7669,10.7669,10.7546,10.7472,10.7397,10.6877,10.6902,10.7075,10.6269,10.5448,10.4894,10.4403,10.3739,10.3356,10.3159,10.3035,10.3055,10.2159,10.0722,9.9731,10.2565,10.27,10.2938,10.3603,10.4383,10.5304,10.54,10.5116,10.5524,10.5861,10.6194,10.6912,10.7439,10.7842,10.8483,10.9031,10.9423,10.9951,11.0399,11.0501,11.0819,11.0904,11.1053,11.1067,11.1116,11.1165,11.1165,11.1116,11.1165,11.1165,11.1165,11.1165,11.1165,11.1165,11.1165,11.1165,11.1165,11.1165,11.1165,11.1165,11.1165,11.1165,11.1214,11.1312,11.1395,11.1588,11.1838,11.1921,11.22,11.262,11.271,11.3062,11.37,11.3987,11.4271,11.4995,11.5106,11.5215,11.5394,11.5429,11.5501,11.5608,11.5712,11.5678,11.5608,11.5714,11.5886,11.5911,11.6206,11.6349,11.6177,11.5935,11.5662,11.5388,11.4693,11.4006,11.3584,11.3243,11.1968,11.0328,10.9663,10.9403,10.9106,10.8771,10.8289,10.788,10.7669,10.7669,10.7669,10.7669,10.7669,10.7632,10.7632,10.7397,10.7669,10.7669,10.7397,10.71,10.6766,10.6098,10.5912,10.5565,10.5008,10.4387,10.3816,10.3551,10.3233,10.234,10.1394,10.1092,10.0895,10.0687,9.9883,9.8897,9.885,10.1944,10.2119,10.2119,10.2529,10.3171,10.3767,10.3701,10.3238,10.4094,10.4611,10.483,10.5491,10.6072,10.6615,10.7197,10.7773,10.8427,10.91,10.9583,11.009,11.0348,11.0552,11.0704,11.0854,11.0918,11.0918,11.0918,11.0918,11.1018,11.1102,11.1102,11.1165,11.1165,11.1165,11.1165,11.1165,11.1165,11.1165,11.1165,11.1165,11.1165,11.1165,11.1165,11.1214,11.1214,11.1312,11.1457,11.1492,11.1731,11.2061,11.2108,11.2394,11.2975,11.3105,11.3285,11.4108,11.4386,11.4541,11.4846,11.492,11.492,11.492,11.4882,11.4693,11.4693,11.4882,11.536,11.5172,11.5229,11.5023,11.4749,11.4098,11.3485,11.3295,11.303,11.1924,11.0499,11.0327,11.0386,10.8947,10.8373,10.8176,10.8226,10.7991,10.8103,10.7818,10.7669,10.7669,10.7669,10.7669,10.7632,10.7583,10.736,10.6469,10.6692,10.6395,10.6395,10.6283,10.5206,10.4389,10.4241,10.3832,10.3015,10.2556,10.2259,10.2069,10.178,10.0851,9.9698,9.9303,9.9293,9.858,9.8037,9.8276,9.8304,10.1875,10.1875,10.1875,10.2082,10.2256,10.2188,10.222,10.2393,10.3171,10.3503,10.357,10.4191,10.4769,10.5149,10.5576,10.6281,10.7064,10.7864,10.8427,10.9066,10.9671,11.0003,11.021,11.0348,11.0415,11.045,11.0501,11.0603,11.0769,11.0819,11.0968,11.1067,11.1165,11.1165,11.1165,11.1165,11.1165,11.1165,11.1165,11.1165,11.1165,11.1165,11.1165,11.1165,11.1165,11.1214,11.1214,11.1298,11.1444,11.154,11.1601,11.1932,11.22,11.242,11.2665,11.3026,11.3533,11.3777,11.4063,11.4104,11.4104,11.3905,11.3741,11.3461,11.3442,11.3718,11.3743,11.3682,11.3464,11.3346,11.3146,11.2212,11.1345,11.1188,11.114,10.9877,10.82,10.7912,10.8185,10.8082,10.7512,10.7394,10.7519,10.7669,10.7818,10.7669,10.7582,10.7582,10.7545,10.7545,10.6902,10.6828,10.6246,10.5466,10.4798,10.4315,10.4278,10.4538,10.3498,10.2755,10.2644,10.2347,10.153,10.0898,10.0713,10.0304,9.9756,9.8939,9.8233,9.8196,9.8337,9.7869,9.7847,9.7963,9.7348,10.1875,10.1875,10.1875,10.1875,10.1944,10.1875,10.1875,10.2082,10.2461,10.2633,10.2768,10.3171,10.3636,10.3996,10.435,10.4923,10.5923,10.6641,10.7231,10.7955,10.8717,10.9046,10.937,10.9618,10.9776,11.0125,11.0229,11.028,11.045,11.0669,11.0769,11.0918,11.1102,11.1116,11.1116,11.1116,11.12,11.1165,11.1165,11.1165,11.1165,11.1165,11.1165,11.1165,11.1165,11.1165,11.1165,11.1165,11.1249,11.1298,11.1395,11.1505,11.1731,11.1873,11.1979,11.2257,11.262,11.2923,11.3141,11.3185,11.2947,11.27,11.2754,11.2201,11.1564,11.1904,11.1729,11.1362,11.1061,11.1027,11.095,11.0117,10.9406,10.9104,10.8801,10.8088,10.6827,10.7021,10.7264,10.7437,10.712,10.7227,10.7342,10.7457,10.7556,10.7531,10.7431,10.7431,10.7431,10.6504,10.5651,10.5281,10.4761,10.3919,10.3116,10.2373,10.2262,10.257,10.1975,10.1172,10.0986,10.0605,9.991,9.9264,9.9204,9.8907,9.8016,9.7756,9.789,9.789,9.7571,9.7511,9.7733,9.7088,9.6218,10.1875,10.1875,10.1875,10.1875,10.1875,10.1875,10.1875,10.1875,10.1981,10.2119,10.2188,10.2393,10.2733,10.297,10.3305,10.38,10.4639,10.527,10.595,10.6675,10.7289,10.7727,10.8125,10.8461,10.8827,10.9135,10.9439,10.9546,10.9882,11.0142,11.0348,11.0653,11.0804,11.0954,11.0819,11.1053,11.1053,11.1067,11.1116,11.1165,11.1165,11.1165,11.1165,11.1165,11.1165,11.1165,11.1165,11.1165,11.1165,11.1214,11.1214,11.1263,11.1444,11.1492,11.1553,11.1696,11.1932,11.22,11.2292,11.2175,11.1848,11.1259,11.0904,11.045,10.9314,10.9569,10.929,10.8861,10.8814,10.8654,10.8626,10.7791,10.748,10.7146,10.7088,10.6343,10.6082,10.6275,10.652,10.674,10.6902,10.6985,10.7066,10.7194,10.7248,10.7248,10.6343,10.6259,10.6052,10.5116,10.4067,10.3648,10.303,10.2214,10.1336,10.0337,10.0003,10.0114,9.9768,9.9495,9.9124,9.8632,9.8271,9.8429,9.8045,9.7696,9.7756,9.7756,9.7719,9.733,9.663,9.6422,9.6185,9.5595,9.4731,10.1875,10.1875,10.1875,10.1875,10.1875,10.1875,10.1875,10.1875,10.1875,10.1875,10.1944,10.1944,10.205,10.2224,10.2429,10.287,10.3438,10.38,10.4447,10.527,10.5822,10.6187,10.6607,10.7055,10.7439,10.7473,10.7876,10.8419,10.8697,10.9262,10.9705,10.9986,11.0107,11.0176,11.0038,11.0501,11.0804,11.0819,11.1018,11.1067,11.1116,11.12,11.1165,11.1165,11.1165,11.1165,11.1165,11.1165,11.1165,11.1165,11.1165,11.1214,11.1298,11.1249,11.1298,11.1263,11.154,11.1636,11.1565,11.129,11.036,10.928,10.9174,10.8573,10.7452,10.7263,10.7411,10.6608,10.6612,10.6363,10.5989,10.5539,10.5403,10.5398,10.5782,10.5623,10.5659,10.5726,10.6114,10.6416,10.6565,10.669,10.6769,10.6854,10.6939,10.6172,10.5222,10.4713,10.4388,10.3516,10.2395,10.1769,10.1016,10.0313,9.9622,9.8462,9.7895,9.7599,9.766,9.7956,9.7771,9.7611,9.7647,9.7607,9.7557,9.7594,9.7664,9.7696,9.7533,9.7278,9.6304,9.506,9.4563,9.3916,9.2709,10.1875,10.1875,10.1875,10.1875,10.1875,10.1875,10.1875,10.1875,10.1875,10.1875,10.1875,10.1875,10.1944,10.1944,10.2014,10.2256,10.2633,10.3005,10.3471,10.3963,10.4447,10.4863,10.5208,10.5581,10.6039,10.6308,10.6701,10.724,10.7612,10.826,10.8628,10.8772,10.8848,10.8957,10.9066,10.9794,11.0348,11.0552,11.0754,11.0904,11.0918,11.1018,11.1116,11.1116,11.1116,11.1116,11.1116,11.1116,11.1116,11.1116,11.1165,11.1165,11.1165,11.1165,11.1165,11.1214,11.1298,11.1298,11.103,11.0298,10.8877,10.7786,10.7528,10.6612,10.5683,10.5346,10.5109,10.441,10.423,10.4031,10.4001,10.4271,10.4339,10.4419,10.4787,10.5002,10.5038,10.5249,10.5656,10.595,10.6045,10.6077,10.6196,10.6313,10.5738,10.4209,10.3244,10.2617,10.2297,10.1506,10.0518,9.9759,9.9121,9.8593,9.8028,9.7641,9.7242,9.6984,9.701,9.7099,9.715,9.7252,9.7302,9.7315,9.7364,9.745,9.7302,9.7032,9.7019,9.6966,9.5499,9.3911,9.3213,9.1763,9.0577,10.1875,10.1875,10.1875,10.1875,10.1875,10.1875,10.1875,10.1875,10.1875,10.1875,10.1875,10.1875,10.1875,10.1875,10.1875,10.1944,10.2119,10.2393,10.2633,10.3037,10.3371,10.3636,10.3964,10.4352,10.4703,10.486,10.5333,10.5889,10.6435,10.6904,10.7231,10.7231,10.708,10.7347,10.7899,10.8551,10.9262,10.9689,11.0245,11.0552,11.0653,11.0769,11.0904,11.0869,11.0869,11.0869,11.0869,11.0904,11.0904,11.0904,11.1003,11.1003,11.0968,11.1116,11.1165,11.1165,11.1165,11.0862,11.0228,10.8842,10.7715,10.673,10.6026,10.5146,10.3748,10.3557,10.2977,10.2722,10.2666,10.2909,10.2852,10.3271,10.3678,10.3762,10.3997,10.4229,10.4455,10.4787,10.5108,10.5213,10.5352,10.5346,10.5477,10.5532,10.3849,10.2165,10.1274,10.0444,9.9943,9.9227,9.8542,9.7827,9.7634,9.7211,9.6991,9.6816,9.6641,9.6605,9.6605,9.6577,9.6577,9.6733,9.6904,9.7073,9.7125,9.7227,9.7042,9.6483,9.5873,9.5199,9.4099,9.2707,9.112,8.962,8.8877,10.1838,10.1838,10.1806,10.1806,10.1875,10.1875,10.1875,10.1875,10.1875,10.1875,10.1875,10.1875,10.1875,10.1875,10.1875,10.1875,10.1875,10.1875,10.205,10.2155,10.2224,10.2565,10.2836,10.3171,10.3404,10.3537,10.4028,10.4513,10.4959,10.5328,10.5145,10.4959,10.5424,10.6072,10.6649,10.7148,10.775,10.8717,10.9511,10.9934,11.009,11.0297,11.0348,11.0348,11.0348,11.0348,11.0348,11.0348,11.0348,11.0485,11.0603,11.0669,11.0699,11.0602,11.0455,11.0363,11.0293,10.9273,10.8336,10.7057,10.6472,10.5991,10.5075,10.3667,10.2646,10.2189,10.2083,10.2173,10.2245,10.2263,10.2394,10.261,10.2944,10.3159,10.3481,10.3642,10.388,10.4229,10.4382,10.4457,10.4424,10.4208,10.428,10.3303,10.1787,9.9803,9.8791,9.8455,9.7875,9.7459,9.6711,9.6466,9.6379,9.621,9.5988,9.5958,9.5958,9.5994,9.5994,9.5994,9.6055,9.6203,9.6378,9.6557,9.6688,9.6941,9.6873,9.5054,9.3714,9.33,9.2447,9.0925,8.9429,8.8108,8.7387,10.1419,10.1419,10.1419,10.1629,10.1838,10.1875,10.1875,10.1875,10.1875,10.1875,10.1875,10.1875,10.1875,10.1875,10.1875,10.1875,10.1875,10.1875,10.1944,10.1944,10.1944,10.2082,10.2289,10.2393,10.2565,10.2565,10.3072,10.3437,10.3537,10.3537,10.357,10.3833,10.4028,10.4544,10.5274,10.58,10.6315,10.7415,10.8384,10.8882,10.9189,10.9511,10.9671,10.9758,10.9846,10.9846,10.9846,10.9793,10.9882,10.9917,10.9951,10.9931,10.984,10.9292,10.8986,10.8924,10.7871,10.6783,10.5708,10.4983,10.4198,10.3516,10.2611,10.2646,10.2048,10.2048,10.2048,10.2048,10.2103,10.2103,10.2156,10.2263,10.2437,10.2653,10.2986,10.3105,10.323,10.345,10.3614,10.3443,10.3123,10.3022,10.1728,10.09,9.9496,9.7514,9.6733,9.6455,9.6128,9.5775,9.5503,9.5695,9.5586,9.5495,9.5395,9.5366,9.5301,9.5301,9.5337,9.5402,9.5591,9.5785,9.5878,9.5994,9.6167,9.5983,9.5161,9.3244,9.1462,9.0923,9.0209,8.8904,8.7908,8.6792,8.6018,10.0434,10.0751,10.0996,10.1176,10.1387,10.1527,10.1629,10.1629,10.1736,10.1875,10.1875,10.1875,10.1875,10.1875,10.1875,10.1875,10.1875,10.1875,10.1875,10.1875,10.1875,10.1875,10.1875,10.2014,10.2082,10.2188,10.2325,10.2597,10.2529,10.2393,10.2325,10.2868,10.297,10.3437,10.4256,10.4416,10.5053,10.5861,10.6675,10.7347,10.7842,10.8272,10.8551,10.835,10.8461,10.8406,10.8406,10.8461,10.8511,10.7951,10.8416,10.8351,10.764,10.7356,10.7015,10.7038,10.5157,10.3619,10.2911,10.2889,10.2643,10.2113,10.2028,10.2003,10.2048,10.2048,10.2048,10.2048,10.2048,10.2048,10.2058,10.2112,10.2121,10.2219,10.2516,10.2603,10.2696,10.2837,10.2494,10.2174,10.1753,10.0034,9.8495,9.7856,9.6857,9.5428,9.4878,9.4858,9.4694,9.4481,9.4656,9.4825,9.4827,9.4795,9.4726,9.4727,9.4692,9.4763,9.4763,9.4829,9.5102,9.5199,9.5304,9.5431,9.4704,9.3899,9.3189,9.1551,8.9663,8.8706,8.7958,8.7246,8.6431,8.5463,8.5494,9.9031,9.9857,10.0187,10.0505,10.0648,10.0964,10.1138,10.1176,10.1527,10.1667,10.1597,10.1667,10.1667,10.1667,10.1667,10.1838,10.1875,10.1875,10.1875,10.1875,10.1875,10.1875,10.1875,10.1875,10.1944,10.1944,10.1944,10.1875,10.1944,10.2014,10.2082,10.2188,10.2325,10.2597,10.3304,10.3338,10.3636,10.4256,10.4863,10.5581,10.6341,10.6794,10.6819,10.6667,10.6785,10.6777,10.6253,10.6361,10.6052,10.5113,10.5583,10.5281,10.4449,10.4764,10.4896,10.3838,10.2365,10.0463,10.0977,10.1416,10.1558,10.1708,10.1776,10.1877,10.1913,10.1913,10.1958,10.2003,10.2048,10.2048,10.2048,10.2013,10.2048,10.2147,10.221,10.2183,10.1803,10.156,10.1001,10.0541,9.9266,9.7465,9.5892,9.5133,9.4451,9.3693,9.3149,9.3423,9.3553,9.3707,9.3898,9.4049,9.4085,9.4085,9.4049,9.4084,9.4084,9.4229,9.4231,9.4267,9.4119,9.3898,9.4222,9.3382,9.2461,9.1544,9.0585,8.9311,8.7857,8.6933,8.6469,8.5758,8.5048,8.5084,8.5048,9.7533,9.8543,9.8661,9.9283,10.0146,10.0354,10.0466,10.0791,10.0862,10.0964,10.0933,10.0933,10.0933,10.1035,10.1247,10.1527,10.1875,10.1838,10.1875,10.1875,10.1875,10.1875,10.1875,10.1875,10.1875,10.1875,10.1875,10.1875,10.1875,10.1875,10.1875,10.1944,10.1944,10.2119,10.2429,10.2565,10.297,10.3437,10.38,10.4126,10.4736,10.5145,10.5204,10.5204,10.5237,10.4599,10.3665,10.3842,10.3374,10.2662,10.262,10.2917,10.2976,10.2401,10.1238,9.9826,9.932,9.9546,10.0049,10.0575,10.0947,10.1243,10.1418,10.1465,10.1511,10.1684,10.1857,10.2003,10.2048,10.2003,10.2003,10.2048,10.2013,10.1987,10.1846,10.1644,10.0737,10.0111,9.9563,9.7995,9.6825,9.5479,9.4211,9.3459,9.36,9.2912,9.2912,9.3078,9.3158,9.3238,9.3316,9.3402,9.3444,9.3444,9.3482,9.3521,9.3173,9.3144,9.3113,9.2797,9.2619,9.2475,9.1432,9.0598,8.9724,8.8933,8.7766,8.6566,8.6169,8.5742,8.5074,8.4612,8.4323,8.432,8.4001,9.588,9.7074,9.7197,9.7867,9.8605,9.902,9.9283,9.9502,9.9866,10.0011,10.0115,10.0322,10.0394,10.0537,10.0823,10.1208,10.1559,10.1769,10.1875,10.1875,10.1875,10.1875,10.1875,10.1875,10.1875,10.1875,10.1875,10.1875,10.1875,10.1806,10.1875,10.1875,10.1875,10.1944,10.1981,10.2018,10.2325,10.2529,10.2801,10.3037,10.3371,10.2913,10.2319,10.2021,10.1755,10.1558,10.0866,10.1021,10.0638,9.9722,9.9776,9.9845,9.9406,9.8748,9.7906,9.7572,9.7767,9.8455,9.9118,9.9764,10.0247,10.0781,10.1042,10.1137,10.1278,10.1372,10.1546,10.1649,10.1741,10.1867,10.1797,10.1968,10.1626,10.1168,10.0851,10.0121,9.91,9.8712,9.7077,9.5128,9.4642,9.3987,9.2679,9.2679,9.272,9.272,9.272,9.2801,9.2882,9.2958,9.2958,9.3043,9.3048,9.3048,9.3048,9.2494,9.1832,9.177,9.1638,9.1006,9.0688,9.0653,8.9686,8.8217,8.718,8.639,8.5579,8.5545,8.515,8.4721,8.4369,8.405,8.3696,8.3196,8.2593,9.4096,9.5437,9.5753,9.6175,9.6797,9.7457,9.7836,9.7956,9.8661,9.8926,9.8957,9.9419,9.9524,9.9711,10.0115,10.0609,10.0964,10.1317,10.1597,10.1597,10.1597,10.1565,10.1597,10.1629,10.1667,10.1667,10.1597,10.1597,10.1597,10.1736,10.1699,10.1736,10.1806,10.1875,10.1843,10.1617,10.1396,10.1437,10.1186,10.1124,10.1033,10.0587,9.9809,9.9093,9.9287,9.8929,9.8442,9.8342,9.7945,9.6671,9.69,9.6698,9.6223,9.5661,9.5556,9.5955,9.6639,9.7424,9.8114,9.8858,9.9528,10.0099,10.0331,10.0526,10.0685,10.0829,10.0829,10.0972,10.1196,10.1371,10.1242,10.1144,10.0682,9.9663,9.9065,9.8459,9.7202,9.6272,9.5063,9.3442,9.3006,9.2638,9.2638,9.2638,9.2679,9.272,9.272,9.2761,9.2761,9.2761,9.2685,9.2685,9.2608,9.2608,9.2292,9.126,9.039,9.0298,9.0028,8.9435,8.8904,8.8834,8.7943,8.634,8.5128,8.4773,8.4702,8.4629,8.4202,8.3491,8.3453,8.3453,8.2529,8.1537,8.0971,9.2318,9.3527,9.3609,9.4339,9.5377,9.591,9.6301,9.6689,9.7182,9.7304,9.7411,9.7411,9.776,9.8062,9.8672,9.9356,9.9898,10.0434,10.0894,10.0933,10.0933,10.0933,10.1003,10.1035,10.1035,10.0894,10.0862,10.0766,10.0837,10.1176,10.0965,10.1259,10.1538,10.1323,10.1323,10.0711,10.0003,9.9874,9.9201,9.8785,9.8559,9.8368,9.8013,9.7595,9.7662,9.7047,9.6336,9.6142,9.5783,9.4358,9.4599,9.4469,9.4182,9.3996,9.4212,9.4851,9.5536,9.6352,9.7146,9.7788,9.8416,9.8996,9.91,9.9118,9.9272,9.9613,9.978,10.0064,10.0082,10.0285,9.9461,9.9378,9.8608,9.7569,9.7114,9.6299,9.4935,9.3441,9.2987,9.1982,9.2144,9.2312,9.2396,9.2479,9.2638,9.272,9.272,9.272,9.272,9.272,9.2497,9.2386,9.2099,9.1993,9.0798,8.9653,8.8926,8.8728,8.8602,8.7903,8.7196,8.6983,8.6379,8.4639,8.4002,8.4037,8.4037,8.3612,8.2974,8.2226,8.1801,8.1339,8.0663,7.9917,7.9496,9.1084,9.2097,9.2097,9.2568,9.3452,9.3883,9.4288,9.469,9.5119,9.5467,9.5704,9.588,9.6192,9.6658,9.7426,9.8213,9.884,9.9492,9.9961,10.0322,10.0362,10.0434,10.0609,10.0042,9.9575,9.9429,9.9658,9.9576,9.9378,9.9368,9.9254,9.8793,9.901,9.944,9.9087,9.8841,9.8586,9.8361,9.7878,9.762,9.7427,9.6944,9.6461,9.6429,9.5689,9.5077,9.4433,9.4496,9.4109,9.3721,9.3686,9.3653,9.3559,9.3527,9.3684,9.415,9.4702,9.5332,9.6155,9.6729,9.7325,9.7972,9.8026,9.808,9.8363,9.8523,9.8753,9.8825,9.8534,9.8056,9.7135,9.7034,9.6455,9.5422,9.5085,9.4433,9.3197,9.2151,9.1576,9.1542,9.1759,9.1974,9.2067,9.2151,9.2236,9.2271,9.2271,9.2207,9.2207,9.2039,9.1892,9.1302,9.1232,9.06,8.9197,8.822,8.7417,8.6975,8.6747,8.6017,8.5452,8.5135,8.4745,8.4105,8.3394,8.343,8.2899,8.2409,8.1809,8.0928,8.0081,7.9231,7.8525,7.7926,7.7575,9.0171,9.0857,9.0886,9.1142,9.168,9.2097,9.2402,9.2705,9.3288,9.3698,9.3942,9.4207,9.469,9.5248,9.588,9.6766,9.7609,9.8124,9.8786,9.9346,9.9419,9.9439,9.8707,9.7876,9.7154,9.7007,9.7618,9.7598,9.7235,9.6991,9.6838,9.6462,9.6928,9.6849,9.6985,9.7126,9.7005,9.694,9.6653,9.6461,9.6171,9.5431,9.5012,9.4916,9.4046,9.3403,9.3338,9.3306,9.3306,9.3306,9.3306,9.337,9.337,9.3306,9.3401,9.3684,9.3996,9.4519,9.5212,9.572,9.6188,9.6752,9.6865,9.7068,9.7359,9.7112,9.7008,9.699,9.6211,9.5392,9.4806,9.465,9.3845,9.2941,9.2586,9.2149,9.1274,9.0963,9.0838,9.0792,9.1098,9.1498,9.1638,9.1646,9.1811,9.1811,9.1741,9.1601,9.1435,9.1156,9.0353,8.9243,8.9068,8.8573,8.7352,8.6555,8.5687,8.5071,8.4532,8.388,8.3733,8.3485,8.3442,8.3153,8.2689,8.2155,8.1587,8.1035,8.0032,7.9372,7.8603,7.7342,7.6325,7.5973,7.5553,8.9534,8.9883,8.9883,9.0285,9.0715,9.1113,9.1339,9.1452,9.1903,9.2184,9.2239,9.2268,9.2763,9.3364,9.3986,9.485,9.6067,9.6487,9.6951,9.7258,9.7319,9.623,9.4898,9.4548,9.4242,9.3522,9.3539,9.3919,9.4129,9.45,9.4844,9.4928,9.5509,9.6044,9.5709,9.5412,9.5163,9.5005,9.4463,9.424,9.4111,9.4014,9.3821,9.3789,9.337,9.3338,9.3306,9.3306,9.3306,9.3306,9.3306,9.3306,9.3306,9.3306,9.337,9.3401,9.3621,9.3902,9.4396,9.4763,9.5065,9.5391,9.5543,9.555,9.5298,9.4571,9.4081,9.4251,9.3441,9.3036,9.2714,9.2096,9.1128,9.0159,8.9718,8.9352,8.8951,8.9441,8.9874,8.9683,9.0251,9.0575,9.0838,9.1063,9.134,9.0747,9.0722,9.0167,8.9439,8.9231,8.8399,8.7333,8.682,8.6438,8.5605,8.4807,8.3905,8.3251,8.2759,8.2559,8.2442,8.2284,8.2165,8.1802,8.1267,8.0771,7.9961,7.8901,7.7985,7.7199,7.6377,7.5094,7.3915,7.3532,7.2941,8.9331,8.9506,8.9418,8.9621,8.9795,8.9968,9.0199,9.0343,9.0629,9.0801,9.1086,9.12,9.1481,9.2013,9.2456,9.317,9.4207,9.472,9.5089,9.5486,9.5631,9.3716,9.1334,9.126,9.1253,9.0761,9.1402,9.1401,9.1165,9.1515,9.1429,9.164,9.2093,9.2608,9.2846,9.2793,9.3036,9.3038,9.3049,9.2955,9.3019,9.3179,9.3242,9.3306,9.3306,9.3306,9.3306,9.3306,9.3306,9.3306,9.3306,9.3306,9.3306,9.3306,9.3306,9.3306,9.3401,9.359,9.3872,9.4058,9.4273,9.4482,9.3824,9.3562,9.3203,9.2242,9.1625,9.1609,9.0725,9.0398,9.0253,8.9358,8.8521,8.8005,8.7138,8.6743,8.7045,8.8144,8.8652,8.8718,8.9115,8.9731,8.9874,9.0204,8.9978,8.9485,8.9245,8.8351,8.725,8.6975,8.6425,8.5281,8.4524,8.3897,8.3141,8.2695,8.1973,8.1878,8.1597,8.1603,8.1438,8.1221,8.0623,7.9778,7.9668,7.903,7.7362,7.5993,7.5453,7.4942,7.3999,7.2906,7.1774,7.1017,7.0292,8.9184,8.9184,8.9184,8.9184,8.9184,8.9184,8.9447,8.968,8.968,8.9968,9.0141,9.0228,9.0458,9.0772,9.114,9.1583,9.207,9.2452,9.2831,9.288,9.2922,9.0744,8.8568,8.8275,8.8181,8.7926,8.8341,8.8623,8.8136,8.8451,8.8383,8.7862,8.9002,8.9441,8.9695,9.0674,9.112,9.1352,9.2014,9.2471,9.2503,9.2858,9.3051,9.3179,9.3179,9.3179,9.3306,9.3306,9.3306,9.3306,9.3306,9.3306,9.3306,9.3306,9.3306,9.3306,9.3274,9.3304,9.3106,9.3007,9.2875,9.286,9.1822,9.1367,9.1302,9.0004,8.9467,8.9284,8.8414,8.7678,8.7739,8.7141,8.6833,8.6689,8.5844,8.529,8.5965,8.6938,8.7679,8.7436,8.7923,8.8164,8.8228,8.8286,8.804,8.7014,8.6586,8.611,8.4852,8.4274,8.3878,8.2846,8.2279,8.152,8.0967,8.0695,8.0569,8.0612,8.0476,8.0452,8.0233,7.9806,7.8693,7.7683,7.7422,7.6583,7.4954,7.3734,7.3186,7.2865,7.202,7.1169,6.9905,6.8782,6.8166,8.9184,8.9184,8.9184,8.9184,8.9184,8.9184,8.9272,8.9272,8.9272,8.9359,8.9331,8.9305,8.9479,8.9768,8.9628,8.9654,8.9665,8.9741,8.9437,8.853,8.7915,8.7421,8.6548,8.5979,8.5294,8.4505,8.472,8.4931,8.5314,8.5741,8.5942,8.6477,8.7035,8.7615,8.8261,8.9108,8.9695,9.014,9.1187,9.1751,9.1782,9.2209,9.2438,9.2762,9.273,9.289,9.3179,9.3179,9.3179,9.3306,9.3274,9.3146,9.3178,9.3274,9.3113,9.2856,9.3209,9.25,9.163,9.134,9.095,9.0012,8.9593,8.9181,8.9141,8.8044,8.72,8.7194,8.6333,8.5703,8.576,8.5727,8.5863,8.5718,8.5176,8.4979,8.5355,8.6131,8.6407,8.6352,8.6536,8.6588,8.561,8.5732,8.528,8.4539,8.4166,8.3508,8.2466,8.1807,8.1142,8.0671,8.0327,7.9889,8.0002,7.9767,7.9812,7.9666,7.926,7.9148,7.8931,7.7983,7.6921,7.5849,7.5058,7.397,7.2872,7.2177,7.1569,7.0798,7.0027,6.9389,6.8425,6.731,6.6566,8.9184,8.9184,8.9184,8.9184,8.9184,8.9184,8.9184,8.9184,8.9184,8.9184,8.8987,8.8338,8.8144,8.806,8.7409,8.7181,8.7369,8.7283,8.6225,8.4376,8.3825,8.3692,8.3659,8.3313,8.2933,8.2879,8.3243,8.3528,8.3654,8.4013,8.4369,8.478,8.5282,8.5883,8.6477,8.7398,8.822,8.8748,8.9934,9.0617,9.0783,9.1285,9.1751,9.2014,9.2111,9.2373,9.2826,9.2568,9.2438,9.2696,9.2696,9.2217,9.1481,9.1448,9.1222,9.0643,9.0446,9.0408,8.9925,8.9829,8.9539,8.8992,8.8154,8.7672,8.7414,8.6384,8.5579,8.552,8.5186,8.5011,8.5011,8.5094,8.5094,8.5094,8.4832,8.4864,8.5011,8.5605,8.5527,8.4462,8.3972,8.3592,8.3275,8.3284,8.2978,8.2051,8.1784,8.1252,8.028,7.9847,7.9661,7.9328,7.8994,7.9028,7.9028,7.9028,7.9028,7.8554,7.8047,7.7739,7.7129,7.6053,7.5225,7.4159,7.2842,7.1837,7.0426,6.9927,6.9523,6.8619,6.7717,6.6909,6.6023,6.5157,6.4768,8.9184,8.9184,8.9184,8.9184,8.9156,8.8761,8.8564,8.8564,8.8169,8.8056,8.7886,8.7096,8.673,8.6504,8.5883,8.5458,8.5255,8.4829,8.3784,8.2183,8.1877,8.1905,8.1877,8.1849,8.1981,8.2244,8.2562,8.2613,8.2721,8.3058,8.3186,8.3343,8.3887,8.4398,8.4827,8.5704,8.6447,8.7198,8.8291,8.8968,8.9108,8.9834,9.0512,9.0986,9.112,9.1254,9.1489,9.1321,9.1198,9.102,9.1183,9.071,8.9727,8.9599,8.934,8.8789,8.8812,8.8806,8.8476,8.8348,8.8154,8.7575,8.677,8.6287,8.6094,8.5263,8.4845,8.478,8.478,8.478,8.478,8.478,8.4658,8.4484,8.4574,8.4542,8.451,8.4584,8.397,8.2643,8.176,8.1301,8.11,8.1074,8.0744,7.9699,7.942,7.9322,7.8562,7.8527,7.8377,7.8473,7.8506,7.8506,7.8506,7.8473,7.7932,7.713,7.6558,7.6199,7.5162,7.4151,7.3484,7.245,7.0977,6.9605,6.8029,6.7219,6.6993,6.6327,6.5485,6.4508,6.3462,6.2914,6.2635,8.9184,8.9012,8.9156,8.9015,8.8705,8.7631,8.7266,8.7125,8.6194,8.594,8.5996,8.5573,8.5488,8.546,8.5206,8.467,8.357,8.2667,8.2018,8.182,8.182,8.182,8.182,8.182,8.1901,8.1901,8.1901,8.1901,8.1953,8.2352,8.2483,8.2483,8.2929,8.3293,8.3577,8.4167,8.4675,8.5433,8.6225,8.6815,8.7107,8.7903,8.8686,8.9318,8.9626,8.9495,8.8876,8.9502,8.9361,8.8636,8.878,8.8608,8.779,8.76,8.7851,8.8094,8.8407,8.7949,8.7033,8.6807,8.6201,8.5456,8.4909,8.4973,8.5038,8.4845,8.478,8.469,8.469,8.469,8.469,8.4562,8.4169,8.3918,8.3653,8.3679,8.3498,8.3079,8.2069,8.0772,8.0311,8.0011,7.9267,7.9026,7.8728,7.7879,7.7571,7.7542,7.7693,7.771,7.7727,7.7842,7.794,7.7973,7.794,7.7726,7.6612,7.5534,7.4898,7.4132,7.3021,7.1357,7.0568,7.0045,6.8551,6.7246,6.5682,6.4975,6.4678,6.4336,6.3298,6.2357,6.1847,6.1472,6.0969,8.7684,8.6986,8.6931,8.6745,8.6162,8.5741,8.577,8.6024,8.5658,8.5545,8.5319,8.4585,8.419,8.4078,8.3372,8.2398,8.1515,8.1368,8.1333,8.1333,8.1631,8.182,8.182,8.182,8.182,8.182,8.182,8.182,8.182,8.1981,8.1953,8.2033,8.2113,8.2403,8.2771,8.3215,8.3654,8.4167,8.4903,8.5387,8.5583,8.6329,8.6918,8.7326,8.7035,8.654,8.5997,8.6525,8.6438,8.562,8.551,8.5595,8.544,8.5478,8.5234,8.4846,8.5145,8.5159,8.4835,8.4771,8.4698,8.4489,8.4516,8.4574,8.4748,8.478,8.4632,8.4484,8.4484,8.4367,8.4031,8.3269,8.2227,8.1078,8.1003,8.1117,8.1028,8.0954,7.9918,7.8345,7.7884,7.7647,7.7268,7.7236,7.7082,7.6984,7.6905,7.7007,7.726,7.7311,7.7361,7.7428,7.7396,7.7265,7.6854,7.527,7.3724,7.2996,7.2365,7.1606,7.0489,6.8581,6.7384,6.6983,6.6078,6.4785,6.375,6.2942,6.2564,6.2379,6.1537,6.0687,6.0347,6.0046,6.0067,8.5708,8.4808,8.4982,8.4884,8.4504,8.4057,8.4086,8.4253,8.3916,8.3664,8.3496,8.2823,8.2512,8.2402,8.1454,8.0766,8.0275,8.0684,8.0819,8.0928,8.1361,8.1551,8.1551,8.174,8.182,8.182,8.182,8.182,8.182,8.182,8.182,8.182,8.182,8.1953,8.2193,8.2483,8.2771,8.3136,8.3654,8.3965,8.4196,8.478,8.479,8.4349,8.3713,8.3217,8.2878,8.3457,8.332,8.2273,8.2391,8.2357,8.2192,8.24,8.2471,8.2476,8.2964,8.3326,8.3415,8.3566,8.3777,8.3987,8.4073,8.425,8.4367,8.4425,8.4367,8.4191,8.4132,8.3109,8.1938,8.0667,7.9726,7.885,7.8834,7.8755,7.7958,7.8384,7.8394,7.6845,7.615,7.6045,7.6089,7.6045,7.6097,7.6286,7.6286,7.6358,7.6617,7.6719,7.6771,7.6891,7.6534,7.5831,7.5139,7.2722,7.1241,7.0601,6.9659,6.8779,6.7628,6.5727,6.4755,6.4468,6.3382,6.2233,6.1838,6.104,6.0211,6.0029,5.9838,5.9094,5.8784,5.9077,5.9208,8.3264,8.275,8.2961,8.331,8.3713,8.2521,8.2021,8.2049,8.094,8.044,8.0633,8.044,8.0413,8.0194,7.9671,7.9534,7.9616,8.0001,8.0303,8.0385,8.0738,8.1035,8.1035,8.1551,8.174,8.166,8.166,8.174,8.174,8.182,8.182,8.182,8.182,8.182,8.1901,8.1901,8.2033,8.2403,8.2483,8.2613,8.295,8.317,8.2267,8.0743,8.0111,7.9985,7.993,8.0534,8.0312,7.9009,7.9304,7.9094,7.8342,7.8869,7.9965,8.1229,8.1823,8.2131,8.2311,8.2522,8.2858,8.3013,8.2999,8.3368,8.3109,8.3141,8.3141,8.3459,8.2935,8.1328,7.8067,7.7211,7.6965,7.6929,7.732,7.6318,7.4028,7.5781,7.6682,7.6345,7.5834,7.5569,7.5431,7.5431,7.5431,7.5431,7.5431,7.5516,7.5697,7.5622,7.5736,7.5823,7.4922,7.3248,7.1066,6.9548,6.9075,6.8112,6.6587,6.561,6.4319,6.3185,6.2555,6.1754,6.0715,5.9978,5.9695,5.9161,5.8406,5.8049,5.7954,5.7923,5.786,5.8062,5.8189,8.0816,8.0595,7.9857,7.9577,7.9454,7.9412,7.9611,7.9834,7.9587,7.945,7.945,7.945,7.8783,7.7575,7.7405,7.7464,7.7776,7.8225,7.884,7.9533,7.9891,8.022,8.0602,8.0793,8.0821,8.0875,8.1118,8.1252,8.1333,8.1631,8.182,8.182,8.182,8.182,8.182,8.182,8.1901,8.1981,8.1981,8.2061,8.1909,8.0428,7.9264,7.8799,7.8868,7.8571,7.776,7.8145,7.7759,7.649,7.6575,7.6614,7.6647,7.7313,7.7689,7.7795,7.7945,7.82,7.8566,7.8658,7.8929,7.9379,7.9498,7.9703,8.0023,8.0108,8.0023,7.9762,7.8989,7.7492,7.4955,7.4651,7.4284,7.34,7.3573,7.3599,7.2658,7.378,7.5075,7.5579,7.5325,7.5377,7.513,7.4851,7.4625,7.4625,7.472,7.49,7.486,7.4029,7.3481,7.3544,7.2434,7.0628,6.8534,6.6669,6.4997,6.4049,6.3262,6.224,6.1665,6.052,5.9684,5.9621,5.8384,5.7689,5.772,5.7596,5.7026,5.6995,5.6964,5.6964,5.6978,5.7008,5.7141,7.7664,7.726,7.699,7.701,7.7203,7.7464,7.7718,7.7999,7.7999,7.7999,7.7915,7.7123,7.6238,7.5195,7.571,7.597,7.6264,7.6866,7.7575,7.8225,7.8729,7.9119,7.9588,7.9891,8.0165,8.0193,8.0575,8.0819,8.0847,8.1118,8.1309,8.1228,8.1228,8.1337,8.1172,8.0804,8.0631,8.0791,8.0285,7.9924,7.9542,7.7929,7.6966,7.6937,7.6921,7.6494,7.5887,7.6006,7.5554,7.4357,7.4172,7.4157,7.4024,7.4592,7.49,7.5038,7.5212,7.5552,7.605,7.6236,7.6482,7.6909,7.7151,7.7482,7.7746,7.7923,7.7189,7.5643,7.4468,7.3526,7.2436,7.2256,7.1986,7.1355,7.099,7.1049,7.1085,7.1614,7.2886,7.467,7.3773,7.2748,7.2618,7.2378,7.2246,7.2246,7.2184,7.2121,7.2184,7.156,7.1052,7.0793,6.847,6.6328,6.4878,6.2676,6.162,6.1133,6.0238,5.9433,5.922,5.8275,5.7451,5.7451,5.6719,5.6201,5.6003,5.6049,5.6186,5.6231,5.6231,5.6277,5.6186,5.6095,5.5789,7.4304,7.357,7.4446,7.5273,7.6031,7.6117,7.6117,7.6144,7.6144,7.6039,7.5438,7.3921,7.3138,7.3214,7.4009,7.4334,7.4509,7.537,7.5981,7.6415,7.6973,7.7396,7.7796,7.8653,7.9121,7.9121,7.9477,7.9558,7.9639,7.9832,7.9969,8.0052,8.0052,7.9941,7.9967,7.8995,7.8734,7.9024,7.7604,7.6646,7.633,7.5636,7.5277,7.524,7.4388,7.3961,7.3792,7.3949,7.3413,7.2482,7.2312,7.1945,7.1302,7.1514,7.2077,7.2836,7.3295,7.3661,7.4005,7.4414,7.4485,7.4728,7.5165,7.5656,7.5748,7.5717,7.4225,7.1325,7.0092,6.9819,6.9758,6.9516,6.9457,6.9465,6.9052,6.8784,6.8962,6.8876,7.0077,7.3779,7.1319,6.9142,6.9451,6.9265,6.8924,6.9084,6.9146,6.9146,6.9084,6.8716,6.8494,6.7343,6.4242,6.1345,6.0822,5.9664,5.9027,5.8788,5.7948,5.7355,5.7024,5.6273,5.5479,5.5668,5.5168,5.5056,5.5073,5.5261,5.5402,5.5402,5.5572,5.5711,5.5495,5.5215,5.4617,7.2604,7.2469,7.2674,7.3123,7.3684,7.3989,7.4115,7.414,7.4115,7.2817,7.0786,7.0201,7.0028,7.0028,7.0226,7.0573,7.0807,7.1039,7.1834,7.2824,7.2992,7.352,7.4294,7.4459,7.4761,7.5034,7.5469,7.5902,7.6279,7.6573,7.6678,7.6705,7.6678,7.6865,7.7156,7.6907,7.6927,7.713,7.4334,7.2956,7.3461,7.3316,7.2932,7.2367,7.2397,7.1997,7.1043,7.1241,7.1268,7.1043,7.1015,7.0902,7.0758,7.1075,7.0893,7.0286,7.0796,7.0346,6.8617,6.8694,6.9003,6.9248,7.0624,7.1526,7.144,6.9408,6.724,6.635,6.62,6.599,6.5838,6.5838,6.6019,6.6262,6.6356,6.5944,6.4582,6.6286,6.8631,7.0116,6.949,6.8429,6.8301,6.7994,6.7595,6.7366,6.7491,6.7491,6.7341,6.6531,6.4836,6.2713,6.027,5.8722,5.8522,5.7492,5.6785,5.6637,5.5833,5.5212,5.4927,5.4672,5.4311,5.4136,5.4069,5.402,5.3991,5.4185,5.4359,5.4455,5.4646,5.4724,5.4455,5.4214,5.365,6.9862,7.0016,7.0219,7.051,7.0777,7.1232,7.1407,7.1382,7.0942,6.9765,6.8288,6.8263,6.8263,6.8263,6.8523,6.8808,6.8956,6.919,6.9876,7.07,7.0725,7.1147,7.1844,7.226,7.2592,7.2839,7.3388,7.3877,7.4174,7.439,7.4417,7.4444,7.4444,7.4525,7.4739,7.4411,7.443,7.4741,7.0934,6.9198,6.9823,7.0047,7.0116,6.9995,7.0427,7.028,6.9851,7.0034,6.9852,6.9235,6.9235,6.9052,6.8655,6.8803,6.8468,6.7617,6.7922,6.7319,6.5522,6.5591,6.5803,6.5985,6.6958,6.7024,6.5706,6.4505,6.3774,6.3713,6.4172,6.44,6.419,6.4368,6.4489,6.467,6.4624,6.4013,6.3105,6.4363,6.5596,6.6325,6.6086,6.5681,6.5517,6.5241,6.4963,6.4852,6.4881,6.4852,6.4736,6.2804,6.049,5.888,5.7253,5.6394,5.6168,5.5054,5.4361,5.4375,5.3839,5.3511,5.3531,5.3326,5.3198,5.3049,5.2929,5.2879,5.2858,5.3206,5.3433,5.3531,5.3777,5.3874,5.3581,5.3433,5.2908,6.7021,6.7413,6.7876,6.8051,6.8138,6.8635,6.8783,6.8622,6.7189,6.6671,6.6818,6.6964,6.695,6.7037,6.7521,6.7695,6.7695,6.8188,6.8568,6.8885,6.8885,6.9166,6.97,7.0517,7.0908,7.1018,7.1763,7.2201,7.2201,7.2201,7.2096,7.1938,7.1991,7.1833,7.1731,7.1237,7.1024,7.1127,6.7615,6.5959,6.6431,6.6801,6.7234,6.7869,6.8299,6.86,6.8859,6.8874,6.8402,6.7417,6.7292,6.7025,6.629,6.6133,6.5873,6.5408,6.5081,6.4466,6.3578,6.332,6.3206,6.3266,6.3795,6.2583,5.9314,6.0227,6.1114,6.1343,6.2257,6.3174,6.3174,6.3263,6.3263,6.3182,6.2791,6.23,6.1751,6.1787,6.1961,6.2403,6.2099,6.1848,6.1931,6.1744,6.1581,6.1472,6.1527,6.1472,6.0959,5.8565,5.6647,5.6028,5.4846,5.3897,5.3727,5.2619,5.2173,5.2157,5.2202,5.2269,5.2484,5.2247,5.2095,5.1987,5.1812,5.1737,5.1765,5.2253,5.2556,5.2657,5.3007,5.3177,5.2757,5.2455,5.2049,6.6507,6.6997,6.7085,6.7262,6.7589,6.7676,6.7739,6.7494,0.0,0.0,0.0,6.4475,6.495,6.4925,6.495,6.5034,6.5034,6.5118,6.5345,6.5739,6.5739,6.5989,6.6379,6.6544,6.6874,6.7227,6.7391,6.7636,6.7936,6.7936,6.7582,6.6816,6.6634,6.6226,6.5329,6.5844,6.5663,6.4711,6.42,6.4428,6.5187,6.5338,6.5389,6.553,6.5808,6.5677,6.5174,6.5463,6.5587,6.5694,6.5694,6.5814,6.5929,6.5284,6.4808,6.4629,6.3024,6.1486,6.0388,5.931,5.8716,5.8744,5.9969,5.8888,5.4584,5.4556,5.5115,5.6066,5.7353,5.8168,5.8371,5.9505,6.0051,5.9258,5.9254,5.8563,5.6994,5.7446,5.8594,5.9216,5.8924,5.8538,5.8807,5.8655,5.8244,5.8167,5.8424,5.822,5.7569,5.6736,5.5536,5.4415,5.2897,5.1716,5.1632,5.1257,5.0992,5.1069,5.1249,5.1273,5.1146,5.1069,5.0937,5.078,5.0675,5.0727,5.0912,5.1249,5.148,5.1714,5.2021,5.2123,5.1737,5.1066,5.0439,6.2837,6.3308,6.3585,6.3753,0.0,6.4147,6.4206,6.406,6.1937,6.1327,6.1839,6.2376,6.2645,6.262,6.2645,6.2645,6.2645,6.2645,6.2807,6.2945,6.2921,6.3083,6.3244,6.3511,6.3753,6.3993,6.4208,6.4473,6.4607,6.4607,6.433,6.3879,6.3879,6.3524,6.2969,6.3458,6.2747,6.1005,6.1206,6.1608,6.2209,6.2284,6.2569,6.316,6.325,0.0,0.0,0.0,0.0,0.0,0.0,0.0,0.0,0.0,0.0,6.1501,5.9869,5.8168,5.6347,5.4497,5.3794,5.4329,5.4602,5.3012,4.9333,5.0218,5.154,5.2759,5.4089,5.52,5.587,5.6681,5.6907,5.6515,5.6737,5.6617,5.5763,5.62,5.6894,5.7425,5.7277,5.7099,5.7229,5.7123,5.6964,5.6857,5.6964,5.6968,5.6504,5.4783,5.3186,5.2198,5.1083,5.057,5.0517,5.028,5.0147,5.028,5.0333,5.0333,5.0333,5.0254,5.0121,5.0014,4.9934,5.0014,5.0174,5.0305,5.0595,5.0727,5.0937,5.0989,5.0597,5.0147,4.9692,5.9247,5.9731,5.9884,6.0172,6.0428,5.9842,5.958,5.9634,5.9634,5.9756,5.9975,6.0169,6.037,6.0345,6.0424,6.0424,6.0448,6.0644,6.0741,6.0717,6.0936,6.101,6.1089,6.143,6.1691,6.1666,6.1902,6.2034,6.2034,6.2034,6.1836,6.1439,6.1517,6.1392,6.1194,0.0,0.0,0.0,5.861,5.8957,5.9451,5.9451,6.0014,6.1077,6.1077,0.0,6.1616,6.0935,6.0563,6.0599,5.9859,0.0,0.0,0.0,0.0,0.0,0.0,0.0,0.0,0.0,0.0,0.0,4.7404,4.5423,4.3816,4.5717,4.7792,4.9495,5.1111,5.2513,5.3398,5.3758,5.3896,5.3701,5.4002,5.4189,5.4208,5.4362,5.4769,5.5208,5.5208,5.5265,5.538,5.5579,5.5469,5.5277,5.5444,5.5302,5.4574,5.1892,5.0085,4.9874,4.9798,4.9692,4.9638,4.9395,4.926,4.9504,4.9341,4.9314,4.9423,4.9368,4.9232,4.9232,4.926,4.9314,4.9368,4.9611,4.9799,4.988,5.0094,5.0041,4.9449,4.9232,4.9042,5.8866,5.9095,5.8276,5.8919,6.0131,5.6164,5.4431,5.4431,5.4407,5.4959,5.5993,5.7309,5.7821,5.7821,5.8149,5.8301,5.8374,5.9277,5.9692,5.9765,6.0619,6.101,6.101,6.1113,6.1089,6.1113,6.0796,6.0661,6.074,6.074,5.9691,5.7872,5.8276,5.7963,5.691,5.535,5.4937,5.5561,5.6825,5.7813,5.861,5.8685,5.9056,5.9867,5.9892,5.9631,5.9044,5.9217,5.9052,5.8572,5.8566,5.8575,5.8321,5.7566,5.6318,0.0,5.1478,0.0,0.0,0.0,0.0,0.0,0.0,0.0,0.0,3.9392,4.1567,4.4569,4.7053,4.8582,4.8742,4.9983,5.0413,4.9688,4.9728,4.9439,4.8498,4.8557,4.9194,5.0451,5.0463,5.0809,5.1943,5.1928,5.1747,5.1565,5.167,5.0792,4.823,4.7829,4.7842,4.7789,4.8324,4.8479,4.834,4.8197,4.8057,4.8109,4.8109,4.8024,4.8191,4.8135,4.8106,4.808,4.8301,4.8467,4.8687,4.8934,4.9233,4.9476,4.9423,4.9127,4.8393,4.7764,4.7582,5.5146,5.5329,5.5063,5.4795,5.4451,5.2398,5.1992,5.2753,5.3232,5.3735,5.4262,5.4408,5.4143,5.3661,5.3921,5.4331,5.4914,5.5617,5.6226,5.6812,5.7276,5.7471,5.7471,5.7247,5.7172,5.7147,5.6772,5.6546,5.6546,5.6546,5.6065,5.5128,5.5373,5.4408,5.2421,5.209,5.2587,5.3896,5.5141,5.6405,5.7689,5.7177,5.7205,5.8037,5.7537,5.7132,5.6985,5.6616,5.6311,5.6143,5.534,5.4645,5.4126,5.2819,5.0882,0.0,0.0,0.0,0.0,0.0,0.0,0.0,0.0,0.0,0.0,0.0,3.5976,3.9402,4.1998,4.3738,4.4302,4.5136,4.5495,4.5082,4.5071,4.4999,4.4552,4.5143,4.5887,4.6623,4.7204,4.7757,4.8378,4.8437,4.8257,4.8132,4.7463,4.6389,4.5053,4.5081,4.5473,4.5499,4.5891,4.6178,4.6097,4.6536,4.6842,4.692,4.7387,4.7802,4.7802,4.7802,4.7802,4.7802,4.7913,4.8024,4.8191,4.8275,4.8467,4.85,4.7495,4.6255,4.5883,4.5348,4.4914,5.1699,5.1396,5.0652,4.9477,4.818,4.8348,4.9135,5.0281,5.1211,5.1496,5.1304,5.0611,4.9773,4.8926,4.923,4.985,5.0863,5.1399,5.2385,5.3579,5.3941,5.4088,5.4331,5.4022,5.3878,5.3807,5.3424,5.3135,5.3063,5.3135,5.285,5.228,5.1404,4.9854,4.793,4.8974,5.0252,5.173,5.2932,5.4291,5.5915,5.5492,5.5521,5.6077,5.5459,5.5058,5.5116,5.4187,5.3694,5.3569,5.1875,5.0523,4.9654,4.7857,0.0,0.0,0.0,0.0,0.0,0.0,0.0,0.0,0.0,2.5651,2.8896,0.0,3.105,0.0,3.7369,3.9081,3.9521,4.0044,0.0,0.0,4.0061,4.0143,4.0386,4.1353,4.2224,4.2752,4.3749,4.4587,4.5121,4.5101,4.4785,4.381,4.2828,4.2118,4.2118,4.2679,4.319,4.3241,4.3653,4.399,4.4171,4.4761,4.5248,4.5273,4.5967,4.6587,4.6587,4.6613,4.6613,4.6668,4.6668,4.6697,4.6646,4.6752,4.6704,4.6342,4.4723,4.323,4.3493,4.3124,4.2699,4.9925,4.8743,4.4733,4.2996,4.2904,4.3824,4.445,4.4826,4.5887,4.5947,4.5402,4.5308,4.4908,4.427,4.4512,0.0,4.6237,4.7258,4.8752,5.0696,5.1816,5.2752,5.352,5.3544,5.3376,5.3134,5.2579,5.2264,5.1949,5.1949,5.1065,4.9113,4.545,4.3479,4.3392,4.5168,4.6723,4.8044,4.9472,5.0988,5.2621,5.3663,5.4214,5.4285,5.4522,5.4222,5.3314,5.2507,5.1672,5.07,4.8932,4.7203,4.5485,0.0,0.0,0.0,0.0,0.0,0.0,0.0,0.0,0.0,0.0,0.0,0.0,0.0,0.0,0.0,3.3765,0.0,3.386,3.5015,0.0,0.0,0.0,3.4673,3.4714,3.5784,3.7032,3.8261,0.0,0.0,4.2414,4.2472,4.0971,3.7425,3.7649,3.8084,3.7869,3.9778,4.1176,4.0819,4.1972,4.2912,4.2773,4.2817,4.2812,4.2887,4.3109,4.3185,4.3238,4.3185,4.316,4.3185,4.3345,4.3558,4.3533,4.354,4.3363,4.1679,4.1582,4.1961,4.2056,4.1633,4.113,4.4367,4.1078,3.8933,3.8175,3.8512,3.9642,4.0537,4.1217,4.1608,4.2027,4.2272,4.1082,4.0352,4.0128,3.9531,0.0,0.0,0.0,4.4104,4.6102,4.7232,4.8209,4.9041,4.8886,4.8662,4.8391,4.7913,4.7547,4.7158,4.6681,4.4508,4.0737,0.0,0.0,3.9956,4.2223,4.4078,4.5409,4.7357,4.8772,4.9688,5.1451,5.2418,5.2374,5.2198,5.1631,5.0769,4.9832,4.8598,4.7111,4.471,4.2187,0.0,0.0,0.0,0.0,0.0,0.0,0.0,0.0,0.0,0.0,0.0,1.8472,2.0026,0.0,0.0,0.0,2.7265,2.8625,2.9352,3.0603,0.0,0.0,0.0,0.0,0.0,0.0,0.0,3.2551,3.4633,3.6382,3.7299,3.6394,3.5566,3.5269,3.5563,3.5737,3.5573,0.0,3.724,3.7143,3.7704,3.8267,3.8438,3.834,3.8538,3.9279,3.9973,4.0394,4.0418,4.0394,4.0418,4.0418,4.0496,4.0547,4.0547,3.8489,3.6632,3.6148,3.6609,3.7159,3.7479,3.7131,3.673,3.8038,0.0,0.0,0.0,0.0,3.51,3.6073,3.6839,3.7135,3.7554,3.7951,3.6489,0.0,0.0,0.0,0.0,0.0,0.0,3.9017,4.1013,4.2239,4.3335,4.4283,4.4225,4.4042,4.3762,4.3485,4.3004,4.2324,3.9844,3.6774,3.3437,0.0,0.0,0.0,0.0,4.1092,4.2751,4.4872,4.6405,4.7249,4.8934,4.9901,5.016,4.9823,4.9277,4.8465,4.6898,4.5208,4.3407,4.027,0.0,0.0,0.0,0.0,0.0,0.0,0.0,0.0,0.0,0.0,0.0,0.0,0.0,0.0,0.0,0.0,0.0,0.0,0.0,2.5183,2.646,2.6687,0.0,0.0,0.0,0.0,0.0,0.0,0.0,0.0,0.0,3.1391,3.0911,3.1244,0.0,0.0,3.3889,3.3658,3.4104,3.4433,3.4269,3.4526,0.0,3.4966,3.499,3.5302,3.6197,3.6973,3.7362,3.7119,3.7022,3.6973,3.6656,3.6631,3.6098,3.4797,3.2163,3.0694,3.0947,3.17,3.24,3.2956,3.2796,3.2541,0.0,0.0,0.0,0.0,0.0,0.0,0.0,0.0,3.1997,3.2052,0.0,3.1321,0.0,0.0,0.0,0.0,0.0,3.2093,0.0,0.0,3.7075,3.8456,3.9445,4.0209,4.0446,4.0199,4.0112,3.9404,3.7851,3.1756,0.0,0.0,0.0,0.0,0.0,0.0,3.7333,3.9776,4.1626,4.3456,4.533,4.5826,4.6568,4.7514,4.7817,4.7483,4.6677,4.3867,4.1452,3.9654,3.5671,0.0,0.0,0.0,0.0,0.0,0.0,0.0,0.0,0.0,0.0,0.0,0.0,0.0,0.0,0.0,0.0,0.0,0.0,0.0,0.0,2.2499,0.0,0.0,0.0,0.0,0.0,0.0,0.0,0.0,0.0,0.0,2.4764,2.6917,2.89,2.9486,0.0,0.0,0.0,0.0,3.3466,3.2918,3.3323,3.3728,3.3987,3.4034,3.4152,3.4387,0.0,0.0,3.2834,3.2646,3.2361,3.15,3.1377,2.9786,2.5064,2.488,2.563,2.6496,2.7501,2.8508,2.9538,2.9672,2.9696,0.0,0.0,0.0,0.0,0.0,0.0,0.0,0.0,0.0,2.6166,0.0,2.5852,0.0,0.0,0.0,0.0,0.0,0.0,0.0,0.0,3.1267,3.2643,3.3514,3.3836,3.3791,0.0,3.3562,3.1568,0.0,0.0,0.0,0.0,0.0,0.0,0.0,0.0,3.5035,3.8098,4.0197,4.1939,4.3339,4.3985,4.4762,4.5581,4.5691,4.4691,4.2636,3.973,3.6748,0.0,0.0,0.0,0.0,0.0,0.0,0.0,0.0,0.0,0.0,0.0,0.0,0.0,0.0,0.0,0.0,0.0,0.0,0.0,0.0,0.0,0.0,0.0,1.9236,0.0,0.0,0.0,0.0,0.0,0.0,0.0,0.0,0.0,2.167,2.3437,2.5446,2.7002,2.8306,2.9254,2.9499,0.0,0.0,0.0,0.0,0.0,0.0,0.0,3.0801,3.0316,3.0027,2.9512,2.8538,2.7918,2.7225,2.6427,0.0,0.0,2.0774,2.0731,2.1718,2.2693,2.3625,2.4498,2.4941,2.5045,2.5045,0.0,0.0,0.0,0.0,0.0,0.0,0.0,0.0,0.0,2.0806,2.1336,0.0,0.0,0.0,0.0,0.0,0.0,0.0,0.0,0.0,0.0,0.0,2.7713,2.7956,0.0,0.0,0.0,0.0,0.0,0.0,0.0,0.0,0.0,0.0,0.0,0.0,3.2963,3.66,3.8739,4.0481,4.198,4.2612,4.3254,4.3891,4.3798,4.2502,3.9872,0.0,0.0,0.0,0.0,0.0,0.0,0.0,0.0,0.0,0.0,0.0,0.0,0.0,0.0,0.0,0.0,0.0,0.0,0.0,0.0,0.0,0.0,0.0,0.0,0.0,1.6517,0.0,0.0,0.0,0.0,0.0,0.0,0.0,0.0,0.0,0.0,0.0,2.2549,2.4321,2.5871,2.7009,2.7541,2.7814,2.8027,0.0,0.0,0.0,0.0,0.0,0.0,0.0,0.0,0.0,0.0,0.0,0.0,0.0,0.0,1.932,1.6785,1.6798,1.7531,1.8547,0.0,0.0,0.0,0.0,0.0,0.0,0.0,0.0,0.0,0.0,0.0,0.0,0.0,0.0,0.0,1.6122,0.0,0.0,1.6143,0.0,0.0,0.0,0.0,0.0,0.0,0.0,0.0,0.0,0.0,0.0,0.0,0.0,0.0,0.0,0.0,0.0,0.0,0.0,0.0,0.0,0.0,3.0964,3.5436,3.7189,3.9101,4.1086,4.1518,4.1925,4.2236,4.2166,4.0955,3.862,0.0,0.0,0.0,0.0,0.0,0.0,0.0,0.0,0.0,0.0,0.0,0.0,0.0,0.0,0.0,0.0,0.0,0.0,0.0,0.0,0.0,0.0,0.0,0.0,0.0,0.0,1.4652,1.5398,1.5579,0.0,0.0,0.0,0.0,0.0,0.0,0.0,0.0,0.0,0.0,2.3846,2.5614,2.5977,2.6677,2.712,2.7207,2.7394,2.7534,2.7559,2.7044,2.6516,0.0,0.0,0.0,0.0,0.0,0.0,0.0,0.0,0.0,0.0,0.0,0.0,0.0,0.0,0.0,0.0,0.0,0.0,0.0,0.0,0.0,0.0,0.0,0.0,0.0,0.0,0.0,0.0,0.0,0.0,0.0,0.0,0.0,0.0,0.0,0.0,0.0,0.0,0.0,0.0,0.0,0.0,0.0,0.0,0.0,0.0,0.0,0.0,0.0,0.0,0.0,0.0,0.0,0.0,2.935,3.3595,3.5783,3.7853,3.9978,4.0072,4.0161,4.0169,3.9276,3.7745,0.0,0.0,0.0,0.0,0.0,0.0,0.0,0.0,0.0,0.0,0.0,0.0,0.0,0.0,0.0,0.0,0.0,0.0,0.0,0.0,0.0,0.0,0.0,0.0,0.0,0.0,0.0,0.0,1.4294,1.4299,1.3937,0.0,0.0,0.0,0.0,0.0,0.0,0.0,0.0,0.0,0.0,2.2207,2.4232,2.4836,2.5391,2.6217,2.6456,2.6392,2.6009,2.5659,2.4824,2.2971,0.0,0.0,0.0,0.0,0.0,0.0,0.0,0.0,0.0,0.0,0.0,0.0,0.0,0.0,0.0,0.0,0.0,0.0,0.0,0.0,0.0,0.0,0.0,0.0,0.0,0.0,0.0,0.0,0.0,0.0,0.0,0.0,0.0,0.0,0.0,0.0,0.0,0.0,0.0,0.0,0.0,0.0,0.0,0.0,0.0,0.0,0.0,0.0,0.0,0.0,0.0,0.0,0.0,2.8048,3.2367,3.4755,3.6814,3.8595,3.8687,3.8603,3.8432,3.7092,3.517,0.0,0.0,0.0,0.0,0.0,0.0,0.0,0.0,0.0,0.0,0.0,0.0,0.0,0.0,0.0,0.0,0.0,0.0,0.0,0.0,0.0,0.0,0.0,0.0,0.0,0.0,0.0,0.0,1.2763,1.3041,1.3142,0.0,0.0,0.0,0.0,0.0,0.0,0.0,0.0,0.0,0.0,1.9895,2.1803,2.2682,0.0,0.0,2.4581,2.456,2.4249,2.3514,2.2409,2.0826,1.9263,0.0,0.0,0.0,0.0,0.0,0.0,0.0,0.0,0.0,0.0,0.0,0.0,0.0,0.0,0.0,0.0,0.0,0.0,0.0,0.0,0.0,0.0,0.0,0.0,0.0,0.0,0.0,0.0,0.0,0.0,0.0,0.0,0.0,0.0,0.0,0.0,0.0,0.0,0.0,0.0,0.0,0.0,0.0,0.0,0.0,0.0,0.0,0.0,0.0,0.0,0.0,0.0,0.0,3.1377,3.3797,3.5785,3.7294,3.7365,3.7127,3.6735,3.5431,3.3196,0.0,0.0,0.0,0.0,0.0,0.0,0.0,0.0,0.0,0.0,0.0,0.0,0.0,0.0,0.0,0.0,0.0,0.0,0.0,0.0,0.0,0.0,0.0,0.0,0.0,0.0,0.0,0.0,0.0,0.0,0.0,0.0,0.0,0.0,0.0,0.0,0.0,0.0,0.0,0.0,0.0,1.8319,1.8884,2.0321,2.1554,0.0,2.2258,2.2287,2.2301,2.0857,1.9612,1.9293,0.0,0.0,0.0,0.0,0.0,0.0,0.0,0.0,0.0,0.0,0.0,0.0,0.0,0.0,0.0,0.0,0.0,0.0,0.0,0.0,0.0,0.0,0.0,0.0,0.0,0.0,0.0,0.0,0.0,0.0,0.0,0.0,0.0,0.0,0.0,0.0,0.0,0.0,0.0,0.0,0.0,0.0,0.0,0.0,0.0,0.0,0.0,0.0,0.0,0.0,0.0,0.0,0.0,0.0,2.9171,3.2017,3.411,3.5547,3.5598,3.5279,3.4719,3.3273,0.0,0.0,0.0,0.0,0.0,0.0,0.0,0.0,0.0,0.0,0.0,0.0,0.0,0.0,0.0,0.0,0.0,0.0,0.0,0.0,0.0,0.0,0.0,0.0,0.0,0.0,0.0,0.8638,0.0,0.0,0.0,0.0,0.0,0.0,0.0,0.0,0.0,0.0,0.0,0.0,0.0,0.0,1.5572,1.7618,1.8499,1.9465,0.0,0.0,2.0941,1.9833,1.9153,1.7984,0.0,0.0,0.0,0.0,0.0,0.0,0.0,0.0,0.0,0.0,0.0,0.0,0.0,0.0,0.0,0.0,0.0,0.0,0.0,0.0,0.0,0.0,0.0,0.0,0.0,0.0,0.0,0.0,0.0,0.0,0.0,0.0,0.0,0.0,0.0,0.0,0.0,0.0,0.0,0.0,0.0,0.0,0.0,0.0,0.0,0.0,0.0,0.0,0.0,0.0,0.0,0.0,0.0,0.0,2.3499,2.7452,3.0064,3.2208,3.3805,3.387,3.3597,3.2994,3.1492,2.9225,0.0,0.0,0.0,0.0,0.0,0.0,0.0,0.0,0.0,0.0,0.0,0.0,0.0,0.0,0.0,0.0,0.0,0.0,0.0,0.0,0.0,0.0,0.0,0.0,0.0,0.0,0.0,0.0,0.0,0.0,0.0,0.0,0.0,0.0,0.0,0.0,0.0,0.0,0.0,0.0,0.0,0.0,1.5307,1.6103,0.0,0.0,0.0,1.805,1.7305,0.0,0.0,0.0,0.0,0.0,0.0,0.0,0.0,0.0,0.0,0.0,0.0,0.0,0.0,0.0,0.0,0.0,0.0,0.0,0.0,0.0,0.0,0.0,0.0,0.0,0.0,0.0,0.0,0.0,0.0,0.0,0.0,0.0,0.0,0.0,0.0,0.0,0.0,0.0,0.0,0.0,0.0,0.0,0.0,0.0,0.0,0.0,0.0,0.0,0.0,0.0,0.0,0.0,0.0,0.0,0.0,0.0,2.5859,2.8197,3.0241,3.2052,3.2251,3.2044,3.1456,3.0009,2.7662,0.0,0.0,0.0,0.0,0.0,0.0,0.0,0.0,0.0,0.0,0.0,0.0,0.0,0.0,0.0,0.0,0.0,0.0,0.0,0.0,0.0,0.0,0.0,0.0,0.0,0.0,0.0,0.0,0.0,0.0,0.0,0.0,0.0,0.0,0.0,0.0,0.0,0.0,0.0,0.0,0.0,1.1929,1.2668,1.3581,1.4249,0.0,0.0,1.4676,1.482,1.4006,0.0,0.0,0.0,0.0,0.0,0.0,0.0,0.0,0.0,0.0,0.0,0.0,0.0,0.0,0.0,0.0,0.0,0.0,0.0,0.0,0.0,0.0,0.0,0.0,0.0,0.0,0.0,0.0,0.0,0.0,0.0,0.0,0.0,0.0,0.0,0.0,0.0,0.0,0.0,0.0,0.0,0.0,0.0,0.0,0.0,0.0,0.0,0.0,0.0,0.0,0.0,0.0,0.0,0.0,0.0,0.0,2.329,2.6501,2.8852,3.0254,3.1148,3.112,3.032,2.8884,2.6579,0.0,0.0,0.0,0.0,0.0,0.0,0.0,0.0,0.0,0.0,0.0,0.0,0.0,0.0,0.0,0.0,0.0,0.0,0.0,0.0,0.0,0.0,0.0,0.0,0.0,0.0,0.0,0.0,0.0,0.0,0.0,0.0,0.0,0.0,0.0,0.0,0.0,0.0,0.0,0.0,0.0,1.0622,1.1382,1.2187,0.0,0.0,0.0,0.0,1.3083,1.2454,0.0,0.0,0.0,0.0,0.0,0.0,0.0,0.0,0.0,0.0,0.0,0.0,0.0,0.0,0.0,0.0,0.0,0.0,0.0,0.0,0.0,0.0,0.0,0.0,0.0,0.0,0.0,0.0,0.0,0.0,0.0,0.0,0.0,0.0,0.0,0.0,0.0,0.0,0.0,0.0,0.0,0.0,0.0,0.0,0.0,0.0,0.0,0.0,0.0,0.0,0.0,0.0,0.0,0.0,0.0,0.0,2.178,2.4555,2.6843,2.8722,2.9813,2.9937,2.8965,2.7583,2.5447,0.0,0.0,0.0,0.0,0.0,0.0,0.0,0.0,0.0,0.0,0.0,0.0,0.0,0.0,0.0,0.0,0.0,0.0,0.0,0.0,0.0,0.0,0.0,0.0,0.0,0.0,0.0,0.0,0.0,0.0,0.0,0.0,0.0,0.0,0.0,0.0,0.0,0.0,0.0,0.0,0.8231,0.8988,0.9768,0.0,0.0,0.0,0.0,0.0,0.0,1.0482,0.9917,0.0,0.0,0.0,0.0,0.0,0.0,0.0,0.0,0.0,0.0,0.0,0.0,0.0,0.0,0.0,0.0,0.0,0.0,0.0,0.0,0.0,0.0,0.0,0.0,0.0,0.0,0.0,0.0,0.0,0.0,0.0,0.0,0.0,0.0,0.0,0.0,0.0,0.0,0.0,0.0,0.0,0.0,0.0,0.0,0.0,0.0,0.0,0.0,0.0,0.0,0.0,0.0,0.0,0.0,0.0,2.0435,2.255,2.4875,2.7395,2.8541,2.8733,2.7799,2.6424,2.4214,2.1145,0.0,0.0,0.0,0.0,0.0,0.0,0.0,0.0,0.0,0.0,0.0,0.0,0.0,0.0,0.0,0.0,0.0,0.0,0.0,0.0,0.0,0.0,0.0,0.0,0.0,0.0,0.0,0.0,0.0,0.0,0.0,0.0,0.0,0.0,0.0,0.0,0.0,0.0,0.0,0.7107,0.7525,0.0,0.0,0.0,0.0,0.0,0.0,0.0,0.0,0.8267,0.0,0.0,0.0,0.0,0.0,0.0,0.0,0.0,0.0,0.0,0.0,0.0,0.0,0.0,0.0,0.0,0.0,0.0,0.0,0.0,0.0,0.0,0.0,0.0,0.0,0.0,0.0,0.0,0.0,0.0,0.0,0.0,0.0,0.0,0.0,0.0,0.0,0.0,0.0,0.0,0.0,0.0,0.0,0.0,0.0,0.0,0.0,0.0,0.0,0.0,0.0,0.0,0.0,0.0,0.0,0.0,2.078,2.3598,2.5941,2.7429,2.7829,2.7024,2.5629,2.2979,1.9075,0.0,0.0,0.0,0.0,0.0,0.0,0.0,0.0,0.0,0.0,0.0,0.0,0.0,0.0,0.0,0.0,0.0,0.0,0.0,0.0,0.0,0.0,0.0,0.0,0.0,0.0,0.0,0.0,0.0,0.0,0.0,0.0,0.0,0.0,0.0,0.0,0.0,0.0,0.5716,0.6316,0.0,0.0,0.0,0.0,0.0,0.0,0.0,0.0,0.7652,0.0,0.0,0.0,0.0,0.0,0.0,0.0,0.0,0.0,0.0,0.0,0.0,0.0,0.0,0.0,0.0,0.0,0.0,0.0,0.0,0.0,0.0,0.0,0.0,0.0,0.0,0.0,0.0,0.0,0.0,0.0,0.0,0.0,0.0,0.0,0.0,0.0,0.0,0.0,0.0,0.0,0.0,0.0,0.0,0.0,0.0,0.0,0.0,0.0,0.0,0.0,0.0,0.0,0.0,0.0,0.0,0.0,0.0,2.1839,2.3993,2.5942,2.648,2.5479,2.3446,2.0873,0.0,0.0,0.0,0.0,0.0,0.0,0.0,0.0,0.0,0.0,0.0,0.0,0.0,0.0,0.0,0.0,0.0,0.0,0.0,0.0,0.0,0.0,0.0,0.0,0.0,0.0,0.0,0.0,0.0,0.0,0.0,0.0,0.0,0.0,0.0,0.0,0.0,0.0,0.0,0.0,0.0,0.0,0.0,0.0,0.0,0.0,0.0,0.0,0.0,0.0,0.0,0.0,0.0,0.0,0.0,0.0,0.0,0.0,0.0,0.0,0.0,0.0,0.0,0.0,0.0,0.0,0.0,0.0,0.0,0.0,0.0,0.0,0.0,0.0,0.0,0.0,0.0,0.0,0.0,0.0,0.0,0.0,0.0,0.0,0.0,0.0,0.0,0.0,0.0,0.0,0.0,0.0,0.0,0.0,0.0,0.0,0.0,0.0,0.0,0.0,0.0,0.0,0.0,0.0,0.0,0.0,0.0,0.0,1.9978,2.2124,2.4192,2.4837,2.3959,2.1283,1.8846,0.0,0.0,0.0,0.0,0.0,0.0,0.0,0.0,0.0,0.0,0.0,0.0,0.0,0.0,0.0,0.0,0.0,0.0,0.0,0.0,0.0,0.0,0.0,0.0,0.0,0.0,0.0,0.0,0.0,0.0,0.0,0.0,0.0,0.0,0.0,0.0,0.0,0.0,0.0,0.0,0.0,0.0,0.0,0.0,0.0,0.0,0.0,0.0,0.5096,0.0,0.0,0.0,0.0,0.0,0.0,0.0,0.0,0.0,0.0,0.0,0.0,0.0,0.0,0.0,0.0,0.0,0.0,0.0,0.0,0.0,0.0,0.0,0.0,0.0,0.0,0.0,0.0,0.0,0.0,0.0,0.0,0.0,0.0,0.0,0.0,0.0,0.0,0.0,0.0,0.0,0.0,0.0,0.0,0.0,0.0,0.0,0.0,0.0,0.0,0.0,0.0,0.0,0.0,0.0,0.0,0.0,0.0,0.0,1.8086,2.0897,2.2031,2.2627,2.2681,2.0228,1.7616,0.0,0.0,0.0,0.0,0.0,0.0,0.0,0.0,0.0,0.0,0.0,0.0,0.0,0.0,0.0,0.0,0.0,0.0,0.0,0.0,0.0,0.0,0.0,0.0,0.0,0.0,0.0,0.0,0.0,0.0,0.0,0.0,0.0,0.0,0.0,0.0,0.0,0.0,0.0,0.0,0.0,0.0,0.0,0.0,0.0,0.0,0.0,0.0,0.0,0.0,0.0,0.0,0.0,0.0,0.0,0.0,0.0,0.0,0.0,0.0,0.0,0.0,0.0,0.0,0.0,0.0,0.0,0.0,0.0,0.0,0.0,0.0,0.0,0.0,0.0,0.0,0.0,0.0,0.0,0.0,0.0,0.0,0.0,0.0,0.0,0.0,0.0,0.0,0.0,0.0,0.0,0.0,0.0,0.0,0.0,0.0,0.0,0.0,0.0,0.0,0.0,0.0,0.0,0.0,0.0,0.0,0.0,0.0,1.6088,1.863,1.9956,2.0134,1.8964,1.7315,1.5381,0.0,0.0,0.0,0.0,0.0,0.0,0.0,0.0,0.0,0.0,0.0,0.0,0.0,0.0,0.0,0.0,0.0,0.0,0.0,0.0,0.0,0.0,0.0,0.0,0.0,0.0,0.0,0.0,0.0,0.0,0.0,0.0,0.0,0.0,0.0,0.0,0.0,0.0,0.0,0.0,0.0,0.0,0.0,0.0,0.0,0.0,0.0,0.0,0.0,0.0,0.0,0.0,0.0,0.0,0.0,0.0,0.0,0.0,0.0,0.0,0.0,0.0,0.0,0.0,0.0,0.0,0.0,0.0,0.0,0.0,0.0,0.0,0.0,0.0,0.0,0.0,0.0,0.0,0.0,0.0,0.0,0.0,0.0,0.0,0.0,0.0,0.0,0.0,0.0,0.0,0.0,0.0,0.0,0.0,0.0,0.0,0.0,0.0,0.0,0.0,0.0,0.0,0.0,0.0,0.0,0.0,0.0,0.0,0.0,1.6284,1.7358,1.7242,1.5873,1.4793,1.3523,0.0,0.0,0.0,0.0,0.0,0.0,0.0,0.0,0.0,0.0,0.0,0.0,0.0,0.0,0.0,0.0,0.0,0.0,0.0,0.0,0.0,0.0,0.0,0.0,0.0,0.0,0.0,0.0,0.0,0.0,0.0,0.0,0.0,0.0,0.0,0.0,0.0,0.0,0.0,0.0,0.0,0.0,0.0,0.0,0.0,0.0,0.0,0.0,0.0,0.0,0.0,0.0,0.0,0.0,0.0,0.0,0.0,0.0,0.0,0.0,0.0,0.0,0.0,0.0,0.0,0.0,0.0,0.0,0.0,0.0,0.0,0.0,0.0,0.0,0.0,0.0,0.0,0.0,0.0,0.0,0.0,0.0,0.0,0.0,0.0,0.0,0.0,0.0,0.0,0.0,0.0,0.0,0.0,0.0,0.0,0.0,0.0,0.0,0.0,0.0,0.0,0.0,0.0,0.0,0.0,0.0,0.0,0.0,0.0,1.4283,1.3827,1.3835,1.4242,1.3516,1.2427,0.0,0.0,0.0,0.0,0.0,0.0,0.0,0.0,0.0,0.0,0.0,0.0,0.0,0.0,0.0,0.0,0.0,0.0,0.0,0.0,0.0,0.0,0.0,0.0,0.0,0.0,0.0,0.0,0.0,0.0,0.0,0.0,0.0,0.0,0.0,0.0,0.0,0.0,0.0,0.0,0.0,0.0,0.0,0.0,0.0,0.0,0.0,0.0,0.0,0.0,0.0,0.0,0.0,0.0,0.0,0.0,0.0,0.0,0.0,0.0,0.0,0.0,0.0,0.0,0.0,0.0,0.0,0.0,0.0,0.0,0.0,0.0,0.0,0.0,0.0,0.0,0.0,0.0,0.0,0.0,0.0,0.0,0.0,0.0,0.0,0.0,0.0,0.0,0.0,0.0,0.0,0.0,0.0,0.0,0.0,0.0,0.0,0.0,0.0,0.0,0.0,0.0,0.0,0.0,0.0,0.0,0.0,0.0,0.0,1.1009,1.1504,1.1747,1.1725,1.1211,1.0248,0.8878,0.0,0.0,0.0,0.0,0.0,0.0,0.0,0.0,0.0,0.0,0.0,0.0,0.0,0.0,0.0,0.0,0.0,0.0,0.0,0.0,0.0,0.0,0.0,0.0,0.0,0.0,0.0,0.0,0.0,0.0,0.0,0.0,0.0,0.0,0.0,0.0,0.0,0.0,0.0,0.0,0.0,0.0,0.0,0.0,0.0,0.0,0.0,0.0,0.0,0.0,0.0,0.0,0.0,0.0,0.0,0.0,0.0,0.0,0.0,0.0,0.0,0.0,0.0,0.0,0.0,0.0,0.0,0.0,0.0,0.0,0.0,0.0,0.0,0.0,0.0,0.0,0.0,0.0,0.0,0.0,0.0,0.0,0.0,0.0,0.0,0.0,0.0,0.0,0.0,0.0,0.0,0.0,0.0,0.0,0.0,0.0,0.0,0.0,0.0,0.0,0.0,0.0,0.0,0.0,0.0,0.0,0.0,0.0,0.8401,0.9375,0.9839,0.9556,0.9227,0.8533,0.0,0.0,0.0,0.0,0.0,0.0,0.0,0.0,0.0,0.0,0.0,0.0,0.0,0.0,0.0,0.0,0.0,0.0,0.0,0.0,0.0,0.0,0.0,0.0,0.0,0.0,0.0,0.0,0.0,0.0,0.0,0.0,0.0,0.0,0.0,0.0,0.0,0.0,0.0,0.0,0.0,0.0,0.0,0.0,0.0,0.0,0.0,0.0,0.0,0.0,0.0,0.0,0.0,0.0,0.0,0.0,0.0,0.0,0.0,0.0,0.0,0.0,0.0,0.0,0.0,0.0,0.0,0.0,0.0,0.0,0.0,0.0,0.0,0.0,0.0,0.0,0.0,0.0,0.0,0.0,0.0,0.0,0.0,0.0,0.0,0.0,0.0,0.0,0.0,0.0,0.0,0.0,0.0,0.0,0.0,0.0,0.0,0.0,0.0,0.0,0.0,0.0,0.0,0.0,0.0,0.0,0.0,0.0,0.6097,0.6828,0.7525,0.7924,0.8001,0.7765,0.7437,0.0,0.0,0.0,0.0,0.0,0.0,0.0,0.0,0.0,0.0,0.0,0.0,0.0,0.0,0.0,0.0,0.0,0.0,0.0,0.0,0.0,0.0,0.0,0.0,0.0,0.0,0.0,0.0,0.0,0.0,0.0,0.0,0.0,0.0,0.0,0.0,0.0,0.0,0.0,0.0,0.0,0.0,0.0,0.0,0.0,0.0,0.0,0.0,0.0,0.0,0.0,0.0,0.0,0.0,0.0,0.0,0.0,0.0,0.0,0.0,0.0,0.0,0.0,0.0,0.0,0.0,0.0,0.0,0.0,0.0,0.0,0.0,0.0,0.0,0.0,0.0,0.0,0.0,0.0,0.0,0.0,0.0,0.0,0.0,0.0,0.0,0.0,0.0,0.0,0.0,0.0,0.0,0.0,0.0,0.0,0.0,0.0,0.0,0.0,0.0,0.0,0.0,0.0,0.0,0.0,0.0,0.0,0.0,0.0,0.6275,0.0,0.7013,0.0,0.6784,0.6381,0.0,0.0,0.0,0.0,0.0,0.0,0.0,0.0,0.0,0.0,0.0,0.0,0.0,0.0,0.0,0.0,0.0,0.0,0.0,0.0,0.0,0.0,0.0,0.0,0.0,0.0,0.0,0.0,0.0,0.0,0.0,0.0,0.0,0.0,0.0,0.0,0.0,0.0,0.0,0.0,0.0,0.0,0.0,0.0,0.0,0.0,0.0,0.0,0.0,0.0,0.0,0.0,0.0,0.0,0.0,0.0,0.0,0.0,0.0,0.0,0.0,0.0,0.0,0.0,0.0,0.0,0.0,0.0,0.0,0.0,0.0,0.0,0.0,0.0,0.0,0.0,0.0,0.0,0.0,0.0,0.0,0.0,0.0,0.0,0.0,0.0,0.0,0.0,0.0,0.0,0.0,0.0,0.0,0.0,0.0,0.0,0.0,0.0,0.0,0.0,0.0,0.0,0.0,0.0,0.0,0.0,0.0,0.0,0.0,0.5749,0.6097,0.6139,0.5981,0.6034,0.5699,0.0,0.0,0.0,0.0,0.0,0.0,0.0,0.0,0.0,0.0,0.0,0.0,0.0,0.0,0.0,0.0,0.0,0.0,0.0,0.0,0.0,0.0,0.0,0.0,0.0,0.0,0.0,0.0,0.0,0.0,0.0,0.0,0.0,0.0,0.0,0.0,0.0,0.0,0.0,0.0,0.0,0.0,0.0,0.0,0.0,0.0,0.0,0.0,0.0,0.0,0.0,0.0,0.0,0.0,0.0,0.0,0.0,0.0,0.0,0.0,0.0,0.0,0.0,0.0,0.0,0.0,0.0,0.0,0.0,0.0,0.0,0.0,0.0,0.0,0.0,0.0,0.0,0.0,0.0,0.0,0.0,0.0,0.0,0.0,0.0,0.0,0.0,0.0,0.0,0.0,0.0,0.0,0.0,0.0,0.0,0.0,0.0,0.0,0.0,0.0,0.0,0.0,0.0,0.0,0.0,0.0,0.0,0.0,0.0,0.0,0.5254,0.5318,0.5415,0.5447,0.5243,0.0,0.0,0.0,0.0,0.0,0.0,0.0,0.0,0.0,0.0,0.0,0.0,0.0,0.0,0.0,0.0,0.0,0.0,0.0,0.0,0.0,0.0,0.0,0.0,0.0,0.0,0.0,0.0,0.0,0.0,0.0,0.0,0.0,0.0,0.0,0.0,0.0,0.0,0.0,0.0,0.0,0.0,0.0,0.0,0.0,0.0,0.0,0.0,0.0,0.0,0.0,0.0,0.0,0.0,0.0,0.0,0.0,0.0,0.0,0.0,0.0,0.0,0.0,0.0,0.0,0.0,0.0,0.0,0.0,0.0,0.0,0.0,0.0,0.0,0.0,0.0,0.0,0.0,0.0,0.0,0.0,0.0,0.0,0.0,0.0,0.0,0.0,0.0,0.0,0.0,0.0,0.0,0.0,0.0,0.0,0.0,0.0,0.0,0.0,0.0,0.0,0.0,0.0,0.0,0.0,0.0,0.0,0.0,0.0,0.0,0.5208,0.0,0.5312,0.5408,0.5189,0.4593,0.0,0.0,0.0,0.0,0.0,0.0,0.0,0.0,0.0,0.0,0.0,0.0,0.0,0.0,0.0,0.0,0.0,0.0,0.0,0.0,0.0,0.0,0.0,0.0,0.0,0.0,0.0,0.0,0.0,0.0,0.0,0.0,0.0,0.0,0.0,0.0,0.0,0.0,0.0,0.0,0.0,0.0,0.0,0.0,0.0,0.0,0.0,0.0,0.0,0.0,0.0,0.0,0.0,0.0,0.0,0.0,0.0,0.0,0.0,0.0,0.0,0.0,0.0,0.0,0.0,0.0,0.0,0.0,0.0,0.0,0.0,0.0,0.0,0.0,0.0,0.0,0.0,0.0,0.0,0.0,0.0,0.0,0.0,0.0,0.0,0.0,0.0,0.0,0.0,0.0,0.0,0.0,0.0,0.0,0.0,0.0,0.0,0.0,0.0,0.0,0.0,0.0,0.0,0.0,0.0,0.0,0.0,0.0,0.0,0.0,0.0,0.5008,0.5079,0.4907,0.0,0.0,0.0,0.0,0.0,0.0,0.0,0.0,0.0,0.0,0.0,0.0,0.0,0.0,0.0,0.0,0.0,0.0,0.0,0.0,0.0,0.0,0.0,0.0,0.0,0.0,0.0,0.0,0.0,0.0,0.0,0.0,0.0,0.0,0.0,0.0,0.0,0.0,0.0,0.0,0.0,0.0,0.0,0.0,0.0,0.0,0.0,0.0,0.0,0.0,0.0,0.0,0.0,0.0,0.0,0.0,0.0,0.0,0.0,0.0,0.0,0.0,0.0,0.0,0.0,0.0,0.0,0.0,0.0,0.0,0.0,0.0,0.0,0.0,0.0,0.0,0.0,0.0,0.0,0.0,0.0,0.0,0.0,0.0,0.0,0.0,0.0,0.0,0.0,0.0,0.0,0.0,0.0,0.0,0.0,0.0,0.0,0.0,0.0,0.0,0.0,0.0,0.0,0.0,0.0,0.0,0.0,0.0,0.0,0.0,0.0,0.4783,0.468,0.4648,0.0,0.4276,0.0,0.0,0.0,0.0,0.0,0.0,0.0,0.0,0.0,0.0,0.0,0.0,0.0,0.0,0.0,0.0,0.0,0.0,0.0,0.0,0.0,0.0,0.0,0.0,0.0,0.0,0.0,0.0,0.0,0.0,0.0,0.0,0.0,0.0,0.0,0.0,0.0,0.0,0.0,0.0,0.0,0.0,0.0,0.0,0.0,0.0,0.0,0.0,0.0,0.0,0.0,0.0,0.0,0.0,0.0,0.0,0.0,0.0,0.0,0.0,0.0,0.0,0.0,0.0,0.0,0.0,0.0,0.0,0.0,0.0,0.0,0.0,0.0,0.0,0.0,0.0,0.0,0.0,0.0,0.0,0.0,0.0,0.0,0.0,0.0,0.0,0.0,0.0,0.0,0.0,0.0,0.0,0.0,0.0,0.0,0.0,0.0,0.0,0.0,0.0,0.0,0.0,0.0,0.0,0.0,0.0,0.0,0.0,0.0,0.0,0.0,0.0,0.4309,0.4185,0.414,0.0,0.0,0.0,0.0,0.0,0.0,0.0,0.0,0.0,0.0,0.0,0.0,0.0,0.0,0.0,0.0,0.0,0.0,0.0,0.0,0.0,0.0,0.0,0.0,0.0,0.0,0.0,0.0,0.0,0.0,0.0,0.0,0.0,0.0,0.0,0.0,0.0,0.0,0.0,0.0,0.0,0.0,0.0,0.0,0.0,0.0,0.0,0.0,0.0,0.0,0.0,0.0,0.0,0.0,0.0,0.0,0.0,0.0,0.0,0.0,0.0,0.0,0.0,0.0,0.0,0.0,0.0,0.0,0.0,0.0,0.0,0.0,0.0,0.0,0.0,0.0,0.0,0.0,0.0,0.0,0.0,0.0,0.0,0.0,0.0,0.0,0.0,0.0,0.0,0.0,0.0,0.0,0.0,0.0,0.0,0.0,0.0,0.0,0.0,0.0,0.0,0.0,0.0,0.0,0.0,0.0,0.0,0.0,0.0,0.0,0.4142,0.3947,0.3748,0.3618,0.3641,0.0,0.0,0.0,0.0,0.0,0.0,0.0,0.0,0.0,0.0,0.0,0.0,0.0,0.0,0.0,0.0,0.0,0.0,0.0,0.0,0.0,0.0,0.0,0.0,0.0,0.0,0.0,0.0,0.0,0.0,0.0,0.0,0.0,0.0,0.0,0.0,0.0,0.0,0.0,0.0,0.0,0.0,0.0,0.0,0.0,0.0,0.0,0.0,0.0,0.0,0.0,0.0,0.0,0.0,0.0,0.0,0.0,0.0,0.0,0.0,0.0,0.0,0.0,0.0,0.0,0.0,0.0,0.0,0.0,0.0,0.0,0.0,0.0,0.0,0.0,0.0,0.0,0.0,0.0,0.0,0.0,0.0,0.0,0.0,0.0,0.0,0.0,0.0,0.0,0.0,0.0,0.0,0.0,0.0,0.0,0.0,0.0,0.0,0.0,0.0,0.0,0.0,0.0,0.0,0.0,0.0,0.0,0.0,0.0,0.0,0.0,0.0,0.0,0.0,0.2959,0.0,0.0,0.0,0.0,0.0,0.0,0.0,0.0,0.0,0.0,0.0,0.0,0.0,0.0,0.0,0.0,0.0,0.0,0.0,0.0,0.0,0.0,0.0,0.0,0.0,0.0,0.0,0.0,0.0,0.0,0.0,0.0,0.0,0.0,0.0,0.0,0.0,0.0,0.0,0.0,0.0,0.0,0.0,0.0,0.0,0.0,0.0,0.0,0.0,0.0,0.0,0.0,0.0,0.0,0.0,0.0,0.0,0.0,0.0,0.0,0.0,0.0,0.0,0.0,0.0,0.0,0.0,0.0,0.0,0.0,0.0,0.0,0.0,0.0,0.0,0.0,0.0,0.0,0.0,0.0,0.0,0.0,0.0,0.0,0.0,0.0,0.0,0.0,0.0,0.0,0.0,0.0,0.0,0.0,0.0,0.0,0.0,0.0,0.0,0.0,0.0,0.0,0.0,0.0,0.0,0.0,0.0,0.0,0.0,0.0,0.0,0.0,0.0,0.0,0.0,0.0,0.0,0.0,0.0,0.0,0.0,0.0,0.0,0.0,0.0,0.0,0.0,0.0,0.0,0.0,0.0,0.0,0.0,0.0,0.0,0.0,0.0,0.0,0.0,0.0,0.0,0.0,0.0,0.0,0.0,0.0,0.0,0.0,0.0,0.0,0.0,0.0,0.0,0.0,0.0,0.0,0.0,0.0,0.0,0.0,0.0,0.0,0.0,0.0,0.0,0.0,0.0,0.0,0.0,0.0,0.0,0.0,0.0,0.0,0.0,0.0,0.0,0.0,0.0,0.0,0.0,0.0,0.0,0.0,0.0,0.0,0.0,0.0,0.0,0.0,0.0,0.0,0.0,0.0,0.0,0.0,0.0,0.0,0.0,0.0,0.0,0.0,0.0,0.0,0.0,0.0,0.0,0.0,0.0,0.0,0.0,0.0,0.0,0.0,0.0,0.0,0.0,0.0,0.0,0.0,0.0,0.0,0.0,0.0,0.0,0.0,0.0,0.0,0.0,0.0,0.0,0.0,0.0,0.0,0.0,0.0,0.0,0.0,0.0,0.0,0.0,0.0,0.0,0.0,0.0,0.0,0.0,0.0,0.0,0.0,0.0,0.0,0.0,0.0,0.0,0.0,0.0,0.0,0.0,0.0,0.0,0.0,0.0,0.0,0.0,0.0,0.0,0.0,0.0,0.0,0.0,0.0,0.0,0.0,0.0,0.0,0.0,0.0,0.0,0.0,0.0,0.0,0.0,0.0,0.0,0.0,0.0,0.0,0.0,0.0,0.0,0.0,0.0,0.0,0.0,0.0,0.0,0.0,0.0,0.0,0.0,0.0,0.0,0.0,0.0,0.0,0.0,0.0,0.0,0.0,0.0,0.0,0.0,0.0,0.0,0.0,0.0,0.0,0.0,0.0,0.0,0.0,0.0,0.0,0.0,0.0,0.0,0.0,0.0,0.0,0.0,0.0,0.0,0.0,0.0,0.0,0.0,0.0,0.0,0.0,0.0,0.0,0.0,0.0,0.0,0.0,0.0,0.0,0.0,0.0,0.0,0.0,0.0,0.0,0.0,0.0,0.0,0.0,0.0,0.0,0.0,0.0,0.0,0.0,0.0,0.0,0.0,0.0,0.0,0.0,0.0,0.0,0.0,0.0,0.0,0.0,0.0,0.0,0.0,0.0,0.0,0.0,0.0,0.0,0.0,0.0,0.0,0.0,0.0,0.0,0.0,0.0,0.0,0.0,0.0,0.0,0.0,0.0,0.0,0.0,0.0,0.0,0.0,0.0,0.0,0.0,0.0,0.0,0.0,0.0,0.0,0.0,0.0,0.0,0.0,0.0,0.0,0.0,0.0,0.0,0.0,0.0,0.0,0.0,0.0,0.0,0.0,0.0,0.0,0.0,0.0,0.0,0.0,0.0,0.0,0.0,0.0,0.0,0.0,0.0,0.0,0.0,0.0,0.0,0.0,0.0,0.0,0.0,0.0,0.0,0.0,0.0,0.0,0.0,0.0,0.0,0.0,0.0,0.0,0.0,0.0,0.0,0.0,0.0,0.0,0.0,0.0,0.0,0.0,0.0,0.0,0.0,0.0,0.0,0.0,0.0,0.0,0.0,0.0,0.0,0.0,0.0,0.0,0.0,0.0,0.0,0.0,0.0,0.0,0.0,0.0,0.0,0.0,0.0,0.0,0.0,0.0,0.0,0.0,0.0,0.0,0.0,0.0,0.0,0.0,0.0,0.0,0.0,0.0,0.0,0.0,0.0,0.0,0.0,0.0,0.0,0.0,0.0,0.0,0.0,0.0,0.0,0.0,0.0,0.0,0.0,0.0,0.0,0.0,0.0,0.0,0.0,0.0,0.0,0.0,0.0,0.0,0.0,0.0,0.0,0.0,0.0,0.0,0.0,0.0,0.0,0.0,0.0,0.0,0.0,0.0,0.0,0.0,0.0,0.0,0.0,0.0,0.0,0.0,0.0,0.0,0.0,0.0,0.0,0.0,0.0,0.0,0.0,0.0,0.0,0.0,0.0,0.0,0.0,0.0,0.0,0.0,0.0,0.0,0.0,0.0,0.0,0.0,0.0,0.0,0.0,0.0,0.0,0.0,0.0,0.0,0.0,0.0,0.0,0.0,0.0,0.0,0.0,0.0,0.0,0.0,0.0,0.0,0.0,0.0,0.0,0.0,0.0,0.0,0.0,0.0,0.0,0.0,0.0,0.0,0.0,0.0,0.0,0.0,0.0,0.0,0.0,0.0,0.0,0.0,0.0,0.0,0.0,0.0,0.0,0.0,0.0,0.0,0.0,0.0,0.0,0.0,0.0,0.0,0.0,0.0,0.0,0.0,0.0,0.0,0.0,0.0,0.0,0.0,0.0,0.0,0.0,0.0,0.0,0.0,0.0,0.0,0.0,0.0,0.0,0.0,0.0,0.0,0.0,0.0,0.0,0.0,0.0,0.0,0.0,0.0,0.0,0.0,0.0,0.0,0.0,0.0,0.0,0.0,0.0,0.0,0.0,0.0,0.0,0.0,0.0,0.0,0.0,0.0,0.0,0.0,0.0,0.0,0.0,0.0,0.0,0.0,0.0,0.0,0.0,0.0,0.0,0.0,0.0,0.0,0.0,0.0,0.0,0.0,0.0,0.0,0.0,0.0,0.0,0.0,0.0,0.0,0.0,0.0,0.0,0.0,0.0,0.0,0.0,0.0,0.0,0.0,0.0,0.0,0.0,0.0,0.0,0.0,0.0,0.0,0.0,0.0,0.0,0.0,0.0,0.0,0.0,0.0,0.0,0.0,0.0,0.0,0.0,0.0,0.0,0.0,0.0,0.0,0.0,0.0,0.0,0.0,0.0,0.0,0.0,0.0,0.0,0.0,0.0,0.0,0.0,0.0,0.0,0.0,0.0,0.0,0.0,0.0,0.0,0.0,0.0,0.0,0.0,0.0,0.0,0.0,0.0,0.0,0.0,0.0,0.0,0.0,0.0,0.0,0.0,0.0,0.0,0.0,0.0,0.0,0.0,0.0,0.0,0.0,0.0,0.0,0.0,0.0,0.0,0.0,0.0,0.0,0.0,0.0,0.0,0.0,0.0,0.0,0.0,0.0,0.0,0.0,0.0,0.0,0.0,0.0,0.0,0.0,0.0,0.0,0.0,0.0,0.0,0.0,0.0,0.0,0.0,0.0,0.0,0.0,0.0,0.0,0.0,0.0,0.0,0.0,0.0,0.0,0.0,0.0,0.0,0.0,0.0,0.0,0.0,0.0,0.0,0.0,0.0,0.0,0.0,0.0,0.0,0.0,0.0,0.0,0.0,0.0,0.0,0.0,0.0,0.0,0.0,0.0,0.0,0.0,0.0,0.0,0.0,0.0,0.0,0.0,0.0,0.0,0.0,0.0,0.0,0.0,0.0,0.0,0.0,0.0,0.0,0.0,0.0,0.0,0.0,0.0,0.0,0.0,0.0,0.0,0.0,0.0,0.0,0.0,0.0,0.0,0.0,0.0,0.0,0.0,0.0,0.0,0.0,0.0,0.0,0.0,0.0,0.0,0.0,0.0,0.0,0.0,0.0,0.0,0.0,0.0,0.0,0.0,0.0,0.0,0.0,0.0,0.0,0.0,0.0,0.0,0.0,0.0,0.0,0.0,0.0,0.0,0.0,0.0,0.0,0.0,0.0,0.0,0.0,0.0,0.0,0.0,0.0,0.0,0.0,0.0,0.0,0.0,0.0,0.0,0.0,0.0,0.0,0.0,0.0,0.0,0.0,0.0,0.0,0.0,0.0,0.0,0.0,0.0,0.0,0.0,0.0,0.0,0.0,0.0,0.0,0.0,0.0,0.0,0.0,0.0,0.0,0.0,0.0,0.0,0.0]}]]]